<?xml version="1.0" encoding="UTF-8" standalone="no" ?>
<gpx xmlns="http://www.topografix.com/GPX/1/1" xmlns:xsi="http://www.w3.org/2001/XMLSchema-instance" xsi:schemaLocation="http://www.topografix.com/GPX/1/1 http://www.topografix.com/GPX/1/1/gpx.xsd" version="1.1" creator="VisuGPX - https://www.visugpx.com">
  <metadata>
    <name>footing avec Mehdi</name>
  </metadata>
  <trk>
    <name><![CDATA[footing avec Mehdi]]></name>
    <trkseg>
      <trkpt lat="4.6298" lon="-74.06547">
        <ele>2587.6</ele>
        <time>2020-08-30T12:20:41Z</time>
      </trkpt>
      <trkpt lat="4.62979" lon="-74.06546">
        <ele>2587.6</ele>
        <time>2020-08-30T12:20:50Z</time>
      </trkpt>
      <trkpt lat="4.6298" lon="-74.06548">
        <ele>2587.6</ele>
        <time>2020-08-30T12:20:56Z</time>
      </trkpt>
      <trkpt lat="4.62981" lon="-74.06544">
        <ele>2587.6</ele>
        <time>2020-08-30T12:21:06Z</time>
      </trkpt>
      <trkpt lat="4.62981" lon="-74.06544">
        <ele>2587.6</ele>
        <time>2020-08-30T12:21:16Z</time>
      </trkpt>
      <trkpt lat="4.62979" lon="-74.06559">
        <ele>2587.6</ele>
        <time>2020-08-30T12:21:27Z</time>
      </trkpt>
      <trkpt lat="4.63018" lon="-74.0655">
        <ele>2587.4</ele>
        <time>2020-08-30T12:21:37Z</time>
      </trkpt>
      <trkpt lat="4.6303" lon="-74.06562">
        <ele>2587.3</ele>
        <time>2020-08-30T12:21:46Z</time>
      </trkpt>
      <trkpt lat="4.63059" lon="-74.06555">
        <ele>2586.9</ele>
        <time>2020-08-30T12:21:55Z</time>
      </trkpt>
      <trkpt lat="4.6309" lon="-74.06546">
        <ele>2586.9</ele>
        <time>2020-08-30T12:22:01Z</time>
      </trkpt>
      <trkpt lat="4.63115" lon="-74.06537">
        <ele>2587.4</ele>
        <time>2020-08-30T12:22:11Z</time>
      </trkpt>
      <trkpt lat="4.63126" lon="-74.06569">
        <ele>2585.3</ele>
        <time>2020-08-30T12:22:21Z</time>
      </trkpt>
      <trkpt lat="4.63135" lon="-74.06608">
        <ele>2583.1</ele>
        <time>2020-08-30T12:22:31Z</time>
      </trkpt>
      <trkpt lat="4.63136" lon="-74.06633">
        <ele>2582.2</ele>
        <time>2020-08-30T12:22:42Z</time>
      </trkpt>
      <trkpt lat="4.63146" lon="-74.06656">
        <ele>2581.9</ele>
        <time>2020-08-30T12:22:52Z</time>
      </trkpt>
      <trkpt lat="4.63145" lon="-74.06671">
        <ele>2581</ele>
        <time>2020-08-30T12:23:02Z</time>
      </trkpt>
      <trkpt lat="4.63145" lon="-74.06689">
        <ele>2579.9</ele>
        <time>2020-08-30T12:23:12Z</time>
      </trkpt>
      <trkpt lat="4.63182" lon="-74.06693">
        <ele>2579</ele>
        <time>2020-08-30T12:23:22Z</time>
      </trkpt>
      <trkpt lat="4.63222" lon="-74.06692">
        <ele>2579.1</ele>
        <time>2020-08-30T12:23:32Z</time>
      </trkpt>
      <trkpt lat="4.63261" lon="-74.0669">
        <ele>2579.7</ele>
        <time>2020-08-30T12:23:36Z</time>
      </trkpt>
      <trkpt lat="4.63301" lon="-74.06689">
        <ele>2580</ele>
        <time>2020-08-30T12:23:42Z</time>
      </trkpt>
      <trkpt lat="4.63335" lon="-74.06693">
        <ele>2581.7</ele>
        <time>2020-08-30T12:23:52Z</time>
      </trkpt>
      <trkpt lat="4.63355" lon="-74.06694">
        <ele>2581.6</ele>
        <time>2020-08-30T12:24:02Z</time>
      </trkpt>
      <trkpt lat="4.6337" lon="-74.06696">
        <ele>2580.7</ele>
        <time>2020-08-30T12:24:12Z</time>
      </trkpt>
      <trkpt lat="4.63374" lon="-74.06696">
        <ele>2580.6</ele>
        <time>2020-08-30T12:24:16Z</time>
      </trkpt>
      <trkpt lat="4.63377" lon="-74.06697">
        <ele>2580.5</ele>
        <time>2020-08-30T12:24:22Z</time>
      </trkpt>
      <trkpt lat="4.63387" lon="-74.06691">
        <ele>2581.3</ele>
        <time>2020-08-30T12:24:25Z</time>
      </trkpt>
      <trkpt lat="4.63393" lon="-74.06685">
        <ele>2583</ele>
        <time>2020-08-30T12:24:26Z</time>
      </trkpt>
      <trkpt lat="4.63401" lon="-74.06675">
        <ele>2584.5</ele>
        <time>2020-08-30T12:24:28Z</time>
      </trkpt>
      <trkpt lat="4.6341" lon="-74.0666">
        <ele>2587.1</ele>
        <time>2020-08-30T12:24:30Z</time>
      </trkpt>
      <trkpt lat="4.63416" lon="-74.06653">
        <ele>2587.1</ele>
        <time>2020-08-30T12:24:32Z</time>
      </trkpt>
      <trkpt lat="4.63414" lon="-74.06652">
        <ele>2587.7</ele>
        <time>2020-08-30T12:24:33Z</time>
      </trkpt>
      <trkpt lat="4.63414" lon="-74.06653">
        <ele>2587.4</ele>
        <time>2020-08-30T12:24:35Z</time>
      </trkpt>
      <trkpt lat="4.63422" lon="-74.06647">
        <ele>2587.6</ele>
        <time>2020-08-30T12:24:38Z</time>
      </trkpt>
      <trkpt lat="4.6343" lon="-74.06637">
        <ele>2586.3</ele>
        <time>2020-08-30T12:24:40Z</time>
      </trkpt>
      <trkpt lat="4.63442" lon="-74.06628">
        <ele>2583.4</ele>
        <time>2020-08-30T12:24:43Z</time>
      </trkpt>
      <trkpt lat="4.63449" lon="-74.06626">
        <ele>2581.3</ele>
        <time>2020-08-30T12:24:45Z</time>
      </trkpt>
      <trkpt lat="4.63453" lon="-74.06623">
        <ele>2580.5</ele>
        <time>2020-08-30T12:24:46Z</time>
      </trkpt>
      <trkpt lat="4.63462" lon="-74.06616">
        <ele>2578.6</ele>
        <time>2020-08-30T12:24:48Z</time>
      </trkpt>
      <trkpt lat="4.6347" lon="-74.06611">
        <ele>2577.5</ele>
        <time>2020-08-30T12:24:50Z</time>
      </trkpt>
      <trkpt lat="4.63479" lon="-74.06599">
        <ele>2577.8</ele>
        <time>2020-08-30T12:24:52Z</time>
      </trkpt>
      <trkpt lat="4.63489" lon="-74.06588">
        <ele>2577.5</ele>
        <time>2020-08-30T12:24:54Z</time>
      </trkpt>
      <trkpt lat="4.63497" lon="-74.06582">
        <ele>2577.3</ele>
        <time>2020-08-30T12:24:56Z</time>
      </trkpt>
      <trkpt lat="4.63505" lon="-74.06578">
        <ele>2577.2</ele>
        <time>2020-08-30T12:24:59Z</time>
      </trkpt>
      <trkpt lat="4.6351" lon="-74.06576">
        <ele>2577.1</ele>
        <time>2020-08-30T12:25:01Z</time>
      </trkpt>
      <trkpt lat="4.63517" lon="-74.06575">
        <ele>2577.1</ele>
        <time>2020-08-30T12:25:03Z</time>
      </trkpt>
      <trkpt lat="4.6352" lon="-74.06574">
        <ele>2577</ele>
        <time>2020-08-30T12:25:04Z</time>
      </trkpt>
      <trkpt lat="4.63527" lon="-74.06576">
        <ele>2577</ele>
        <time>2020-08-30T12:25:06Z</time>
      </trkpt>
      <trkpt lat="4.6353" lon="-74.06578">
        <ele>2577</ele>
        <time>2020-08-30T12:25:07Z</time>
      </trkpt>
      <trkpt lat="4.63533" lon="-74.06579">
        <ele>2577</ele>
        <time>2020-08-30T12:25:08Z</time>
      </trkpt>
      <trkpt lat="4.63535" lon="-74.0658">
        <ele>2577</ele>
        <time>2020-08-30T12:25:09Z</time>
      </trkpt>
      <trkpt lat="4.63543" lon="-74.0658">
        <ele>2577</ele>
        <time>2020-08-30T12:25:12Z</time>
      </trkpt>
      <trkpt lat="4.63549" lon="-74.06579">
        <ele>2577</ele>
        <time>2020-08-30T12:25:14Z</time>
      </trkpt>
      <trkpt lat="4.63552" lon="-74.06578">
        <ele>2577</ele>
        <time>2020-08-30T12:25:15Z</time>
      </trkpt>
      <trkpt lat="4.63558" lon="-74.06576">
        <ele>2577</ele>
        <time>2020-08-30T12:25:17Z</time>
      </trkpt>
      <trkpt lat="4.63561" lon="-74.06574">
        <ele>2577</ele>
        <time>2020-08-30T12:25:18Z</time>
      </trkpt>
      <trkpt lat="4.63568" lon="-74.06572">
        <ele>2577</ele>
        <time>2020-08-30T12:25:20Z</time>
      </trkpt>
      <trkpt lat="4.63574" lon="-74.0657">
        <ele>2577.1</ele>
        <time>2020-08-30T12:25:22Z</time>
      </trkpt>
      <trkpt lat="4.6358" lon="-74.06569">
        <ele>2577.1</ele>
        <time>2020-08-30T12:25:24Z</time>
      </trkpt>
      <trkpt lat="4.63586" lon="-74.06568">
        <ele>2577.2</ele>
        <time>2020-08-30T12:25:26Z</time>
      </trkpt>
      <trkpt lat="4.63591" lon="-74.06567">
        <ele>2577.3</ele>
        <time>2020-08-30T12:25:28Z</time>
      </trkpt>
      <trkpt lat="4.63597" lon="-74.06567">
        <ele>2577.4</ele>
        <time>2020-08-30T12:25:30Z</time>
      </trkpt>
      <trkpt lat="4.63603" lon="-74.06566">
        <ele>2577.5</ele>
        <time>2020-08-30T12:25:32Z</time>
      </trkpt>
      <trkpt lat="4.63606" lon="-74.06565">
        <ele>2577.6</ele>
        <time>2020-08-30T12:25:33Z</time>
      </trkpt>
      <trkpt lat="4.63609" lon="-74.06565">
        <ele>2577.6</ele>
        <time>2020-08-30T12:25:34Z</time>
      </trkpt>
      <trkpt lat="4.63611" lon="-74.06565">
        <ele>2577.7</ele>
        <time>2020-08-30T12:25:35Z</time>
      </trkpt>
      <trkpt lat="4.63615" lon="-74.06563">
        <ele>2577.7</ele>
        <time>2020-08-30T12:25:37Z</time>
      </trkpt>
      <trkpt lat="4.63621" lon="-74.0656">
        <ele>2577.8</ele>
        <time>2020-08-30T12:25:39Z</time>
      </trkpt>
      <trkpt lat="4.63623" lon="-74.06559">
        <ele>2577.9</ele>
        <time>2020-08-30T12:25:40Z</time>
      </trkpt>
      <trkpt lat="4.63626" lon="-74.06557">
        <ele>2577.9</ele>
        <time>2020-08-30T12:25:41Z</time>
      </trkpt>
      <trkpt lat="4.63629" lon="-74.06556">
        <ele>2577.9</ele>
        <time>2020-08-30T12:25:42Z</time>
      </trkpt>
      <trkpt lat="4.63634" lon="-74.06553">
        <ele>2577.9</ele>
        <time>2020-08-30T12:25:44Z</time>
      </trkpt>
      <trkpt lat="4.63637" lon="-74.06553">
        <ele>2577.8</ele>
        <time>2020-08-30T12:25:45Z</time>
      </trkpt>
      <trkpt lat="4.6364" lon="-74.06552">
        <ele>2577.8</ele>
        <time>2020-08-30T12:25:46Z</time>
      </trkpt>
      <trkpt lat="4.63645" lon="-74.06552">
        <ele>2577.8</ele>
        <time>2020-08-30T12:25:48Z</time>
      </trkpt>
      <trkpt lat="4.63648" lon="-74.06551">
        <ele>2577.8</ele>
        <time>2020-08-30T12:25:49Z</time>
      </trkpt>
      <trkpt lat="4.6365" lon="-74.0655">
        <ele>2577.8</ele>
        <time>2020-08-30T12:25:50Z</time>
      </trkpt>
      <trkpt lat="4.63656" lon="-74.06548">
        <ele>2577.8</ele>
        <time>2020-08-30T12:25:52Z</time>
      </trkpt>
      <trkpt lat="4.63661" lon="-74.06546">
        <ele>2577.7</ele>
        <time>2020-08-30T12:25:54Z</time>
      </trkpt>
      <trkpt lat="4.63666" lon="-74.06544">
        <ele>2577.7</ele>
        <time>2020-08-30T12:25:56Z</time>
      </trkpt>
      <trkpt lat="4.63672" lon="-74.06542">
        <ele>2577.7</ele>
        <time>2020-08-30T12:25:58Z</time>
      </trkpt>
      <trkpt lat="4.63675" lon="-74.06541">
        <ele>2577.7</ele>
        <time>2020-08-30T12:25:59Z</time>
      </trkpt>
      <trkpt lat="4.63678" lon="-74.06541">
        <ele>2577.7</ele>
        <time>2020-08-30T12:26:00Z</time>
      </trkpt>
      <trkpt lat="4.6368" lon="-74.0654">
        <ele>2577.8</ele>
        <time>2020-08-30T12:26:01Z</time>
      </trkpt>
      <trkpt lat="4.63686" lon="-74.0654">
        <ele>2577.8</ele>
        <time>2020-08-30T12:26:03Z</time>
      </trkpt>
      <trkpt lat="4.63689" lon="-74.06539">
        <ele>2577.8</ele>
        <time>2020-08-30T12:26:04Z</time>
      </trkpt>
      <trkpt lat="4.63694" lon="-74.06539">
        <ele>2577.8</ele>
        <time>2020-08-30T12:26:06Z</time>
      </trkpt>
      <trkpt lat="4.637" lon="-74.06539">
        <ele>2577.9</ele>
        <time>2020-08-30T12:26:08Z</time>
      </trkpt>
      <trkpt lat="4.63703" lon="-74.06538">
        <ele>2577.9</ele>
        <time>2020-08-30T12:26:09Z</time>
      </trkpt>
      <trkpt lat="4.63708" lon="-74.06538">
        <ele>2577.9</ele>
        <time>2020-08-30T12:26:11Z</time>
      </trkpt>
      <trkpt lat="4.63713" lon="-74.06537">
        <ele>2578</ele>
        <time>2020-08-30T12:26:13Z</time>
      </trkpt>
      <trkpt lat="4.63728" lon="-74.06531">
        <ele>2579</ele>
        <time>2020-08-30T12:26:21Z</time>
      </trkpt>
      <trkpt lat="4.63727" lon="-74.06527">
        <ele>2579.2</ele>
        <time>2020-08-30T12:26:22Z</time>
      </trkpt>
      <trkpt lat="4.63727" lon="-74.06526">
        <ele>2579.3</ele>
        <time>2020-08-30T12:26:23Z</time>
      </trkpt>
      <trkpt lat="4.63725" lon="-74.06521">
        <ele>2579.6</ele>
        <time>2020-08-30T12:26:25Z</time>
      </trkpt>
      <trkpt lat="4.63724" lon="-74.06518">
        <ele>2579.8</ele>
        <time>2020-08-30T12:26:26Z</time>
      </trkpt>
      <trkpt lat="4.63724" lon="-74.06517">
        <ele>2579.9</ele>
        <time>2020-08-30T12:26:27Z</time>
      </trkpt>
      <trkpt lat="4.63722" lon="-74.06514">
        <ele>2580.1</ele>
        <time>2020-08-30T12:26:29Z</time>
      </trkpt>
      <trkpt lat="4.63719" lon="-74.06512">
        <ele>2580.3</ele>
        <time>2020-08-30T12:26:30Z</time>
      </trkpt>
      <trkpt lat="4.63718" lon="-74.06511">
        <ele>2580.4</ele>
        <time>2020-08-30T12:26:31Z</time>
      </trkpt>
      <trkpt lat="4.63716" lon="-74.06508">
        <ele>2580.6</ele>
        <time>2020-08-30T12:26:33Z</time>
      </trkpt>
      <trkpt lat="4.63714" lon="-74.06505">
        <ele>2580.8</ele>
        <time>2020-08-30T12:26:35Z</time>
      </trkpt>
      <trkpt lat="4.63713" lon="-74.06503">
        <ele>2580.9</ele>
        <time>2020-08-30T12:26:36Z</time>
      </trkpt>
      <trkpt lat="4.63711" lon="-74.06501">
        <ele>2581.1</ele>
        <time>2020-08-30T12:26:38Z</time>
      </trkpt>
      <trkpt lat="4.63708" lon="-74.06497">
        <ele>2581.4</ele>
        <time>2020-08-30T12:26:40Z</time>
      </trkpt>
      <trkpt lat="4.63708" lon="-74.06495">
        <ele>2581.5</ele>
        <time>2020-08-30T12:26:41Z</time>
      </trkpt>
      <trkpt lat="4.63707" lon="-74.06494">
        <ele>2581.7</ele>
        <time>2020-08-30T12:26:42Z</time>
      </trkpt>
      <trkpt lat="4.63706" lon="-74.06489">
        <ele>2582</ele>
        <time>2020-08-30T12:26:44Z</time>
      </trkpt>
      <trkpt lat="4.63705" lon="-74.06484">
        <ele>2582.3</ele>
        <time>2020-08-30T12:26:45Z</time>
      </trkpt>
      <trkpt lat="4.63704" lon="-74.06482">
        <ele>2582.5</ele>
        <time>2020-08-30T12:26:46Z</time>
      </trkpt>
      <trkpt lat="4.63704" lon="-74.06477">
        <ele>2582.8</ele>
        <time>2020-08-30T12:26:48Z</time>
      </trkpt>
      <trkpt lat="4.63701" lon="-74.06473">
        <ele>2583.2</ele>
        <time>2020-08-30T12:26:50Z</time>
      </trkpt>
      <trkpt lat="4.63699" lon="-74.06471">
        <ele>2583.3</ele>
        <time>2020-08-30T12:26:51Z</time>
      </trkpt>
      <trkpt lat="4.63695" lon="-74.06467">
        <ele>2583.7</ele>
        <time>2020-08-30T12:26:53Z</time>
      </trkpt>
      <trkpt lat="4.63692" lon="-74.06465">
        <ele>2584</ele>
        <time>2020-08-30T12:26:55Z</time>
      </trkpt>
      <trkpt lat="4.63692" lon="-74.06464">
        <ele>2584</ele>
        <time>2020-08-30T12:26:56Z</time>
      </trkpt>
      <trkpt lat="4.63692" lon="-74.0646">
        <ele>2584.3</ele>
        <time>2020-08-30T12:26:58Z</time>
      </trkpt>
      <trkpt lat="4.63696" lon="-74.06456">
        <ele>2585.3</ele>
        <time>2020-08-30T12:27:00Z</time>
      </trkpt>
      <trkpt lat="4.63699" lon="-74.06455">
        <ele>2585.3</ele>
        <time>2020-08-30T12:27:01Z</time>
      </trkpt>
      <trkpt lat="4.63702" lon="-74.06455">
        <ele>2585.3</ele>
        <time>2020-08-30T12:27:02Z</time>
      </trkpt>
      <trkpt lat="4.63707" lon="-74.06458">
        <ele>2585.3</ele>
        <time>2020-08-30T12:27:04Z</time>
      </trkpt>
      <trkpt lat="4.63714" lon="-74.06462">
        <ele>2585.2</ele>
        <time>2020-08-30T12:27:06Z</time>
      </trkpt>
      <trkpt lat="4.63717" lon="-74.06463">
        <ele>2585.2</ele>
        <time>2020-08-30T12:27:07Z</time>
      </trkpt>
      <trkpt lat="4.6372" lon="-74.06463">
        <ele>2585.2</ele>
        <time>2020-08-30T12:27:08Z</time>
      </trkpt>
      <trkpt lat="4.63723" lon="-74.06464">
        <ele>2585.2</ele>
        <time>2020-08-30T12:27:10Z</time>
      </trkpt>
      <trkpt lat="4.63728" lon="-74.06465">
        <ele>2585.1</ele>
        <time>2020-08-30T12:27:12Z</time>
      </trkpt>
      <trkpt lat="4.63733" lon="-74.06464">
        <ele>2585.1</ele>
        <time>2020-08-30T12:27:14Z</time>
      </trkpt>
      <trkpt lat="4.63741" lon="-74.0646">
        <ele>2585</ele>
        <time>2020-08-30T12:27:16Z</time>
      </trkpt>
      <trkpt lat="4.63746" lon="-74.06456">
        <ele>2585</ele>
        <time>2020-08-30T12:27:18Z</time>
      </trkpt>
      <trkpt lat="4.63751" lon="-74.06451">
        <ele>2585</ele>
        <time>2020-08-30T12:27:20Z</time>
      </trkpt>
      <trkpt lat="4.63755" lon="-74.06447">
        <ele>2585</ele>
        <time>2020-08-30T12:27:22Z</time>
      </trkpt>
      <trkpt lat="4.63758" lon="-74.06444">
        <ele>2585</ele>
        <time>2020-08-30T12:27:23Z</time>
      </trkpt>
      <trkpt lat="4.63765" lon="-74.06436">
        <ele>2584.9</ele>
        <time>2020-08-30T12:27:25Z</time>
      </trkpt>
      <trkpt lat="4.6377" lon="-74.06433">
        <ele>2584.9</ele>
        <time>2020-08-30T12:27:27Z</time>
      </trkpt>
      <trkpt lat="4.63772" lon="-74.06431">
        <ele>2584.9</ele>
        <time>2020-08-30T12:27:28Z</time>
      </trkpt>
      <trkpt lat="4.63778" lon="-74.06429">
        <ele>2584.8</ele>
        <time>2020-08-30T12:27:30Z</time>
      </trkpt>
      <trkpt lat="4.63784" lon="-74.06427">
        <ele>2584.8</ele>
        <time>2020-08-30T12:27:32Z</time>
      </trkpt>
      <trkpt lat="4.63789" lon="-74.06423">
        <ele>2584.7</ele>
        <time>2020-08-30T12:27:34Z</time>
      </trkpt>
      <trkpt lat="4.63793" lon="-74.0642">
        <ele>2584.6</ele>
        <time>2020-08-30T12:27:35Z</time>
      </trkpt>
      <trkpt lat="4.63798" lon="-74.06417">
        <ele>2584.5</ele>
        <time>2020-08-30T12:27:37Z</time>
      </trkpt>
      <trkpt lat="4.63801" lon="-74.06417">
        <ele>2584.4</ele>
        <time>2020-08-30T12:27:38Z</time>
      </trkpt>
      <trkpt lat="4.63809" lon="-74.06416">
        <ele>2584.2</ele>
        <time>2020-08-30T12:27:41Z</time>
      </trkpt>
      <trkpt lat="4.63813" lon="-74.06414">
        <ele>2584.1</ele>
        <time>2020-08-30T12:27:43Z</time>
      </trkpt>
      <trkpt lat="4.63818" lon="-74.0641">
        <ele>2583.9</ele>
        <time>2020-08-30T12:27:45Z</time>
      </trkpt>
      <trkpt lat="4.63823" lon="-74.06406">
        <ele>2583.7</ele>
        <time>2020-08-30T12:27:47Z</time>
      </trkpt>
      <trkpt lat="4.63826" lon="-74.06404">
        <ele>2583.6</ele>
        <time>2020-08-30T12:27:48Z</time>
      </trkpt>
      <trkpt lat="4.6383" lon="-74.06404">
        <ele>2583.4</ele>
        <time>2020-08-30T12:27:50Z</time>
      </trkpt>
      <trkpt lat="4.63836" lon="-74.06404">
        <ele>2583.3</ele>
        <time>2020-08-30T12:27:52Z</time>
      </trkpt>
      <trkpt lat="4.63842" lon="-74.06405">
        <ele>2583.1</ele>
        <time>2020-08-30T12:27:54Z</time>
      </trkpt>
      <trkpt lat="4.63851" lon="-74.06409">
        <ele>2582.8</ele>
        <time>2020-08-30T12:27:56Z</time>
      </trkpt>
      <trkpt lat="4.63854" lon="-74.0641">
        <ele>2582.8</ele>
        <time>2020-08-30T12:27:57Z</time>
      </trkpt>
      <trkpt lat="4.63856" lon="-74.0641">
        <ele>2582.7</ele>
        <time>2020-08-30T12:27:58Z</time>
      </trkpt>
      <trkpt lat="4.63862" lon="-74.06409">
        <ele>2582.6</ele>
        <time>2020-08-30T12:28:00Z</time>
      </trkpt>
      <trkpt lat="4.63867" lon="-74.06406">
        <ele>2582.5</ele>
        <time>2020-08-30T12:28:02Z</time>
      </trkpt>
      <trkpt lat="4.63872" lon="-74.06403">
        <ele>2582.4</ele>
        <time>2020-08-30T12:28:04Z</time>
      </trkpt>
      <trkpt lat="4.63876" lon="-74.06401">
        <ele>2582.3</ele>
        <time>2020-08-30T12:28:05Z</time>
      </trkpt>
      <trkpt lat="4.6388" lon="-74.06399">
        <ele>2582.2</ele>
        <time>2020-08-30T12:28:07Z</time>
      </trkpt>
      <trkpt lat="4.63884" lon="-74.06397">
        <ele>2582.1</ele>
        <time>2020-08-30T12:28:08Z</time>
      </trkpt>
      <trkpt lat="4.63888" lon="-74.06395">
        <ele>2582</ele>
        <time>2020-08-30T12:28:10Z</time>
      </trkpt>
      <trkpt lat="4.63894" lon="-74.06393">
        <ele>2581.8</ele>
        <time>2020-08-30T12:28:12Z</time>
      </trkpt>
      <trkpt lat="4.63898" lon="-74.06391">
        <ele>2581.7</ele>
        <time>2020-08-30T12:28:14Z</time>
      </trkpt>
      <trkpt lat="4.63904" lon="-74.06389">
        <ele>2581.5</ele>
        <time>2020-08-30T12:28:16Z</time>
      </trkpt>
      <trkpt lat="4.63909" lon="-74.06386">
        <ele>2581.4</ele>
        <time>2020-08-30T12:28:18Z</time>
      </trkpt>
      <trkpt lat="4.63913" lon="-74.06383">
        <ele>2581.4</ele>
        <time>2020-08-30T12:28:20Z</time>
      </trkpt>
      <trkpt lat="4.63918" lon="-74.06381">
        <ele>2581.5</ele>
        <time>2020-08-30T12:28:22Z</time>
      </trkpt>
      <trkpt lat="4.63921" lon="-74.06379">
        <ele>2581.5</ele>
        <time>2020-08-30T12:28:23Z</time>
      </trkpt>
      <trkpt lat="4.63923" lon="-74.06378">
        <ele>2581.5</ele>
        <time>2020-08-30T12:28:24Z</time>
      </trkpt>
      <trkpt lat="4.63932" lon="-74.06374">
        <ele>2581.5</ele>
        <time>2020-08-30T12:28:26Z</time>
      </trkpt>
      <trkpt lat="4.63937" lon="-74.06372">
        <ele>2581.6</ele>
        <time>2020-08-30T12:28:28Z</time>
      </trkpt>
      <trkpt lat="4.63941" lon="-74.0637">
        <ele>2581.6</ele>
        <time>2020-08-30T12:28:30Z</time>
      </trkpt>
      <trkpt lat="4.63946" lon="-74.0637">
        <ele>2581.7</ele>
        <time>2020-08-30T12:28:32Z</time>
      </trkpt>
      <trkpt lat="4.63951" lon="-74.06369">
        <ele>2581.8</ele>
        <time>2020-08-30T12:28:34Z</time>
      </trkpt>
      <trkpt lat="4.63959" lon="-74.06365">
        <ele>2581.9</ele>
        <time>2020-08-30T12:28:36Z</time>
      </trkpt>
      <trkpt lat="4.63964" lon="-74.06362">
        <ele>2582</ele>
        <time>2020-08-30T12:28:38Z</time>
      </trkpt>
      <trkpt lat="4.63975" lon="-74.06358">
        <ele>2582.5</ele>
        <time>2020-08-30T12:28:45Z</time>
      </trkpt>
      <trkpt lat="4.63984" lon="-74.0634">
        <ele>2583.3</ele>
        <time>2020-08-30T12:28:55Z</time>
      </trkpt>
      <trkpt lat="4.63979" lon="-74.06333">
        <ele>2583.8</ele>
        <time>2020-08-30T12:28:57Z</time>
      </trkpt>
      <trkpt lat="4.63976" lon="-74.06329">
        <ele>2584.1</ele>
        <time>2020-08-30T12:28:59Z</time>
      </trkpt>
      <trkpt lat="4.63974" lon="-74.06325">
        <ele>2584.3</ele>
        <time>2020-08-30T12:29:00Z</time>
      </trkpt>
      <trkpt lat="4.63968" lon="-74.06319">
        <ele>2584.7</ele>
        <time>2020-08-30T12:29:02Z</time>
      </trkpt>
      <trkpt lat="4.63965" lon="-74.06317">
        <ele>2585</ele>
        <time>2020-08-30T12:29:03Z</time>
      </trkpt>
      <trkpt lat="4.6396" lon="-74.06315">
        <ele>2585.2</ele>
        <time>2020-08-30T12:29:04Z</time>
      </trkpt>
      <trkpt lat="4.63959" lon="-74.06314">
        <ele>2585.4</ele>
        <time>2020-08-30T12:29:05Z</time>
      </trkpt>
      <trkpt lat="4.63953" lon="-74.06309">
        <ele>2586.7</ele>
        <time>2020-08-30T12:29:08Z</time>
      </trkpt>
      <trkpt lat="4.63951" lon="-74.06308">
        <ele>2586.7</ele>
        <time>2020-08-30T12:29:09Z</time>
      </trkpt>
      <trkpt lat="4.63947" lon="-74.06306">
        <ele>2586.7</ele>
        <time>2020-08-30T12:29:11Z</time>
      </trkpt>
      <trkpt lat="4.63944" lon="-74.06308">
        <ele>2586.6</ele>
        <time>2020-08-30T12:29:12Z</time>
      </trkpt>
      <trkpt lat="4.63943" lon="-74.06308">
        <ele>2586.6</ele>
        <time>2020-08-30T12:29:13Z</time>
      </trkpt>
      <trkpt lat="4.63941" lon="-74.06308">
        <ele>2586.6</ele>
        <time>2020-08-30T12:29:15Z</time>
      </trkpt>
      <trkpt lat="4.63939" lon="-74.06308">
        <ele>2586.6</ele>
        <time>2020-08-30T12:29:16Z</time>
      </trkpt>
      <trkpt lat="4.63937" lon="-74.0631">
        <ele>2586.6</ele>
        <time>2020-08-30T12:29:17Z</time>
      </trkpt>
      <trkpt lat="4.63933" lon="-74.0631">
        <ele>2586.5</ele>
        <time>2020-08-30T12:29:19Z</time>
      </trkpt>
      <trkpt lat="4.63924" lon="-74.06316">
        <ele>2586.6</ele>
        <time>2020-08-30T12:29:25Z</time>
      </trkpt>
      <trkpt lat="4.63922" lon="-74.06319">
        <ele>2586.6</ele>
        <time>2020-08-30T12:29:26Z</time>
      </trkpt>
      <trkpt lat="4.63918" lon="-74.06323">
        <ele>2586.6</ele>
        <time>2020-08-30T12:29:29Z</time>
      </trkpt>
      <trkpt lat="4.63909" lon="-74.06327">
        <ele>2586.6</ele>
        <time>2020-08-30T12:29:34Z</time>
      </trkpt>
      <trkpt lat="4.63906" lon="-74.06328">
        <ele>2586.6</ele>
        <time>2020-08-30T12:29:35Z</time>
      </trkpt>
      <trkpt lat="4.63897" lon="-74.06329">
        <ele>2586.7</ele>
        <time>2020-08-30T12:29:38Z</time>
      </trkpt>
      <trkpt lat="4.6389" lon="-74.06326">
        <ele>2586.7</ele>
        <time>2020-08-30T12:29:39Z</time>
      </trkpt>
      <trkpt lat="4.6388" lon="-74.06324">
        <ele>2586.7</ele>
        <time>2020-08-30T12:29:41Z</time>
      </trkpt>
      <trkpt lat="4.63874" lon="-74.06322">
        <ele>2586.8</ele>
        <time>2020-08-30T12:29:42Z</time>
      </trkpt>
      <trkpt lat="4.63865" lon="-74.0632">
        <ele>2586.9</ele>
        <time>2020-08-30T12:29:44Z</time>
      </trkpt>
      <trkpt lat="4.63862" lon="-74.0632">
        <ele>2586.9</ele>
        <time>2020-08-30T12:29:45Z</time>
      </trkpt>
      <trkpt lat="4.63853" lon="-74.06321">
        <ele>2587.1</ele>
        <time>2020-08-30T12:29:46Z</time>
      </trkpt>
      <trkpt lat="4.63847" lon="-74.06322">
        <ele>2587.2</ele>
        <time>2020-08-30T12:29:47Z</time>
      </trkpt>
      <trkpt lat="4.63842" lon="-74.06323">
        <ele>2587.3</ele>
        <time>2020-08-30T12:29:48Z</time>
      </trkpt>
      <trkpt lat="4.63837" lon="-74.06324">
        <ele>2587.3</ele>
        <time>2020-08-30T12:29:49Z</time>
      </trkpt>
      <trkpt lat="4.6416" lon="-74.06232">
        <ele>2583.6</ele>
        <time>2020-08-30T12:29:51Z</time>
      </trkpt>
      <trkpt lat="4.64043" lon="-74.06264">
        <ele>2585.3</ele>
        <time>2020-08-30T12:29:53Z</time>
      </trkpt>
      <trkpt lat="4.63926" lon="-74.06296">
        <ele>2586.5</ele>
        <time>2020-08-30T12:29:55Z</time>
      </trkpt>
      <trkpt lat="4.63809" lon="-74.06327">
        <ele>2588.1</ele>
        <time>2020-08-30T12:29:57Z</time>
      </trkpt>
      <trkpt lat="4.63804" lon="-74.06329">
        <ele>2588.2</ele>
        <time>2020-08-30T12:29:59Z</time>
      </trkpt>
      <trkpt lat="4.63801" lon="-74.0633">
        <ele>2588.3</ele>
        <time>2020-08-30T12:30:00Z</time>
      </trkpt>
      <trkpt lat="4.63796" lon="-74.06332">
        <ele>2588.4</ele>
        <time>2020-08-30T12:30:02Z</time>
      </trkpt>
      <trkpt lat="4.63794" lon="-74.06333">
        <ele>2588.5</ele>
        <time>2020-08-30T12:30:03Z</time>
      </trkpt>
      <trkpt lat="4.63789" lon="-74.06337">
        <ele>2588.7</ele>
        <time>2020-08-30T12:30:05Z</time>
      </trkpt>
      <trkpt lat="4.63783" lon="-74.06345">
        <ele>2589</ele>
        <time>2020-08-30T12:30:07Z</time>
      </trkpt>
      <trkpt lat="4.63779" lon="-74.06347">
        <ele>2589.1</ele>
        <time>2020-08-30T12:30:09Z</time>
      </trkpt>
      <trkpt lat="4.63777" lon="-74.06349">
        <ele>2589.2</ele>
        <time>2020-08-30T12:30:10Z</time>
      </trkpt>
      <trkpt lat="4.63773" lon="-74.06352">
        <ele>2589.4</ele>
        <time>2020-08-30T12:30:12Z</time>
      </trkpt>
      <trkpt lat="4.6377" lon="-74.06353">
        <ele>2589.4</ele>
        <time>2020-08-30T12:30:14Z</time>
      </trkpt>
      <trkpt lat="4.63767" lon="-74.06352">
        <ele>2589.5</ele>
        <time>2020-08-30T12:30:16Z</time>
      </trkpt>
      <trkpt lat="4.63763" lon="-74.06352">
        <ele>2589.6</ele>
        <time>2020-08-30T12:30:17Z</time>
      </trkpt>
      <trkpt lat="4.63759" lon="-74.06352">
        <ele>2589.7</ele>
        <time>2020-08-30T12:30:19Z</time>
      </trkpt>
      <trkpt lat="4.63756" lon="-74.06352">
        <ele>2589.8</ele>
        <time>2020-08-30T12:30:20Z</time>
      </trkpt>
      <trkpt lat="4.63752" lon="-74.06352">
        <ele>2589.9</ele>
        <time>2020-08-30T12:30:22Z</time>
      </trkpt>
      <trkpt lat="4.63749" lon="-74.06353">
        <ele>2590</ele>
        <time>2020-08-30T12:30:23Z</time>
      </trkpt>
      <trkpt lat="4.63748" lon="-74.06353">
        <ele>2590</ele>
        <time>2020-08-30T12:30:24Z</time>
      </trkpt>
      <trkpt lat="4.63743" lon="-74.06354">
        <ele>2590.2</ele>
        <time>2020-08-30T12:30:26Z</time>
      </trkpt>
      <trkpt lat="4.63737" lon="-74.06355">
        <ele>2590.4</ele>
        <time>2020-08-30T12:30:28Z</time>
      </trkpt>
      <trkpt lat="4.63734" lon="-74.06356">
        <ele>2590.5</ele>
        <time>2020-08-30T12:30:29Z</time>
      </trkpt>
      <trkpt lat="4.63733" lon="-74.06356">
        <ele>2590.5</ele>
        <time>2020-08-30T12:30:30Z</time>
      </trkpt>
      <trkpt lat="4.63729" lon="-74.06357">
        <ele>2590.7</ele>
        <time>2020-08-30T12:30:32Z</time>
      </trkpt>
      <trkpt lat="4.63726" lon="-74.06358">
        <ele>2590.8</ele>
        <time>2020-08-30T12:30:33Z</time>
      </trkpt>
      <trkpt lat="4.63724" lon="-74.06358">
        <ele>2590.8</ele>
        <time>2020-08-30T12:30:34Z</time>
      </trkpt>
      <trkpt lat="4.6372" lon="-74.06359">
        <ele>2591</ele>
        <time>2020-08-30T12:30:36Z</time>
      </trkpt>
      <trkpt lat="4.63716" lon="-74.06361">
        <ele>2591.1</ele>
        <time>2020-08-30T12:30:37Z</time>
      </trkpt>
      <trkpt lat="4.63713" lon="-74.06363">
        <ele>2591.2</ele>
        <time>2020-08-30T12:30:38Z</time>
      </trkpt>
      <trkpt lat="4.63709" lon="-74.06365">
        <ele>2591.3</ele>
        <time>2020-08-30T12:30:40Z</time>
      </trkpt>
      <trkpt lat="4.63704" lon="-74.06368">
        <ele>2591.5</ele>
        <time>2020-08-30T12:30:43Z</time>
      </trkpt>
      <trkpt lat="4.637" lon="-74.06372">
        <ele>2591.7</ele>
        <time>2020-08-30T12:30:45Z</time>
      </trkpt>
      <trkpt lat="4.63694" lon="-74.06375">
        <ele>2591.9</ele>
        <time>2020-08-30T12:30:47Z</time>
      </trkpt>
      <trkpt lat="4.63691" lon="-74.06377">
        <ele>2592</ele>
        <time>2020-08-30T12:30:48Z</time>
      </trkpt>
      <trkpt lat="4.6369" lon="-74.06377">
        <ele>2592.1</ele>
        <time>2020-08-30T12:30:49Z</time>
      </trkpt>
      <trkpt lat="4.63686" lon="-74.06379">
        <ele>2592.2</ele>
        <time>2020-08-30T12:30:50Z</time>
      </trkpt>
      <trkpt lat="4.63685" lon="-74.0638">
        <ele>2592.2</ele>
        <time>2020-08-30T12:30:51Z</time>
      </trkpt>
      <trkpt lat="4.63681" lon="-74.06382">
        <ele>2592.4</ele>
        <time>2020-08-30T12:30:53Z</time>
      </trkpt>
      <trkpt lat="4.63679" lon="-74.06383">
        <ele>2592.4</ele>
        <time>2020-08-30T12:30:54Z</time>
      </trkpt>
      <trkpt lat="4.63675" lon="-74.06384">
        <ele>2592.5</ele>
        <time>2020-08-30T12:30:56Z</time>
      </trkpt>
      <trkpt lat="4.63667" lon="-74.06381">
        <ele>2592.6</ele>
        <time>2020-08-30T12:30:58Z</time>
      </trkpt>
      <trkpt lat="4.63661" lon="-74.06379">
        <ele>2592.7</ele>
        <time>2020-08-30T12:31:00Z</time>
      </trkpt>
      <trkpt lat="4.63655" lon="-74.06378">
        <ele>2592.8</ele>
        <time>2020-08-30T12:31:02Z</time>
      </trkpt>
      <trkpt lat="4.6365" lon="-74.06377">
        <ele>2592.9</ele>
        <time>2020-08-30T12:31:04Z</time>
      </trkpt>
      <trkpt lat="4.63647" lon="-74.06377">
        <ele>2593</ele>
        <time>2020-08-30T12:31:05Z</time>
      </trkpt>
      <trkpt lat="4.63642" lon="-74.06377">
        <ele>2593</ele>
        <time>2020-08-30T12:31:07Z</time>
      </trkpt>
      <trkpt lat="4.6363" lon="-74.0638">
        <ele>2593.2</ele>
        <time>2020-08-30T12:31:11Z</time>
      </trkpt>
      <trkpt lat="4.63617" lon="-74.0638">
        <ele>2593.4</ele>
        <time>2020-08-30T12:31:16Z</time>
      </trkpt>
      <trkpt lat="4.63606" lon="-74.0638">
        <ele>2593.5</ele>
        <time>2020-08-30T12:31:20Z</time>
      </trkpt>
      <trkpt lat="4.63598" lon="-74.06383">
        <ele>2593.6</ele>
        <time>2020-08-30T12:31:23Z</time>
      </trkpt>
      <trkpt lat="4.63595" lon="-74.06385">
        <ele>2593.6</ele>
        <time>2020-08-30T12:31:24Z</time>
      </trkpt>
      <trkpt lat="4.63594" lon="-74.06385">
        <ele>2593.6</ele>
        <time>2020-08-30T12:31:25Z</time>
      </trkpt>
      <trkpt lat="4.6359" lon="-74.06389">
        <ele>2593.7</ele>
        <time>2020-08-30T12:31:27Z</time>
      </trkpt>
      <trkpt lat="4.63583" lon="-74.06392">
        <ele>2593.8</ele>
        <time>2020-08-30T12:31:29Z</time>
      </trkpt>
      <trkpt lat="4.63579" lon="-74.06393">
        <ele>2593.9</ele>
        <time>2020-08-30T12:31:31Z</time>
      </trkpt>
      <trkpt lat="4.63576" lon="-74.06393">
        <ele>2593.9</ele>
        <time>2020-08-30T12:31:32Z</time>
      </trkpt>
      <trkpt lat="4.63571" lon="-74.06393">
        <ele>2594</ele>
        <time>2020-08-30T12:31:34Z</time>
      </trkpt>
      <trkpt lat="4.63568" lon="-74.06393">
        <ele>2594.1</ele>
        <time>2020-08-30T12:31:35Z</time>
      </trkpt>
      <trkpt lat="4.63562" lon="-74.06391">
        <ele>2594.2</ele>
        <time>2020-08-30T12:31:37Z</time>
      </trkpt>
      <trkpt lat="4.63554" lon="-74.06388">
        <ele>2594.4</ele>
        <time>2020-08-30T12:31:39Z</time>
      </trkpt>
      <trkpt lat="4.63549" lon="-74.06387">
        <ele>2594.5</ele>
        <time>2020-08-30T12:31:41Z</time>
      </trkpt>
      <trkpt lat="4.63541" lon="-74.06387">
        <ele>2594.6</ele>
        <time>2020-08-30T12:31:44Z</time>
      </trkpt>
      <trkpt lat="4.63537" lon="-74.06387">
        <ele>2594.6</ele>
        <time>2020-08-30T12:31:45Z</time>
      </trkpt>
      <trkpt lat="4.63535" lon="-74.06387">
        <ele>2594.7</ele>
        <time>2020-08-30T12:31:46Z</time>
      </trkpt>
      <trkpt lat="4.63527" lon="-74.06387">
        <ele>2594.7</ele>
        <time>2020-08-30T12:31:48Z</time>
      </trkpt>
      <trkpt lat="4.63525" lon="-74.06386">
        <ele>2594.8</ele>
        <time>2020-08-30T12:31:49Z</time>
      </trkpt>
      <trkpt lat="4.6352" lon="-74.06384">
        <ele>2594.8</ele>
        <time>2020-08-30T12:31:51Z</time>
      </trkpt>
      <trkpt lat="4.63518" lon="-74.06382">
        <ele>2594.9</ele>
        <time>2020-08-30T12:31:52Z</time>
      </trkpt>
      <trkpt lat="4.63517" lon="-74.06382">
        <ele>2594.9</ele>
        <time>2020-08-30T12:31:53Z</time>
      </trkpt>
      <trkpt lat="4.63513" lon="-74.06382">
        <ele>2595</ele>
        <time>2020-08-30T12:31:55Z</time>
      </trkpt>
      <trkpt lat="4.63508" lon="-74.06383">
        <ele>2595</ele>
        <time>2020-08-30T12:31:57Z</time>
      </trkpt>
      <trkpt lat="4.63502" lon="-74.06385">
        <ele>2595.1</ele>
        <time>2020-08-30T12:31:59Z</time>
      </trkpt>
      <trkpt lat="4.63497" lon="-74.06386">
        <ele>2595.2</ele>
        <time>2020-08-30T12:32:01Z</time>
      </trkpt>
      <trkpt lat="4.63493" lon="-74.06388">
        <ele>2595.3</ele>
        <time>2020-08-30T12:32:03Z</time>
      </trkpt>
      <trkpt lat="4.6349" lon="-74.06389">
        <ele>2595.4</ele>
        <time>2020-08-30T12:32:04Z</time>
      </trkpt>
      <trkpt lat="4.63489" lon="-74.06389">
        <ele>2595.4</ele>
        <time>2020-08-30T12:32:05Z</time>
      </trkpt>
      <trkpt lat="4.63485" lon="-74.06392">
        <ele>2595.5</ele>
        <time>2020-08-30T12:32:07Z</time>
      </trkpt>
      <trkpt lat="4.63478" lon="-74.06394">
        <ele>2595.5</ele>
        <time>2020-08-30T12:32:10Z</time>
      </trkpt>
      <trkpt lat="4.63476" lon="-74.06394">
        <ele>2595.5</ele>
        <time>2020-08-30T12:32:11Z</time>
      </trkpt>
      <trkpt lat="4.63473" lon="-74.06394">
        <ele>2595.5</ele>
        <time>2020-08-30T12:32:13Z</time>
      </trkpt>
      <trkpt lat="4.63469" lon="-74.06395">
        <ele>2595.6</ele>
        <time>2020-08-30T12:32:14Z</time>
      </trkpt>
      <trkpt lat="4.63468" lon="-74.06395">
        <ele>2595.6</ele>
        <time>2020-08-30T12:32:15Z</time>
      </trkpt>
      <trkpt lat="4.63463" lon="-74.06395">
        <ele>2595.6</ele>
        <time>2020-08-30T12:32:17Z</time>
      </trkpt>
      <trkpt lat="4.63456" lon="-74.06395">
        <ele>2595.7</ele>
        <time>2020-08-30T12:32:19Z</time>
      </trkpt>
      <trkpt lat="4.63451" lon="-74.06395">
        <ele>2595.7</ele>
        <time>2020-08-30T12:32:21Z</time>
      </trkpt>
      <trkpt lat="4.63446" lon="-74.06395">
        <ele>2595.7</ele>
        <time>2020-08-30T12:32:23Z</time>
      </trkpt>
      <trkpt lat="4.63434" lon="-74.06396">
        <ele>2595.8</ele>
        <time>2020-08-30T12:32:28Z</time>
      </trkpt>
      <trkpt lat="4.63431" lon="-74.06396">
        <ele>2595.8</ele>
        <time>2020-08-30T12:32:29Z</time>
      </trkpt>
      <trkpt lat="4.63426" lon="-74.06396">
        <ele>2595.8</ele>
        <time>2020-08-30T12:32:31Z</time>
      </trkpt>
      <trkpt lat="4.63421" lon="-74.06397">
        <ele>2595.8</ele>
        <time>2020-08-30T12:32:33Z</time>
      </trkpt>
      <trkpt lat="4.63418" lon="-74.06397">
        <ele>2595.8</ele>
        <time>2020-08-30T12:32:34Z</time>
      </trkpt>
      <trkpt lat="4.63411" lon="-74.06399">
        <ele>2595.8</ele>
        <time>2020-08-30T12:32:37Z</time>
      </trkpt>
      <trkpt lat="4.63406" lon="-74.06401">
        <ele>2595.8</ele>
        <time>2020-08-30T12:32:39Z</time>
      </trkpt>
      <trkpt lat="4.63404" lon="-74.06403">
        <ele>2595.8</ele>
        <time>2020-08-30T12:32:40Z</time>
      </trkpt>
      <trkpt lat="4.63399" lon="-74.06405">
        <ele>2595.8</ele>
        <time>2020-08-30T12:32:42Z</time>
      </trkpt>
      <trkpt lat="4.63394" lon="-74.06407">
        <ele>2595.8</ele>
        <time>2020-08-30T12:32:44Z</time>
      </trkpt>
      <trkpt lat="4.63392" lon="-74.06409">
        <ele>2595.7</ele>
        <time>2020-08-30T12:32:45Z</time>
      </trkpt>
      <trkpt lat="4.63391" lon="-74.06409">
        <ele>2595.7</ele>
        <time>2020-08-30T12:32:46Z</time>
      </trkpt>
      <trkpt lat="4.63386" lon="-74.06411">
        <ele>2595.7</ele>
        <time>2020-08-30T12:32:48Z</time>
      </trkpt>
      <trkpt lat="4.63384" lon="-74.06411">
        <ele>2595.6</ele>
        <time>2020-08-30T12:32:49Z</time>
      </trkpt>
      <trkpt lat="4.6338" lon="-74.06411">
        <ele>2595.6</ele>
        <time>2020-08-30T12:32:51Z</time>
      </trkpt>
      <trkpt lat="4.63375" lon="-74.06408">
        <ele>2595.5</ele>
        <time>2020-08-30T12:32:53Z</time>
      </trkpt>
      <trkpt lat="4.63372" lon="-74.06406">
        <ele>2595.5</ele>
        <time>2020-08-30T12:32:54Z</time>
      </trkpt>
      <trkpt lat="4.63371" lon="-74.06406">
        <ele>2595.5</ele>
        <time>2020-08-30T12:32:55Z</time>
      </trkpt>
      <trkpt lat="4.63365" lon="-74.06405">
        <ele>2595.4</ele>
        <time>2020-08-30T12:32:57Z</time>
      </trkpt>
      <trkpt lat="4.63362" lon="-74.06405">
        <ele>2595.4</ele>
        <time>2020-08-30T12:32:58Z</time>
      </trkpt>
      <trkpt lat="4.63356" lon="-74.06404">
        <ele>2595.4</ele>
        <time>2020-08-30T12:33:00Z</time>
      </trkpt>
      <trkpt lat="4.63353" lon="-74.06403">
        <ele>2595.4</ele>
        <time>2020-08-30T12:33:01Z</time>
      </trkpt>
      <trkpt lat="4.63348" lon="-74.06402">
        <ele>2595.4</ele>
        <time>2020-08-30T12:33:03Z</time>
      </trkpt>
      <trkpt lat="4.63345" lon="-74.06402">
        <ele>2595.4</ele>
        <time>2020-08-30T12:33:04Z</time>
      </trkpt>
      <trkpt lat="4.6334" lon="-74.06401">
        <ele>2595.3</ele>
        <time>2020-08-30T12:33:06Z</time>
      </trkpt>
      <trkpt lat="4.63336" lon="-74.06401">
        <ele>2595.3</ele>
        <time>2020-08-30T12:33:07Z</time>
      </trkpt>
      <trkpt lat="4.63334" lon="-74.06401">
        <ele>2595.3</ele>
        <time>2020-08-30T12:33:08Z</time>
      </trkpt>
      <trkpt lat="4.63327" lon="-74.06401">
        <ele>2595.2</ele>
        <time>2020-08-30T12:33:10Z</time>
      </trkpt>
      <trkpt lat="4.63323" lon="-74.06401">
        <ele>2595.2</ele>
        <time>2020-08-30T12:33:11Z</time>
      </trkpt>
      <trkpt lat="4.63321" lon="-74.064">
        <ele>2595.2</ele>
        <time>2020-08-30T12:33:12Z</time>
      </trkpt>
      <trkpt lat="4.63317" lon="-74.064">
        <ele>2595.2</ele>
        <time>2020-08-30T12:33:14Z</time>
      </trkpt>
      <trkpt lat="4.63313" lon="-74.06399">
        <ele>2595.2</ele>
        <time>2020-08-30T12:33:15Z</time>
      </trkpt>
      <trkpt lat="4.63311" lon="-74.06399">
        <ele>2595.2</ele>
        <time>2020-08-30T12:33:16Z</time>
      </trkpt>
      <trkpt lat="4.63306" lon="-74.06402">
        <ele>2595.2</ele>
        <time>2020-08-30T12:33:18Z</time>
      </trkpt>
      <trkpt lat="4.63299" lon="-74.06404">
        <ele>2595.2</ele>
        <time>2020-08-30T12:33:20Z</time>
      </trkpt>
      <trkpt lat="4.63294" lon="-74.06404">
        <ele>2595.2</ele>
        <time>2020-08-30T12:33:22Z</time>
      </trkpt>
      <trkpt lat="4.63291" lon="-74.06403">
        <ele>2595.2</ele>
        <time>2020-08-30T12:33:23Z</time>
      </trkpt>
      <trkpt lat="4.6329" lon="-74.06403">
        <ele>2595.2</ele>
        <time>2020-08-30T12:33:24Z</time>
      </trkpt>
      <trkpt lat="4.63286" lon="-74.06403">
        <ele>2595.1</ele>
        <time>2020-08-30T12:33:26Z</time>
      </trkpt>
      <trkpt lat="4.63284" lon="-74.06403">
        <ele>2595.1</ele>
        <time>2020-08-30T12:33:27Z</time>
      </trkpt>
      <trkpt lat="4.63276" lon="-74.06405">
        <ele>2595.1</ele>
        <time>2020-08-30T12:33:29Z</time>
      </trkpt>
      <trkpt lat="4.63271" lon="-74.06405">
        <ele>2595.1</ele>
        <time>2020-08-30T12:33:31Z</time>
      </trkpt>
      <trkpt lat="4.63267" lon="-74.06404">
        <ele>2595</ele>
        <time>2020-08-30T12:33:33Z</time>
      </trkpt>
      <trkpt lat="4.63265" lon="-74.06404">
        <ele>2595</ele>
        <time>2020-08-30T12:33:34Z</time>
      </trkpt>
      <trkpt lat="4.6326" lon="-74.06404">
        <ele>2595.1</ele>
        <time>2020-08-30T12:33:36Z</time>
      </trkpt>
      <trkpt lat="4.63257" lon="-74.06405">
        <ele>2595.1</ele>
        <time>2020-08-30T12:33:37Z</time>
      </trkpt>
      <trkpt lat="4.63252" lon="-74.06405">
        <ele>2595.1</ele>
        <time>2020-08-30T12:33:39Z</time>
      </trkpt>
      <trkpt lat="4.63247" lon="-74.06405">
        <ele>2595.1</ele>
        <time>2020-08-30T12:33:41Z</time>
      </trkpt>
      <trkpt lat="4.63245" lon="-74.06403">
        <ele>2595.1</ele>
        <time>2020-08-30T12:33:42Z</time>
      </trkpt>
      <trkpt lat="4.63239" lon="-74.06404">
        <ele>2595.2</ele>
        <time>2020-08-30T12:33:44Z</time>
      </trkpt>
      <trkpt lat="4.63233" lon="-74.06406">
        <ele>2595.3</ele>
        <time>2020-08-30T12:33:46Z</time>
      </trkpt>
      <trkpt lat="4.63228" lon="-74.06408">
        <ele>2595.3</ele>
        <time>2020-08-30T12:33:48Z</time>
      </trkpt>
      <trkpt lat="4.63224" lon="-74.06409">
        <ele>2595.4</ele>
        <time>2020-08-30T12:33:49Z</time>
      </trkpt>
      <trkpt lat="4.63219" lon="-74.06411">
        <ele>2595.5</ele>
        <time>2020-08-30T12:33:51Z</time>
      </trkpt>
      <trkpt lat="4.63214" lon="-74.06413">
        <ele>2595.5</ele>
        <time>2020-08-30T12:33:53Z</time>
      </trkpt>
      <trkpt lat="4.63212" lon="-74.06414">
        <ele>2595.6</ele>
        <time>2020-08-30T12:33:54Z</time>
      </trkpt>
      <trkpt lat="4.63208" lon="-74.06416">
        <ele>2595.7</ele>
        <time>2020-08-30T12:33:56Z</time>
      </trkpt>
      <trkpt lat="4.63203" lon="-74.06416">
        <ele>2595.8</ele>
        <time>2020-08-30T12:33:58Z</time>
      </trkpt>
      <trkpt lat="4.63198" lon="-74.06417">
        <ele>2595.9</ele>
        <time>2020-08-30T12:33:59Z</time>
      </trkpt>
      <trkpt lat="4.63194" lon="-74.06417">
        <ele>2596</ele>
        <time>2020-08-30T12:34:01Z</time>
      </trkpt>
      <trkpt lat="4.63191" lon="-74.06417">
        <ele>2596.1</ele>
        <time>2020-08-30T12:34:02Z</time>
      </trkpt>
      <trkpt lat="4.63186" lon="-74.06418">
        <ele>2596.2</ele>
        <time>2020-08-30T12:34:04Z</time>
      </trkpt>
      <trkpt lat="4.63182" lon="-74.0642">
        <ele>2596.3</ele>
        <time>2020-08-30T12:34:06Z</time>
      </trkpt>
      <trkpt lat="4.6318" lon="-74.06421">
        <ele>2596.4</ele>
        <time>2020-08-30T12:34:07Z</time>
      </trkpt>
      <trkpt lat="4.63058" lon="-74.06633">
        <ele>2585.3</ele>
        <time>2020-08-30T12:34:08Z</time>
      </trkpt>
      <trkpt lat="4.63057" lon="-74.06628">
        <ele>2585.2</ele>
        <time>2020-08-30T12:34:10Z</time>
      </trkpt>
      <trkpt lat="4.63055" lon="-74.06628">
        <ele>2585.2</ele>
        <time>2020-08-30T12:34:12Z</time>
      </trkpt>
      <trkpt lat="4.63054" lon="-74.06626">
        <ele>2585.2</ele>
        <time>2020-08-30T12:34:14Z</time>
      </trkpt>
      <trkpt lat="4.63051" lon="-74.06626">
        <ele>2585.2</ele>
        <time>2020-08-30T12:34:16Z</time>
      </trkpt>
      <trkpt lat="4.63049" lon="-74.06624">
        <ele>2584.8</ele>
        <time>2020-08-30T12:34:18Z</time>
      </trkpt>
      <trkpt lat="4.63088" lon="-74.0654">
        <ele>2588.1</ele>
        <time>2020-08-30T12:34:20Z</time>
      </trkpt>
      <trkpt lat="4.63101" lon="-74.06509">
        <ele>2591.5</ele>
        <time>2020-08-30T12:34:21Z</time>
      </trkpt>
      <trkpt lat="4.63105" lon="-74.065">
        <ele>2592.1</ele>
        <time>2020-08-30T12:34:22Z</time>
      </trkpt>
      <trkpt lat="4.63115" lon="-74.06472">
        <ele>2594.9</ele>
        <time>2020-08-30T12:34:24Z</time>
      </trkpt>
      <trkpt lat="4.63117" lon="-74.06467">
        <ele>2595.2</ele>
        <time>2020-08-30T12:34:25Z</time>
      </trkpt>
      <trkpt lat="4.63118" lon="-74.06459">
        <ele>2595.1</ele>
        <time>2020-08-30T12:34:27Z</time>
      </trkpt>
      <trkpt lat="4.63118" lon="-74.06456">
        <ele>2594.9</ele>
        <time>2020-08-30T12:34:28Z</time>
      </trkpt>
      <trkpt lat="4.63116" lon="-74.0645">
        <ele>2594.6</ele>
        <time>2020-08-30T12:34:30Z</time>
      </trkpt>
      <trkpt lat="4.63113" lon="-74.06448">
        <ele>2594.8</ele>
        <time>2020-08-30T12:34:32Z</time>
      </trkpt>
      <trkpt lat="4.63111" lon="-74.06446">
        <ele>2594.7</ele>
        <time>2020-08-30T12:34:34Z</time>
      </trkpt>
      <trkpt lat="4.63109" lon="-74.06447">
        <ele>2594.5</ele>
        <time>2020-08-30T12:34:35Z</time>
      </trkpt>
      <trkpt lat="4.63108" lon="-74.06447">
        <ele>2594.7</ele>
        <time>2020-08-30T12:34:36Z</time>
      </trkpt>
      <trkpt lat="4.63106" lon="-74.06448">
        <ele>2594.6</ele>
        <time>2020-08-30T12:34:37Z</time>
      </trkpt>
      <trkpt lat="4.63104" lon="-74.06456">
        <ele>2594.6</ele>
        <time>2020-08-30T12:34:39Z</time>
      </trkpt>
      <trkpt lat="4.63103" lon="-74.06468">
        <ele>2593.6</ele>
        <time>2020-08-30T12:34:40Z</time>
      </trkpt>
      <trkpt lat="4.63102" lon="-74.06473">
        <ele>2593</ele>
        <time>2020-08-30T12:34:41Z</time>
      </trkpt>
      <trkpt lat="4.63101" lon="-74.06484">
        <ele>2591.8</ele>
        <time>2020-08-30T12:34:43Z</time>
      </trkpt>
      <trkpt lat="4.63099" lon="-74.06492">
        <ele>2591</ele>
        <time>2020-08-30T12:34:45Z</time>
      </trkpt>
      <trkpt lat="4.63098" lon="-74.06496">
        <ele>2590.6</ele>
        <time>2020-08-30T12:34:46Z</time>
      </trkpt>
      <trkpt lat="4.63096" lon="-74.06503">
        <ele>2589.6</ele>
        <time>2020-08-30T12:34:48Z</time>
      </trkpt>
      <trkpt lat="4.63086" lon="-74.0649">
        <ele>2590.8</ele>
        <time>2020-08-30T12:34:50Z</time>
      </trkpt>
      <trkpt lat="4.63079" lon="-74.06484">
        <ele>2591.2</ele>
        <time>2020-08-30T12:34:52Z</time>
      </trkpt>
      <trkpt lat="4.63071" lon="-74.06477">
        <ele>2591.3</ele>
        <time>2020-08-30T12:34:54Z</time>
      </trkpt>
      <trkpt lat="4.6306" lon="-74.06478">
        <ele>2591.1</ele>
        <time>2020-08-30T12:34:59Z</time>
      </trkpt>
      <trkpt lat="4.63037" lon="-74.06482">
        <ele>2591.8</ele>
        <time>2020-08-30T12:35:09Z</time>
      </trkpt>
      <trkpt lat="4.63007" lon="-74.0648">
        <ele>2597.5</ele>
        <time>2020-08-30T12:35:19Z</time>
      </trkpt>
      <trkpt lat="4.63" lon="-74.06479">
        <ele>2597.4</ele>
        <time>2020-08-30T12:35:23Z</time>
      </trkpt>
      <trkpt lat="4.62981" lon="-74.06483">
        <ele>2597</ele>
        <time>2020-08-30T12:35:29Z</time>
      </trkpt>
      <trkpt lat="4.62978" lon="-74.06483">
        <ele>2596.9</ele>
        <time>2020-08-30T12:35:32Z</time>
      </trkpt>
      <trkpt lat="4.62977" lon="-74.06483">
        <ele>2596.9</ele>
        <time>2020-08-30T12:35:33Z</time>
      </trkpt>
      <trkpt lat="4.62973" lon="-74.06484">
        <ele>2596.9</ele>
        <time>2020-08-30T12:35:36Z</time>
      </trkpt>
      <trkpt lat="4.62973" lon="-74.06484">
        <ele>2596.9</ele>
        <time>2020-08-30T12:35:37Z</time>
      </trkpt>
      <trkpt lat="4.62972" lon="-74.06485">
        <ele>2596.8</ele>
        <time>2020-08-30T12:35:39Z</time>
      </trkpt>
      <trkpt lat="4.62963" lon="-74.06489">
        <ele>2596.6</ele>
        <time>2020-08-30T12:35:41Z</time>
      </trkpt>
      <trkpt lat="4.62956" lon="-74.06492">
        <ele>2596.5</ele>
        <time>2020-08-30T12:35:43Z</time>
      </trkpt>
      <trkpt lat="4.62951" lon="-74.06495">
        <ele>2596.4</ele>
        <time>2020-08-30T12:35:44Z</time>
      </trkpt>
      <trkpt lat="4.62945" lon="-74.06496">
        <ele>2596.2</ele>
        <time>2020-08-30T12:35:48Z</time>
      </trkpt>
      <trkpt lat="4.62944" lon="-74.06496">
        <ele>2596.2</ele>
        <time>2020-08-30T12:35:49Z</time>
      </trkpt>
      <trkpt lat="4.62933" lon="-74.06498">
        <ele>2595.9</ele>
        <time>2020-08-30T12:35:51Z</time>
      </trkpt>
      <trkpt lat="4.62929" lon="-74.06498">
        <ele>2595.7</ele>
        <time>2020-08-30T12:35:52Z</time>
      </trkpt>
      <trkpt lat="4.62926" lon="-74.06499">
        <ele>2595.6</ele>
        <time>2020-08-30T12:35:53Z</time>
      </trkpt>
      <trkpt lat="4.62921" lon="-74.065">
        <ele>2595.5</ele>
        <time>2020-08-30T12:35:55Z</time>
      </trkpt>
      <trkpt lat="4.62919" lon="-74.06501">
        <ele>2595.4</ele>
        <time>2020-08-30T12:35:56Z</time>
      </trkpt>
      <trkpt lat="4.62916" lon="-74.06501">
        <ele>2595.3</ele>
        <time>2020-08-30T12:35:58Z</time>
      </trkpt>
      <trkpt lat="4.62909" lon="-74.06504">
        <ele>2595.2</ele>
        <time>2020-08-30T12:35:59Z</time>
      </trkpt>
      <trkpt lat="4.62901" lon="-74.06509">
        <ele>2595</ele>
        <time>2020-08-30T12:36:03Z</time>
      </trkpt>
      <trkpt lat="4.62896" lon="-74.06509">
        <ele>2594.9</ele>
        <time>2020-08-30T12:36:04Z</time>
      </trkpt>
      <trkpt lat="4.62891" lon="-74.0651">
        <ele>2594.8</ele>
        <time>2020-08-30T12:36:05Z</time>
      </trkpt>
      <trkpt lat="4.62886" lon="-74.0651">
        <ele>2594.7</ele>
        <time>2020-08-30T12:36:07Z</time>
      </trkpt>
      <trkpt lat="4.62883" lon="-74.06505">
        <ele>2594.6</ele>
        <time>2020-08-30T12:36:09Z</time>
      </trkpt>
      <trkpt lat="4.62881" lon="-74.06506">
        <ele>2594.5</ele>
        <time>2020-08-30T12:36:11Z</time>
      </trkpt>
      <trkpt lat="4.6288" lon="-74.06506">
        <ele>2594.5</ele>
        <time>2020-08-30T12:36:12Z</time>
      </trkpt>
      <trkpt lat="4.62876" lon="-74.06508">
        <ele>2594.4</ele>
        <time>2020-08-30T12:36:14Z</time>
      </trkpt>
      <trkpt lat="4.62874" lon="-74.06508">
        <ele>2594.4</ele>
        <time>2020-08-30T12:36:15Z</time>
      </trkpt>
      <trkpt lat="4.62862" lon="-74.06513">
        <ele>2594.2</ele>
        <time>2020-08-30T12:36:17Z</time>
      </trkpt>
      <trkpt lat="4.6286" lon="-74.06514">
        <ele>2594.1</ele>
        <time>2020-08-30T12:36:18Z</time>
      </trkpt>
      <trkpt lat="4.6286" lon="-74.06515">
        <ele>2594.1</ele>
        <time>2020-08-30T12:36:19Z</time>
      </trkpt>
      <trkpt lat="4.62857" lon="-74.06515">
        <ele>2594.1</ele>
        <time>2020-08-30T12:36:21Z</time>
      </trkpt>
      <trkpt lat="4.62855" lon="-74.06514">
        <ele>2594</ele>
        <time>2020-08-30T12:36:23Z</time>
      </trkpt>
      <trkpt lat="4.62848" lon="-74.06514">
        <ele>2593.9</ele>
        <time>2020-08-30T12:36:25Z</time>
      </trkpt>
      <trkpt lat="4.62842" lon="-74.06515">
        <ele>2593.8</ele>
        <time>2020-08-30T12:36:27Z</time>
      </trkpt>
      <trkpt lat="4.62837" lon="-74.06517">
        <ele>2593.7</ele>
        <time>2020-08-30T12:36:29Z</time>
      </trkpt>
      <trkpt lat="4.62835" lon="-74.06518">
        <ele>2593.6</ele>
        <time>2020-08-30T12:36:30Z</time>
      </trkpt>
      <trkpt lat="4.62832" lon="-74.06519">
        <ele>2593.6</ele>
        <time>2020-08-30T12:36:32Z</time>
      </trkpt>
      <trkpt lat="4.62828" lon="-74.0652">
        <ele>2593.5</ele>
        <time>2020-08-30T12:36:34Z</time>
      </trkpt>
      <trkpt lat="4.62825" lon="-74.0652">
        <ele>2593.4</ele>
        <time>2020-08-30T12:36:35Z</time>
      </trkpt>
      <trkpt lat="4.62821" lon="-74.06521">
        <ele>2593.4</ele>
        <time>2020-08-30T12:36:36Z</time>
      </trkpt>
      <trkpt lat="4.62805" lon="-74.06525">
        <ele>2593.2</ele>
        <time>2020-08-30T12:36:39Z</time>
      </trkpt>
      <trkpt lat="4.62801" lon="-74.06526">
        <ele>2593.1</ele>
        <time>2020-08-30T12:36:41Z</time>
      </trkpt>
      <trkpt lat="4.62797" lon="-74.06528">
        <ele>2593</ele>
        <time>2020-08-30T12:36:43Z</time>
      </trkpt>
      <trkpt lat="4.62789" lon="-74.06528">
        <ele>2592.9</ele>
        <time>2020-08-30T12:36:45Z</time>
      </trkpt>
      <trkpt lat="4.62783" lon="-74.06527">
        <ele>2592.8</ele>
        <time>2020-08-30T12:36:46Z</time>
      </trkpt>
      <trkpt lat="4.62779" lon="-74.06527">
        <ele>2592.8</ele>
        <time>2020-08-30T12:36:47Z</time>
      </trkpt>
      <trkpt lat="4.62774" lon="-74.06527">
        <ele>2592.7</ele>
        <time>2020-08-30T12:36:49Z</time>
      </trkpt>
      <trkpt lat="4.62772" lon="-74.06527">
        <ele>2592.6</ele>
        <time>2020-08-30T12:36:50Z</time>
      </trkpt>
      <trkpt lat="4.62769" lon="-74.06527">
        <ele>2592.6</ele>
        <time>2020-08-30T12:36:52Z</time>
      </trkpt>
      <trkpt lat="4.62767" lon="-74.06528">
        <ele>2592.6</ele>
        <time>2020-08-30T12:36:54Z</time>
      </trkpt>
      <trkpt lat="4.62767" lon="-74.06529">
        <ele>2592.6</ele>
        <time>2020-08-30T12:36:55Z</time>
      </trkpt>
      <trkpt lat="4.62766" lon="-74.06529">
        <ele>2592.6</ele>
        <time>2020-08-30T12:36:57Z</time>
      </trkpt>
      <trkpt lat="4.62766" lon="-74.0653">
        <ele>2592.5</ele>
        <time>2020-08-30T12:36:59Z</time>
      </trkpt>
      <trkpt lat="4.62766" lon="-74.0653">
        <ele>2592.5</ele>
        <time>2020-08-30T12:37:00Z</time>
      </trkpt>
      <trkpt lat="4.62765" lon="-74.06531">
        <ele>2592.5</ele>
        <time>2020-08-30T12:37:02Z</time>
      </trkpt>
      <trkpt lat="4.62765" lon="-74.06531">
        <ele>2592.5</ele>
        <time>2020-08-30T12:37:04Z</time>
      </trkpt>
      <trkpt lat="4.62765" lon="-74.06532">
        <ele>2592.5</ele>
        <time>2020-08-30T12:37:05Z</time>
      </trkpt>
      <trkpt lat="4.62755" lon="-74.06538">
        <ele>2592.3</ele>
        <time>2020-08-30T12:37:07Z</time>
      </trkpt>
      <trkpt lat="4.6275" lon="-74.06541">
        <ele>2592.3</ele>
        <time>2020-08-30T12:37:08Z</time>
      </trkpt>
      <trkpt lat="4.62743" lon="-74.06545">
        <ele>2592.2</ele>
        <time>2020-08-30T12:37:10Z</time>
      </trkpt>
      <trkpt lat="4.62738" lon="-74.06548">
        <ele>2592.2</ele>
        <time>2020-08-30T12:37:12Z</time>
      </trkpt>
      <trkpt lat="4.62735" lon="-74.0655">
        <ele>2592.2</ele>
        <time>2020-08-30T12:37:14Z</time>
      </trkpt>
      <trkpt lat="4.62729" lon="-74.06557">
        <ele>2592.2</ele>
        <time>2020-08-30T12:37:15Z</time>
      </trkpt>
      <trkpt lat="4.62723" lon="-74.06562">
        <ele>2592.1</ele>
        <time>2020-08-30T12:37:17Z</time>
      </trkpt>
      <trkpt lat="4.6272" lon="-74.06566">
        <ele>2592.1</ele>
        <time>2020-08-30T12:37:18Z</time>
      </trkpt>
      <trkpt lat="4.62713" lon="-74.06572">
        <ele>2592</ele>
        <time>2020-08-30T12:37:20Z</time>
      </trkpt>
      <trkpt lat="4.6271" lon="-74.06575">
        <ele>2592</ele>
        <time>2020-08-30T12:37:22Z</time>
      </trkpt>
      <trkpt lat="4.62706" lon="-74.06579">
        <ele>2591.9</ele>
        <time>2020-08-30T12:37:24Z</time>
      </trkpt>
      <trkpt lat="4.62701" lon="-74.06581">
        <ele>2591.9</ele>
        <time>2020-08-30T12:37:25Z</time>
      </trkpt>
      <trkpt lat="4.62699" lon="-74.06581">
        <ele>2591.8</ele>
        <time>2020-08-30T12:37:26Z</time>
      </trkpt>
      <trkpt lat="4.62689" lon="-74.06579">
        <ele>2591.8</ele>
        <time>2020-08-30T12:37:28Z</time>
      </trkpt>
      <trkpt lat="4.62683" lon="-74.06578">
        <ele>2591.7</ele>
        <time>2020-08-30T12:37:30Z</time>
      </trkpt>
      <trkpt lat="4.62681" lon="-74.06578">
        <ele>2591.7</ele>
        <time>2020-08-30T12:37:32Z</time>
      </trkpt>
      <trkpt lat="4.62676" lon="-74.06577">
        <ele>2591.7</ele>
        <time>2020-08-30T12:37:34Z</time>
      </trkpt>
      <trkpt lat="4.62675" lon="-74.06576">
        <ele>2591.7</ele>
        <time>2020-08-30T12:37:35Z</time>
      </trkpt>
      <trkpt lat="4.62665" lon="-74.06576">
        <ele>2591.6</ele>
        <time>2020-08-30T12:37:36Z</time>
      </trkpt>
      <trkpt lat="4.62657" lon="-74.06576">
        <ele>2591.6</ele>
        <time>2020-08-30T12:37:38Z</time>
      </trkpt>
      <trkpt lat="4.62652" lon="-74.06577">
        <ele>2591.6</ele>
        <time>2020-08-30T12:37:40Z</time>
      </trkpt>
      <trkpt lat="4.62648" lon="-74.06577">
        <ele>2591.6</ele>
        <time>2020-08-30T12:37:42Z</time>
      </trkpt>
      <trkpt lat="4.62647" lon="-74.06577">
        <ele>2591.6</ele>
        <time>2020-08-30T12:37:43Z</time>
      </trkpt>
      <trkpt lat="4.62646" lon="-74.06577">
        <ele>2591.6</ele>
        <time>2020-08-30T12:37:44Z</time>
      </trkpt>
      <trkpt lat="4.62645" lon="-74.06577">
        <ele>2591.6</ele>
        <time>2020-08-30T12:37:45Z</time>
      </trkpt>
      <trkpt lat="4.62636" lon="-74.06575">
        <ele>2591.5</ele>
        <time>2020-08-30T12:37:47Z</time>
      </trkpt>
      <trkpt lat="4.62629" lon="-74.06575">
        <ele>2591.5</ele>
        <time>2020-08-30T12:37:49Z</time>
      </trkpt>
      <trkpt lat="4.62625" lon="-74.06574">
        <ele>2591.5</ele>
        <time>2020-08-30T12:37:51Z</time>
      </trkpt>
      <trkpt lat="4.62621" lon="-74.06573">
        <ele>2591.5</ele>
        <time>2020-08-30T12:37:53Z</time>
      </trkpt>
      <trkpt lat="4.6262" lon="-74.06573">
        <ele>2591.5</ele>
        <time>2020-08-30T12:37:54Z</time>
      </trkpt>
      <trkpt lat="4.62615" lon="-74.06574">
        <ele>2591.5</ele>
        <time>2020-08-30T12:37:56Z</time>
      </trkpt>
      <trkpt lat="4.6261" lon="-74.06575">
        <ele>2591.6</ele>
        <time>2020-08-30T12:37:57Z</time>
      </trkpt>
      <trkpt lat="4.62604" lon="-74.06576">
        <ele>2591.6</ele>
        <time>2020-08-30T12:37:59Z</time>
      </trkpt>
      <trkpt lat="4.62601" lon="-74.06575">
        <ele>2591.6</ele>
        <time>2020-08-30T12:38:00Z</time>
      </trkpt>
      <trkpt lat="4.62597" lon="-74.06575">
        <ele>2591.6</ele>
        <time>2020-08-30T12:38:02Z</time>
      </trkpt>
      <trkpt lat="4.62596" lon="-74.06574">
        <ele>2591.7</ele>
        <time>2020-08-30T12:38:03Z</time>
      </trkpt>
      <trkpt lat="4.62594" lon="-74.06574">
        <ele>2591.7</ele>
        <time>2020-08-30T12:38:04Z</time>
      </trkpt>
      <trkpt lat="4.62591" lon="-74.06573">
        <ele>2591.8</ele>
        <time>2020-08-30T12:38:06Z</time>
      </trkpt>
      <trkpt lat="4.62589" lon="-74.06572">
        <ele>2591.8</ele>
        <time>2020-08-30T12:38:07Z</time>
      </trkpt>
      <trkpt lat="4.62586" lon="-74.06571">
        <ele>2591.9</ele>
        <time>2020-08-30T12:38:09Z</time>
      </trkpt>
      <trkpt lat="4.62585" lon="-74.06571">
        <ele>2591.9</ele>
        <time>2020-08-30T12:38:10Z</time>
      </trkpt>
      <trkpt lat="4.62583" lon="-74.06571">
        <ele>2592.1</ele>
        <time>2020-08-30T12:38:12Z</time>
      </trkpt>
      <trkpt lat="4.62583" lon="-74.0657">
        <ele>2592.1</ele>
        <time>2020-08-30T12:38:13Z</time>
      </trkpt>
      <trkpt lat="4.62582" lon="-74.0657">
        <ele>2592.1</ele>
        <time>2020-08-30T12:38:14Z</time>
      </trkpt>
      <trkpt lat="4.62578" lon="-74.06566">
        <ele>2592.1</ele>
        <time>2020-08-30T12:38:16Z</time>
      </trkpt>
      <trkpt lat="4.6258" lon="-74.06566">
        <ele>2592.1</ele>
        <time>2020-08-30T12:38:17Z</time>
      </trkpt>
      <trkpt lat="4.62581" lon="-74.06565">
        <ele>2592.1</ele>
        <time>2020-08-30T12:38:19Z</time>
      </trkpt>
      <trkpt lat="4.62599" lon="-74.06566">
        <ele>2592.1</ele>
        <time>2020-08-30T12:38:21Z</time>
      </trkpt>
      <trkpt lat="4.62596" lon="-74.06565">
        <ele>2592.1</ele>
        <time>2020-08-30T12:38:23Z</time>
      </trkpt>
      <trkpt lat="4.62594" lon="-74.06565">
        <ele>2592.1</ele>
        <time>2020-08-30T12:38:25Z</time>
      </trkpt>
      <trkpt lat="4.62578" lon="-74.06559">
        <ele>2592.9</ele>
        <time>2020-08-30T12:38:27Z</time>
      </trkpt>
      <trkpt lat="4.62574" lon="-74.06558">
        <ele>2593</ele>
        <time>2020-08-30T12:38:29Z</time>
      </trkpt>
      <trkpt lat="4.62572" lon="-74.06558">
        <ele>2593.1</ele>
        <time>2020-08-30T12:38:30Z</time>
      </trkpt>
      <trkpt lat="4.62569" lon="-74.06557">
        <ele>2593.1</ele>
        <time>2020-08-30T12:38:32Z</time>
      </trkpt>
      <trkpt lat="4.62568" lon="-74.06556">
        <ele>2593.2</ele>
        <time>2020-08-30T12:38:33Z</time>
      </trkpt>
      <trkpt lat="4.62565" lon="-74.06555">
        <ele>2593.2</ele>
        <time>2020-08-30T12:38:35Z</time>
      </trkpt>
      <trkpt lat="4.62561" lon="-74.0655">
        <ele>2593.3</ele>
        <time>2020-08-30T12:38:36Z</time>
      </trkpt>
      <trkpt lat="4.62565" lon="-74.06552">
        <ele>2593.2</ele>
        <time>2020-08-30T12:38:38Z</time>
      </trkpt>
      <trkpt lat="4.62569" lon="-74.06554">
        <ele>2593.1</ele>
        <time>2020-08-30T12:38:39Z</time>
      </trkpt>
      <trkpt lat="4.62589" lon="-74.06564">
        <ele>2592.6</ele>
        <time>2020-08-30T12:38:41Z</time>
      </trkpt>
      <trkpt lat="4.6258" lon="-74.06559">
        <ele>2592.6</ele>
        <time>2020-08-30T12:38:42Z</time>
      </trkpt>
      <trkpt lat="4.62572" lon="-74.06554">
        <ele>2593.2</ele>
        <time>2020-08-30T12:38:44Z</time>
      </trkpt>
      <trkpt lat="4.62564" lon="-74.0655">
        <ele>2593.5</ele>
        <time>2020-08-30T12:38:45Z</time>
      </trkpt>
      <trkpt lat="4.62556" lon="-74.06545">
        <ele>2594</ele>
        <time>2020-08-30T12:38:46Z</time>
      </trkpt>
      <trkpt lat="4.62548" lon="-74.0654">
        <ele>2594.6</ele>
        <time>2020-08-30T12:38:48Z</time>
      </trkpt>
      <trkpt lat="4.6254" lon="-74.06536">
        <ele>2595.1</ele>
        <time>2020-08-30T12:38:49Z</time>
      </trkpt>
      <trkpt lat="4.62526" lon="-74.06527">
        <ele>2596</ele>
        <time>2020-08-30T12:38:51Z</time>
      </trkpt>
      <trkpt lat="4.6252" lon="-74.06523">
        <ele>2596.3</ele>
        <time>2020-08-30T12:38:52Z</time>
      </trkpt>
      <trkpt lat="4.62515" lon="-74.0652">
        <ele>2596.6</ele>
        <time>2020-08-30T12:38:53Z</time>
      </trkpt>
      <trkpt lat="4.62506" lon="-74.06514">
        <ele>2597.2</ele>
        <time>2020-08-30T12:38:55Z</time>
      </trkpt>
      <trkpt lat="4.62502" lon="-74.0651">
        <ele>2597.4</ele>
        <time>2020-08-30T12:38:56Z</time>
      </trkpt>
      <trkpt lat="4.62496" lon="-74.06503">
        <ele>2597.9</ele>
        <time>2020-08-30T12:38:58Z</time>
      </trkpt>
      <trkpt lat="4.62495" lon="-74.06503">
        <ele>2597.9</ele>
        <time>2020-08-30T12:39:00Z</time>
      </trkpt>
      <trkpt lat="4.62489" lon="-74.06498">
        <ele>2598.2</ele>
        <time>2020-08-30T12:39:02Z</time>
      </trkpt>
      <trkpt lat="4.62491" lon="-74.06499">
        <ele>2598.3</ele>
        <time>2020-08-30T12:39:04Z</time>
      </trkpt>
      <trkpt lat="4.62492" lon="-74.06501">
        <ele>2598.4</ele>
        <time>2020-08-30T12:39:05Z</time>
      </trkpt>
      <trkpt lat="4.62496" lon="-74.06503">
        <ele>2598.6</ele>
        <time>2020-08-30T12:39:06Z</time>
      </trkpt>
      <trkpt lat="4.62486" lon="-74.06492">
        <ele>2599.1</ele>
        <time>2020-08-30T12:39:08Z</time>
      </trkpt>
      <trkpt lat="4.62483" lon="-74.06488">
        <ele>2599.2</ele>
        <time>2020-08-30T12:39:09Z</time>
      </trkpt>
      <trkpt lat="4.62471" lon="-74.06472">
        <ele>2599.5</ele>
        <time>2020-08-30T12:39:11Z</time>
      </trkpt>
      <trkpt lat="4.62468" lon="-74.06466">
        <ele>2599.6</ele>
        <time>2020-08-30T12:39:13Z</time>
      </trkpt>
      <trkpt lat="4.62465" lon="-74.06463">
        <ele>2599.7</ele>
        <time>2020-08-30T12:39:15Z</time>
      </trkpt>
      <trkpt lat="4.62461" lon="-74.0646">
        <ele>2599.8</ele>
        <time>2020-08-30T12:39:17Z</time>
      </trkpt>
      <trkpt lat="4.62458" lon="-74.06457">
        <ele>2599.9</ele>
        <time>2020-08-30T12:39:19Z</time>
      </trkpt>
      <trkpt lat="4.62456" lon="-74.06455">
        <ele>2600.1</ele>
        <time>2020-08-30T12:39:20Z</time>
      </trkpt>
      <trkpt lat="4.62455" lon="-74.0645">
        <ele>2600.3</ele>
        <time>2020-08-30T12:39:22Z</time>
      </trkpt>
      <trkpt lat="4.62454" lon="-74.06448">
        <ele>2600.4</ele>
        <time>2020-08-30T12:39:23Z</time>
      </trkpt>
      <trkpt lat="4.62452" lon="-74.06445">
        <ele>2600.6</ele>
        <time>2020-08-30T12:39:25Z</time>
      </trkpt>
      <trkpt lat="4.62473" lon="-74.06456">
        <ele>2599.6</ele>
        <time>2020-08-30T12:39:26Z</time>
      </trkpt>
      <trkpt lat="4.62495" lon="-74.06469">
        <ele>2599.2</ele>
        <time>2020-08-30T12:39:28Z</time>
      </trkpt>
      <trkpt lat="4.62518" lon="-74.06482">
        <ele>2598.2</ele>
        <time>2020-08-30T12:39:30Z</time>
      </trkpt>
      <trkpt lat="4.62526" lon="-74.06486">
        <ele>2597.7</ele>
        <time>2020-08-30T12:39:31Z</time>
      </trkpt>
      <trkpt lat="4.62538" lon="-74.06494">
        <ele>2596.9</ele>
        <time>2020-08-30T12:39:33Z</time>
      </trkpt>
      <trkpt lat="4.62542" lon="-74.06497">
        <ele>2596.6</ele>
        <time>2020-08-30T12:39:34Z</time>
      </trkpt>
      <trkpt lat="4.62529" lon="-74.0649">
        <ele>2597.4</ele>
        <time>2020-08-30T12:39:36Z</time>
      </trkpt>
      <trkpt lat="4.62494" lon="-74.0647">
        <ele>2599.2</ele>
        <time>2020-08-30T12:39:38Z</time>
      </trkpt>
      <trkpt lat="4.62485" lon="-74.06465">
        <ele>2599.4</ele>
        <time>2020-08-30T12:39:39Z</time>
      </trkpt>
      <trkpt lat="4.62429" lon="-74.06423">
        <ele>2602.6</ele>
        <time>2020-08-30T12:39:41Z</time>
      </trkpt>
      <trkpt lat="4.62428" lon="-74.06421">
        <ele>2602.5</ele>
        <time>2020-08-30T12:39:43Z</time>
      </trkpt>
      <trkpt lat="4.62433" lon="-74.06422">
        <ele>2602.3</ele>
        <time>2020-08-30T12:39:44Z</time>
      </trkpt>
      <trkpt lat="4.62438" lon="-74.06424">
        <ele>2602</ele>
        <time>2020-08-30T12:39:45Z</time>
      </trkpt>
      <trkpt lat="4.62443" lon="-74.06426">
        <ele>2601.7</ele>
        <time>2020-08-30T12:39:47Z</time>
      </trkpt>
      <trkpt lat="4.6244" lon="-74.06424">
        <ele>2602</ele>
        <time>2020-08-30T12:39:48Z</time>
      </trkpt>
      <trkpt lat="4.62434" lon="-74.06421">
        <ele>2602.5</ele>
        <time>2020-08-30T12:39:50Z</time>
      </trkpt>
      <trkpt lat="4.62432" lon="-74.0642">
        <ele>2602.7</ele>
        <time>2020-08-30T12:39:51Z</time>
      </trkpt>
      <trkpt lat="4.6243" lon="-74.06416">
        <ele>2603.1</ele>
        <time>2020-08-30T12:39:53Z</time>
      </trkpt>
      <trkpt lat="4.6243" lon="-74.06413">
        <ele>2603.4</ele>
        <time>2020-08-30T12:39:54Z</time>
      </trkpt>
      <trkpt lat="4.6243" lon="-74.06404">
        <ele>2604.1</ele>
        <time>2020-08-30T12:39:56Z</time>
      </trkpt>
      <trkpt lat="4.6243" lon="-74.064">
        <ele>2604.4</ele>
        <time>2020-08-30T12:39:57Z</time>
      </trkpt>
      <trkpt lat="4.62431" lon="-74.06394">
        <ele>2604.9</ele>
        <time>2020-08-30T12:39:59Z</time>
      </trkpt>
      <trkpt lat="4.62431" lon="-74.06391">
        <ele>2605</ele>
        <time>2020-08-30T12:40:00Z</time>
      </trkpt>
      <trkpt lat="4.62432" lon="-74.06388">
        <ele>2605.9</ele>
        <time>2020-08-30T12:40:01Z</time>
      </trkpt>
      <trkpt lat="4.62432" lon="-74.06385">
        <ele>2606.3</ele>
        <time>2020-08-30T12:40:02Z</time>
      </trkpt>
      <trkpt lat="4.62433" lon="-74.0638">
        <ele>2607.1</ele>
        <time>2020-08-30T12:40:04Z</time>
      </trkpt>
      <trkpt lat="4.62433" lon="-74.06377">
        <ele>2607.4</ele>
        <time>2020-08-30T12:40:05Z</time>
      </trkpt>
      <trkpt lat="4.62434" lon="-74.06372">
        <ele>2608.1</ele>
        <time>2020-08-30T12:40:07Z</time>
      </trkpt>
      <trkpt lat="4.6244" lon="-74.06361">
        <ele>2608.9</ele>
        <time>2020-08-30T12:40:11Z</time>
      </trkpt>
      <trkpt lat="4.62444" lon="-74.06354">
        <ele>2609.5</ele>
        <time>2020-08-30T12:40:13Z</time>
      </trkpt>
      <trkpt lat="4.62446" lon="-74.06326">
        <ele>2611.3</ele>
        <time>2020-08-30T12:40:32Z</time>
      </trkpt>
      <trkpt lat="4.62447" lon="-74.06323">
        <ele>2611.5</ele>
        <time>2020-08-30T12:40:33Z</time>
      </trkpt>
      <trkpt lat="4.62447" lon="-74.06321">
        <ele>2611.7</ele>
        <time>2020-08-30T12:40:34Z</time>
      </trkpt>
      <trkpt lat="4.62446" lon="-74.06316">
        <ele>2612.1</ele>
        <time>2020-08-30T12:40:36Z</time>
      </trkpt>
      <trkpt lat="4.62444" lon="-74.06312">
        <ele>2612.4</ele>
        <time>2020-08-30T12:40:38Z</time>
      </trkpt>
      <trkpt lat="4.62443" lon="-74.0631">
        <ele>2612.5</ele>
        <time>2020-08-30T12:40:39Z</time>
      </trkpt>
      <trkpt lat="4.6244" lon="-74.06306">
        <ele>2612.9</ele>
        <time>2020-08-30T12:40:41Z</time>
      </trkpt>
      <trkpt lat="4.62436" lon="-74.06302">
        <ele>2613.2</ele>
        <time>2020-08-30T12:40:43Z</time>
      </trkpt>
      <trkpt lat="4.62433" lon="-74.06301">
        <ele>2613.5</ele>
        <time>2020-08-30T12:40:45Z</time>
      </trkpt>
      <trkpt lat="4.62431" lon="-74.06304">
        <ele>2613.8</ele>
        <time>2020-08-30T12:40:46Z</time>
      </trkpt>
      <trkpt lat="4.62427" lon="-74.06306">
        <ele>2614.1</ele>
        <time>2020-08-30T12:40:48Z</time>
      </trkpt>
      <trkpt lat="4.62423" lon="-74.06309">
        <ele>2614.5</ele>
        <time>2020-08-30T12:40:50Z</time>
      </trkpt>
      <trkpt lat="4.62422" lon="-74.0631">
        <ele>2614.7</ele>
        <time>2020-08-30T12:40:51Z</time>
      </trkpt>
      <trkpt lat="4.62418" lon="-74.06313">
        <ele>2615</ele>
        <time>2020-08-30T12:40:53Z</time>
      </trkpt>
      <trkpt lat="4.62415" lon="-74.06315">
        <ele>2615.3</ele>
        <time>2020-08-30T12:40:55Z</time>
      </trkpt>
      <trkpt lat="4.62411" lon="-74.06316">
        <ele>2615.6</ele>
        <time>2020-08-30T12:40:57Z</time>
      </trkpt>
      <trkpt lat="4.62409" lon="-74.06317">
        <ele>2615.8</ele>
        <time>2020-08-30T12:40:58Z</time>
      </trkpt>
      <trkpt lat="4.62406" lon="-74.06318">
        <ele>2616</ele>
        <time>2020-08-30T12:41:00Z</time>
      </trkpt>
      <trkpt lat="4.62404" lon="-74.06319">
        <ele>2616.2</ele>
        <time>2020-08-30T12:41:01Z</time>
      </trkpt>
      <trkpt lat="4.62401" lon="-74.0632">
        <ele>2616.4</ele>
        <time>2020-08-30T12:41:03Z</time>
      </trkpt>
      <trkpt lat="4.62398" lon="-74.06322">
        <ele>2616.7</ele>
        <time>2020-08-30T12:41:05Z</time>
      </trkpt>
      <trkpt lat="4.62395" lon="-74.06323">
        <ele>2617</ele>
        <time>2020-08-30T12:41:07Z</time>
      </trkpt>
      <trkpt lat="4.6239" lon="-74.06323">
        <ele>2617.3</ele>
        <time>2020-08-30T12:41:09Z</time>
      </trkpt>
      <trkpt lat="4.62389" lon="-74.06323">
        <ele>2617.4</ele>
        <time>2020-08-30T12:41:10Z</time>
      </trkpt>
      <trkpt lat="4.62385" lon="-74.06324">
        <ele>2617.7</ele>
        <time>2020-08-30T12:41:12Z</time>
      </trkpt>
      <trkpt lat="4.62382" lon="-74.06325">
        <ele>2617.9</ele>
        <time>2020-08-30T12:41:13Z</time>
      </trkpt>
      <trkpt lat="4.62377" lon="-74.06325">
        <ele>2618.2</ele>
        <time>2020-08-30T12:41:15Z</time>
      </trkpt>
      <trkpt lat="4.62373" lon="-74.06323">
        <ele>2618.5</ele>
        <time>2020-08-30T12:41:17Z</time>
      </trkpt>
      <trkpt lat="4.6237" lon="-74.06322">
        <ele>2618.7</ele>
        <time>2020-08-30T12:41:18Z</time>
      </trkpt>
      <trkpt lat="4.62366" lon="-74.0632">
        <ele>2618.9</ele>
        <time>2020-08-30T12:41:20Z</time>
      </trkpt>
      <trkpt lat="4.62364" lon="-74.06318">
        <ele>2619.4</ele>
        <time>2020-08-30T12:41:22Z</time>
      </trkpt>
      <trkpt lat="4.62363" lon="-74.06316">
        <ele>2619.6</ele>
        <time>2020-08-30T12:41:23Z</time>
      </trkpt>
      <trkpt lat="4.62362" lon="-74.06313">
        <ele>2619.9</ele>
        <time>2020-08-30T12:41:25Z</time>
      </trkpt>
      <trkpt lat="4.62363" lon="-74.0631">
        <ele>2620.2</ele>
        <time>2020-08-30T12:41:27Z</time>
      </trkpt>
      <trkpt lat="4.62363" lon="-74.06307">
        <ele>2620.5</ele>
        <time>2020-08-30T12:41:29Z</time>
      </trkpt>
      <trkpt lat="4.62363" lon="-74.06305">
        <ele>2620.6</ele>
        <time>2020-08-30T12:41:30Z</time>
      </trkpt>
      <trkpt lat="4.62365" lon="-74.06301">
        <ele>2621</ele>
        <time>2020-08-30T12:41:32Z</time>
      </trkpt>
      <trkpt lat="4.62366" lon="-74.06296">
        <ele>2621.4</ele>
        <time>2020-08-30T12:41:34Z</time>
      </trkpt>
      <trkpt lat="4.6237" lon="-74.06289">
        <ele>2621.9</ele>
        <time>2020-08-30T12:41:36Z</time>
      </trkpt>
      <trkpt lat="4.62374" lon="-74.06287">
        <ele>2622.2</ele>
        <time>2020-08-30T12:41:38Z</time>
      </trkpt>
      <trkpt lat="4.62377" lon="-74.06284">
        <ele>2622.5</ele>
        <time>2020-08-30T12:41:40Z</time>
      </trkpt>
      <trkpt lat="4.62381" lon="-74.06281">
        <ele>2622.8</ele>
        <time>2020-08-30T12:41:42Z</time>
      </trkpt>
      <trkpt lat="4.62386" lon="-74.06278">
        <ele>2623.1</ele>
        <time>2020-08-30T12:41:44Z</time>
      </trkpt>
      <trkpt lat="4.62388" lon="-74.06277">
        <ele>2623.3</ele>
        <time>2020-08-30T12:41:45Z</time>
      </trkpt>
      <trkpt lat="4.62392" lon="-74.06274">
        <ele>2623.5</ele>
        <time>2020-08-30T12:41:47Z</time>
      </trkpt>
      <trkpt lat="4.62396" lon="-74.06273">
        <ele>2623.7</ele>
        <time>2020-08-30T12:41:49Z</time>
      </trkpt>
      <trkpt lat="4.62399" lon="-74.06271">
        <ele>2623.9</ele>
        <time>2020-08-30T12:41:51Z</time>
      </trkpt>
      <trkpt lat="4.62403" lon="-74.0627">
        <ele>2624.1</ele>
        <time>2020-08-30T12:41:53Z</time>
      </trkpt>
      <trkpt lat="4.62405" lon="-74.0627">
        <ele>2624.2</ele>
        <time>2020-08-30T12:41:54Z</time>
      </trkpt>
      <trkpt lat="4.62409" lon="-74.06268">
        <ele>2624.4</ele>
        <time>2020-08-30T12:41:56Z</time>
      </trkpt>
      <trkpt lat="4.62412" lon="-74.06266">
        <ele>2624.6</ele>
        <time>2020-08-30T12:41:58Z</time>
      </trkpt>
      <trkpt lat="4.62414" lon="-74.06265">
        <ele>2624.7</ele>
        <time>2020-08-30T12:41:59Z</time>
      </trkpt>
      <trkpt lat="4.62417" lon="-74.06262">
        <ele>2624.9</ele>
        <time>2020-08-30T12:42:01Z</time>
      </trkpt>
      <trkpt lat="4.62419" lon="-74.06261">
        <ele>2625</ele>
        <time>2020-08-30T12:42:02Z</time>
      </trkpt>
      <trkpt lat="4.62422" lon="-74.06259">
        <ele>2625.2</ele>
        <time>2020-08-30T12:42:04Z</time>
      </trkpt>
      <trkpt lat="4.62424" lon="-74.06256">
        <ele>2625.4</ele>
        <time>2020-08-30T12:42:06Z</time>
      </trkpt>
      <trkpt lat="4.62427" lon="-74.06253">
        <ele>2625.6</ele>
        <time>2020-08-30T12:42:08Z</time>
      </trkpt>
      <trkpt lat="4.62429" lon="-74.0625">
        <ele>2625.8</ele>
        <time>2020-08-30T12:42:10Z</time>
      </trkpt>
      <trkpt lat="4.6243" lon="-74.06247">
        <ele>2626</ele>
        <time>2020-08-30T12:42:12Z</time>
      </trkpt>
      <trkpt lat="4.62432" lon="-74.06244">
        <ele>2626.2</ele>
        <time>2020-08-30T12:42:14Z</time>
      </trkpt>
      <trkpt lat="4.62434" lon="-74.0624">
        <ele>2626.4</ele>
        <time>2020-08-30T12:42:16Z</time>
      </trkpt>
      <trkpt lat="4.62434" lon="-74.06234">
        <ele>2626.7</ele>
        <time>2020-08-30T12:42:18Z</time>
      </trkpt>
      <trkpt lat="4.62436" lon="-74.06231">
        <ele>2626.9</ele>
        <time>2020-08-30T12:42:20Z</time>
      </trkpt>
      <trkpt lat="4.62437" lon="-74.0623">
        <ele>2627</ele>
        <time>2020-08-30T12:42:22Z</time>
      </trkpt>
      <trkpt lat="4.62437" lon="-74.06229">
        <ele>2627.1</ele>
        <time>2020-08-30T12:42:23Z</time>
      </trkpt>
      <trkpt lat="4.62438" lon="-74.06227">
        <ele>2627.2</ele>
        <time>2020-08-30T12:42:24Z</time>
      </trkpt>
      <trkpt lat="4.62439" lon="-74.06223">
        <ele>2627.4</ele>
        <time>2020-08-30T12:42:26Z</time>
      </trkpt>
      <trkpt lat="4.62439" lon="-74.06222">
        <ele>2627.5</ele>
        <time>2020-08-30T12:42:27Z</time>
      </trkpt>
      <trkpt lat="4.6244" lon="-74.06217">
        <ele>2627.8</ele>
        <time>2020-08-30T12:42:29Z</time>
      </trkpt>
      <trkpt lat="4.62441" lon="-74.06214">
        <ele>2628</ele>
        <time>2020-08-30T12:42:30Z</time>
      </trkpt>
      <trkpt lat="4.62443" lon="-74.06209">
        <ele>2628.3</ele>
        <time>2020-08-30T12:42:32Z</time>
      </trkpt>
      <trkpt lat="4.62443" lon="-74.06205">
        <ele>2628.6</ele>
        <time>2020-08-30T12:42:34Z</time>
      </trkpt>
      <trkpt lat="4.62444" lon="-74.06201">
        <ele>2628.8</ele>
        <time>2020-08-30T12:42:36Z</time>
      </trkpt>
      <trkpt lat="4.62444" lon="-74.06197">
        <ele>2629.1</ele>
        <time>2020-08-30T12:42:38Z</time>
      </trkpt>
      <trkpt lat="4.62443" lon="-74.06194">
        <ele>2629.3</ele>
        <time>2020-08-30T12:42:40Z</time>
      </trkpt>
      <trkpt lat="4.62442" lon="-74.06192">
        <ele>2629.4</ele>
        <time>2020-08-30T12:42:42Z</time>
      </trkpt>
      <trkpt lat="4.62442" lon="-74.06189">
        <ele>2629.6</ele>
        <time>2020-08-30T12:42:44Z</time>
      </trkpt>
      <trkpt lat="4.6244" lon="-74.06186">
        <ele>2629.9</ele>
        <time>2020-08-30T12:42:46Z</time>
      </trkpt>
      <trkpt lat="4.6244" lon="-74.06184">
        <ele>2630</ele>
        <time>2020-08-30T12:42:48Z</time>
      </trkpt>
      <trkpt lat="4.62438" lon="-74.06181">
        <ele>2630.4</ele>
        <time>2020-08-30T12:42:50Z</time>
      </trkpt>
      <trkpt lat="4.62435" lon="-74.06177">
        <ele>2630.7</ele>
        <time>2020-08-30T12:42:52Z</time>
      </trkpt>
      <trkpt lat="4.62434" lon="-74.06176">
        <ele>2630.8</ele>
        <time>2020-08-30T12:42:53Z</time>
      </trkpt>
      <trkpt lat="4.62432" lon="-74.06173">
        <ele>2631.1</ele>
        <time>2020-08-30T12:42:55Z</time>
      </trkpt>
      <trkpt lat="4.62431" lon="-74.06172">
        <ele>2631.2</ele>
        <time>2020-08-30T12:42:56Z</time>
      </trkpt>
      <trkpt lat="4.62429" lon="-74.06167">
        <ele>2631.5</ele>
        <time>2020-08-30T12:42:58Z</time>
      </trkpt>
      <trkpt lat="4.62428" lon="-74.06163">
        <ele>2631.8</ele>
        <time>2020-08-30T12:43:00Z</time>
      </trkpt>
      <trkpt lat="4.62427" lon="-74.06159">
        <ele>2632.2</ele>
        <time>2020-08-30T12:43:02Z</time>
      </trkpt>
      <trkpt lat="4.62427" lon="-74.06157">
        <ele>2632.3</ele>
        <time>2020-08-30T12:43:03Z</time>
      </trkpt>
      <trkpt lat="4.62426" lon="-74.06156">
        <ele>2632.4</ele>
        <time>2020-08-30T12:43:04Z</time>
      </trkpt>
      <trkpt lat="4.62424" lon="-74.06154">
        <ele>2632.6</ele>
        <time>2020-08-30T12:43:06Z</time>
      </trkpt>
      <trkpt lat="4.62422" lon="-74.06151">
        <ele>2632.9</ele>
        <time>2020-08-30T12:43:08Z</time>
      </trkpt>
      <trkpt lat="4.62418" lon="-74.06147">
        <ele>2633.3</ele>
        <time>2020-08-30T12:43:10Z</time>
      </trkpt>
      <trkpt lat="4.62414" lon="-74.06144">
        <ele>2633.7</ele>
        <time>2020-08-30T12:43:12Z</time>
      </trkpt>
      <trkpt lat="4.62411" lon="-74.06142">
        <ele>2634</ele>
        <time>2020-08-30T12:43:13Z</time>
      </trkpt>
      <trkpt lat="4.6241" lon="-74.06141">
        <ele>2634</ele>
        <time>2020-08-30T12:43:14Z</time>
      </trkpt>
      <trkpt lat="4.62407" lon="-74.06139">
        <ele>2634.3</ele>
        <time>2020-08-30T12:43:16Z</time>
      </trkpt>
      <trkpt lat="4.62405" lon="-74.06136">
        <ele>2634.6</ele>
        <time>2020-08-30T12:43:18Z</time>
      </trkpt>
      <trkpt lat="4.62403" lon="-74.06132">
        <ele>2634.9</ele>
        <time>2020-08-30T12:43:20Z</time>
      </trkpt>
      <trkpt lat="4.62401" lon="-74.06128">
        <ele>2635.2</ele>
        <time>2020-08-30T12:43:22Z</time>
      </trkpt>
      <trkpt lat="4.62399" lon="-74.06125">
        <ele>2635.5</ele>
        <time>2020-08-30T12:43:24Z</time>
      </trkpt>
      <trkpt lat="4.62398" lon="-74.06124">
        <ele>2635.6</ele>
        <time>2020-08-30T12:43:25Z</time>
      </trkpt>
      <trkpt lat="4.62397" lon="-74.06123">
        <ele>2635.7</ele>
        <time>2020-08-30T12:43:26Z</time>
      </trkpt>
      <trkpt lat="4.62394" lon="-74.06121">
        <ele>2635.9</ele>
        <time>2020-08-30T12:43:28Z</time>
      </trkpt>
      <trkpt lat="4.62391" lon="-74.06116">
        <ele>2636.4</ele>
        <time>2020-08-30T12:43:30Z</time>
      </trkpt>
      <trkpt lat="4.62389" lon="-74.06111">
        <ele>2636.8</ele>
        <time>2020-08-30T12:43:32Z</time>
      </trkpt>
      <trkpt lat="4.62388" lon="-74.06108">
        <ele>2636.9</ele>
        <time>2020-08-30T12:43:33Z</time>
      </trkpt>
      <trkpt lat="4.6238" lon="-74.06116">
        <ele>2637.7</ele>
        <time>2020-08-30T12:43:35Z</time>
      </trkpt>
      <trkpt lat="4.62362" lon="-74.06143">
        <ele>2640.1</ele>
        <time>2020-08-30T12:43:37Z</time>
      </trkpt>
      <trkpt lat="4.62361" lon="-74.06142">
        <ele>2640.1</ele>
        <time>2020-08-30T12:43:38Z</time>
      </trkpt>
      <trkpt lat="4.6236" lon="-74.06141">
        <ele>2640.2</ele>
        <time>2020-08-30T12:43:39Z</time>
      </trkpt>
      <trkpt lat="4.62358" lon="-74.0614">
        <ele>2640.4</ele>
        <time>2020-08-30T12:43:41Z</time>
      </trkpt>
      <trkpt lat="4.62361" lon="-74.06129">
        <ele>2641.2</ele>
        <time>2020-08-30T12:43:43Z</time>
      </trkpt>
      <trkpt lat="4.62364" lon="-74.06116">
        <ele>2642.1</ele>
        <time>2020-08-30T12:43:44Z</time>
      </trkpt>
      <trkpt lat="4.62365" lon="-74.06105">
        <ele>2642.9</ele>
        <time>2020-08-30T12:43:46Z</time>
      </trkpt>
      <trkpt lat="4.62375" lon="-74.06083">
        <ele>2644.5</ele>
        <time>2020-08-30T12:43:48Z</time>
      </trkpt>
      <trkpt lat="4.62376" lon="-74.06082">
        <ele>2644.6</ele>
        <time>2020-08-30T12:43:49Z</time>
      </trkpt>
      <trkpt lat="4.62377" lon="-74.06079">
        <ele>2644.7</ele>
        <time>2020-08-30T12:43:51Z</time>
      </trkpt>
      <trkpt lat="4.62377" lon="-74.06077">
        <ele>2644.9</ele>
        <time>2020-08-30T12:43:53Z</time>
      </trkpt>
      <trkpt lat="4.62377" lon="-74.06077">
        <ele>2644.9</ele>
        <time>2020-08-30T12:43:54Z</time>
      </trkpt>
      <trkpt lat="4.62377" lon="-74.06076">
        <ele>2645</ele>
        <time>2020-08-30T12:43:55Z</time>
      </trkpt>
      <trkpt lat="4.62376" lon="-74.06073">
        <ele>2645.1</ele>
        <time>2020-08-30T12:43:57Z</time>
      </trkpt>
      <trkpt lat="4.62375" lon="-74.0607">
        <ele>2645.4</ele>
        <time>2020-08-30T12:43:59Z</time>
      </trkpt>
      <trkpt lat="4.62373" lon="-74.06067">
        <ele>2645.6</ele>
        <time>2020-08-30T12:44:01Z</time>
      </trkpt>
      <trkpt lat="4.62371" lon="-74.06064">
        <ele>2645.8</ele>
        <time>2020-08-30T12:44:03Z</time>
      </trkpt>
      <trkpt lat="4.6237" lon="-74.06063">
        <ele>2645.9</ele>
        <time>2020-08-30T12:44:04Z</time>
      </trkpt>
      <trkpt lat="4.62369" lon="-74.06061">
        <ele>2646.1</ele>
        <time>2020-08-30T12:44:06Z</time>
      </trkpt>
      <trkpt lat="4.62366" lon="-74.06056">
        <ele>2646.5</ele>
        <time>2020-08-30T12:44:09Z</time>
      </trkpt>
      <trkpt lat="4.62365" lon="-74.06054">
        <ele>2646.6</ele>
        <time>2020-08-30T12:44:11Z</time>
      </trkpt>
      <trkpt lat="4.62365" lon="-74.06052">
        <ele>2646.7</ele>
        <time>2020-08-30T12:44:12Z</time>
      </trkpt>
      <trkpt lat="4.62364" lon="-74.06051">
        <ele>2646.8</ele>
        <time>2020-08-30T12:44:14Z</time>
      </trkpt>
      <trkpt lat="4.62363" lon="-74.06049">
        <ele>2646.9</ele>
        <time>2020-08-30T12:44:15Z</time>
      </trkpt>
      <trkpt lat="4.62363" lon="-74.06048">
        <ele>2647</ele>
        <time>2020-08-30T12:44:17Z</time>
      </trkpt>
      <trkpt lat="4.62362" lon="-74.06046">
        <ele>2647.1</ele>
        <time>2020-08-30T12:44:18Z</time>
      </trkpt>
      <trkpt lat="4.62361" lon="-74.06045">
        <ele>2647.2</ele>
        <time>2020-08-30T12:44:19Z</time>
      </trkpt>
      <trkpt lat="4.62361" lon="-74.06041">
        <ele>2647.4</ele>
        <time>2020-08-30T12:44:21Z</time>
      </trkpt>
      <trkpt lat="4.6236" lon="-74.06039">
        <ele>2647.5</ele>
        <time>2020-08-30T12:44:23Z</time>
      </trkpt>
      <trkpt lat="4.62359" lon="-74.06037">
        <ele>2647.6</ele>
        <time>2020-08-30T12:44:24Z</time>
      </trkpt>
      <trkpt lat="4.62359" lon="-74.06035">
        <ele>2647.7</ele>
        <time>2020-08-30T12:44:26Z</time>
      </trkpt>
      <trkpt lat="4.62359" lon="-74.06031">
        <ele>2647.8</ele>
        <time>2020-08-30T12:44:27Z</time>
      </trkpt>
      <trkpt lat="4.62358" lon="-74.0603">
        <ele>2647.9</ele>
        <time>2020-08-30T12:44:28Z</time>
      </trkpt>
      <trkpt lat="4.62357" lon="-74.06027">
        <ele>2648</ele>
        <time>2020-08-30T12:44:30Z</time>
      </trkpt>
      <trkpt lat="4.62354" lon="-74.06023">
        <ele>2648.2</ele>
        <time>2020-08-30T12:44:32Z</time>
      </trkpt>
      <trkpt lat="4.62353" lon="-74.06022">
        <ele>2648.3</ele>
        <time>2020-08-30T12:44:33Z</time>
      </trkpt>
      <trkpt lat="4.62349" lon="-74.06018">
        <ele>2648.5</ele>
        <time>2020-08-30T12:44:35Z</time>
      </trkpt>
      <trkpt lat="4.62344" lon="-74.06013">
        <ele>2648.9</ele>
        <time>2020-08-30T12:44:37Z</time>
      </trkpt>
      <trkpt lat="4.6234" lon="-74.06007">
        <ele>2649.2</ele>
        <time>2020-08-30T12:44:39Z</time>
      </trkpt>
      <trkpt lat="4.62337" lon="-74.06002">
        <ele>2649.5</ele>
        <time>2020-08-30T12:44:41Z</time>
      </trkpt>
      <trkpt lat="4.62335" lon="-74.05998">
        <ele>2649.8</ele>
        <time>2020-08-30T12:44:43Z</time>
      </trkpt>
      <trkpt lat="4.62333" lon="-74.05995">
        <ele>2650</ele>
        <time>2020-08-30T12:44:44Z</time>
      </trkpt>
      <trkpt lat="4.62332" lon="-74.05994">
        <ele>2650.1</ele>
        <time>2020-08-30T12:44:45Z</time>
      </trkpt>
      <trkpt lat="4.62331" lon="-74.05991">
        <ele>2650.3</ele>
        <time>2020-08-30T12:44:46Z</time>
      </trkpt>
      <trkpt lat="4.62328" lon="-74.05987">
        <ele>2650.6</ele>
        <time>2020-08-30T12:44:48Z</time>
      </trkpt>
      <trkpt lat="4.62326" lon="-74.05981">
        <ele>2651</ele>
        <time>2020-08-30T12:44:50Z</time>
      </trkpt>
      <trkpt lat="4.62325" lon="-74.05976">
        <ele>2651.3</ele>
        <time>2020-08-30T12:44:52Z</time>
      </trkpt>
      <trkpt lat="4.62324" lon="-74.05973">
        <ele>2651.5</ele>
        <time>2020-08-30T12:44:53Z</time>
      </trkpt>
      <trkpt lat="4.62322" lon="-74.05969">
        <ele>2651.8</ele>
        <time>2020-08-30T12:44:55Z</time>
      </trkpt>
      <trkpt lat="4.62322" lon="-74.05967">
        <ele>2651.9</ele>
        <time>2020-08-30T12:44:56Z</time>
      </trkpt>
      <trkpt lat="4.62323" lon="-74.05965">
        <ele>2652</ele>
        <time>2020-08-30T12:44:57Z</time>
      </trkpt>
      <trkpt lat="4.62325" lon="-74.05961">
        <ele>2652.3</ele>
        <time>2020-08-30T12:44:59Z</time>
      </trkpt>
      <trkpt lat="4.62327" lon="-74.05959">
        <ele>2652.4</ele>
        <time>2020-08-30T12:45:01Z</time>
      </trkpt>
      <trkpt lat="4.62327" lon="-74.05958">
        <ele>2652.5</ele>
        <time>2020-08-30T12:45:02Z</time>
      </trkpt>
      <trkpt lat="4.62328" lon="-74.05956">
        <ele>2652.6</ele>
        <time>2020-08-30T12:45:03Z</time>
      </trkpt>
      <trkpt lat="4.62329" lon="-74.05952">
        <ele>2652.9</ele>
        <time>2020-08-30T12:45:05Z</time>
      </trkpt>
      <trkpt lat="4.62332" lon="-74.05948">
        <ele>2653.2</ele>
        <time>2020-08-30T12:45:07Z</time>
      </trkpt>
      <trkpt lat="4.62333" lon="-74.05946">
        <ele>2653.3</ele>
        <time>2020-08-30T12:45:08Z</time>
      </trkpt>
      <trkpt lat="4.62336" lon="-74.05943">
        <ele>2653.6</ele>
        <time>2020-08-30T12:45:10Z</time>
      </trkpt>
      <trkpt lat="4.62341" lon="-74.05942">
        <ele>2653.9</ele>
        <time>2020-08-30T12:45:12Z</time>
      </trkpt>
      <trkpt lat="4.62347" lon="-74.0594">
        <ele>2654.4</ele>
        <time>2020-08-30T12:45:15Z</time>
      </trkpt>
      <trkpt lat="4.62351" lon="-74.05935">
        <ele>2654.8</ele>
        <time>2020-08-30T12:45:17Z</time>
      </trkpt>
      <trkpt lat="4.62355" lon="-74.05932">
        <ele>2655.2</ele>
        <time>2020-08-30T12:45:19Z</time>
      </trkpt>
      <trkpt lat="4.62358" lon="-74.0593">
        <ele>2655.5</ele>
        <time>2020-08-30T12:45:21Z</time>
      </trkpt>
      <trkpt lat="4.6236" lon="-74.05929">
        <ele>2655.7</ele>
        <time>2020-08-30T12:45:23Z</time>
      </trkpt>
      <trkpt lat="4.62362" lon="-74.05925">
        <ele>2656</ele>
        <time>2020-08-30T12:45:25Z</time>
      </trkpt>
      <trkpt lat="4.62362" lon="-74.05922">
        <ele>2656.9</ele>
        <time>2020-08-30T12:45:26Z</time>
      </trkpt>
      <trkpt lat="4.62362" lon="-74.0592">
        <ele>2656.6</ele>
        <time>2020-08-30T12:45:27Z</time>
      </trkpt>
      <trkpt lat="4.62361" lon="-74.05916">
        <ele>2658.1</ele>
        <time>2020-08-30T12:45:29Z</time>
      </trkpt>
      <trkpt lat="4.62359" lon="-74.05913">
        <ele>2658.7</ele>
        <time>2020-08-30T12:45:31Z</time>
      </trkpt>
      <trkpt lat="4.62358" lon="-74.05913">
        <ele>2658.4</ele>
        <time>2020-08-30T12:45:32Z</time>
      </trkpt>
      <trkpt lat="4.62357" lon="-74.05913">
        <ele>2658.1</ele>
        <time>2020-08-30T12:45:33Z</time>
      </trkpt>
      <trkpt lat="4.62354" lon="-74.05914">
        <ele>2657.6</ele>
        <time>2020-08-30T12:45:35Z</time>
      </trkpt>
      <trkpt lat="4.62352" lon="-74.05918">
        <ele>2657.9</ele>
        <time>2020-08-30T12:45:37Z</time>
      </trkpt>
      <trkpt lat="4.6235" lon="-74.05922">
        <ele>2657.7</ele>
        <time>2020-08-30T12:45:39Z</time>
      </trkpt>
      <trkpt lat="4.62349" lon="-74.05924">
        <ele>2657.5</ele>
        <time>2020-08-30T12:45:41Z</time>
      </trkpt>
      <trkpt lat="4.62348" lon="-74.05927">
        <ele>2657.4</ele>
        <time>2020-08-30T12:45:43Z</time>
      </trkpt>
      <trkpt lat="4.62346" lon="-74.0593">
        <ele>2657.2</ele>
        <time>2020-08-30T12:45:45Z</time>
      </trkpt>
      <trkpt lat="4.62345" lon="-74.0593">
        <ele>2657.2</ele>
        <time>2020-08-30T12:45:46Z</time>
      </trkpt>
      <trkpt lat="4.62341" lon="-74.05932">
        <ele>2657</ele>
        <time>2020-08-30T12:45:48Z</time>
      </trkpt>
      <trkpt lat="4.62336" lon="-74.05933">
        <ele>2656.8</ele>
        <time>2020-08-30T12:45:50Z</time>
      </trkpt>
      <trkpt lat="4.62332" lon="-74.05933">
        <ele>2656.7</ele>
        <time>2020-08-30T12:45:51Z</time>
      </trkpt>
      <trkpt lat="4.62331" lon="-74.05934">
        <ele>2656.6</ele>
        <time>2020-08-30T12:45:52Z</time>
      </trkpt>
      <trkpt lat="4.62327" lon="-74.05934">
        <ele>2656.5</ele>
        <time>2020-08-30T12:45:54Z</time>
      </trkpt>
      <trkpt lat="4.62324" lon="-74.05934">
        <ele>2656.4</ele>
        <time>2020-08-30T12:45:55Z</time>
      </trkpt>
      <trkpt lat="4.6232" lon="-74.05934">
        <ele>2656.3</ele>
        <time>2020-08-30T12:45:57Z</time>
      </trkpt>
      <trkpt lat="4.62316" lon="-74.05936">
        <ele>2656.2</ele>
        <time>2020-08-30T12:45:59Z</time>
      </trkpt>
      <trkpt lat="4.62312" lon="-74.05938">
        <ele>2656.1</ele>
        <time>2020-08-30T12:46:00Z</time>
      </trkpt>
      <trkpt lat="4.62311" lon="-74.05938">
        <ele>2656</ele>
        <time>2020-08-30T12:46:01Z</time>
      </trkpt>
      <trkpt lat="4.62308" lon="-74.05941">
        <ele>2655.9</ele>
        <time>2020-08-30T12:46:03Z</time>
      </trkpt>
      <trkpt lat="4.62307" lon="-74.05942">
        <ele>2655.9</ele>
        <time>2020-08-30T12:46:04Z</time>
      </trkpt>
      <trkpt lat="4.62305" lon="-74.05946">
        <ele>2655.7</ele>
        <time>2020-08-30T12:46:06Z</time>
      </trkpt>
      <trkpt lat="4.62306" lon="-74.05952">
        <ele>2655.6</ele>
        <time>2020-08-30T12:46:08Z</time>
      </trkpt>
      <trkpt lat="4.62308" lon="-74.05956">
        <ele>2655.4</ele>
        <time>2020-08-30T12:46:10Z</time>
      </trkpt>
      <trkpt lat="4.62309" lon="-74.05958">
        <ele>2655.4</ele>
        <time>2020-08-30T12:46:11Z</time>
      </trkpt>
      <trkpt lat="4.62312" lon="-74.05959">
        <ele>2655.3</ele>
        <time>2020-08-30T12:46:13Z</time>
      </trkpt>
      <trkpt lat="4.62313" lon="-74.05961">
        <ele>2655.3</ele>
        <time>2020-08-30T12:46:14Z</time>
      </trkpt>
      <trkpt lat="4.62317" lon="-74.05964">
        <ele>2655.2</ele>
        <time>2020-08-30T12:46:16Z</time>
      </trkpt>
      <trkpt lat="4.62318" lon="-74.05966">
        <ele>2655.2</ele>
        <time>2020-08-30T12:46:17Z</time>
      </trkpt>
      <trkpt lat="4.62322" lon="-74.05969">
        <ele>2655.1</ele>
        <time>2020-08-30T12:46:19Z</time>
      </trkpt>
      <trkpt lat="4.62325" lon="-74.05973">
        <ele>2655</ele>
        <time>2020-08-30T12:46:21Z</time>
      </trkpt>
      <trkpt lat="4.62328" lon="-74.05978">
        <ele>2654.9</ele>
        <time>2020-08-30T12:46:23Z</time>
      </trkpt>
      <trkpt lat="4.6233" lon="-74.05982">
        <ele>2654.7</ele>
        <time>2020-08-30T12:46:25Z</time>
      </trkpt>
      <trkpt lat="4.62332" lon="-74.05987">
        <ele>2654.6</ele>
        <time>2020-08-30T12:46:27Z</time>
      </trkpt>
      <trkpt lat="4.62332" lon="-74.0599">
        <ele>2654.4</ele>
        <time>2020-08-30T12:46:28Z</time>
      </trkpt>
      <trkpt lat="4.62333" lon="-74.05992">
        <ele>2654.4</ele>
        <time>2020-08-30T12:46:29Z</time>
      </trkpt>
      <trkpt lat="4.62334" lon="-74.05997">
        <ele>2654.2</ele>
        <time>2020-08-30T12:46:31Z</time>
      </trkpt>
      <trkpt lat="4.62334" lon="-74.06002">
        <ele>2654</ele>
        <time>2020-08-30T12:46:33Z</time>
      </trkpt>
      <trkpt lat="4.62335" lon="-74.06005">
        <ele>2653.9</ele>
        <time>2020-08-30T12:46:34Z</time>
      </trkpt>
      <trkpt lat="4.62335" lon="-74.06011">
        <ele>2653.7</ele>
        <time>2020-08-30T12:46:36Z</time>
      </trkpt>
      <trkpt lat="4.62336" lon="-74.06014">
        <ele>2653.6</ele>
        <time>2020-08-30T12:46:37Z</time>
      </trkpt>
      <trkpt lat="4.62337" lon="-74.06019">
        <ele>2653.3</ele>
        <time>2020-08-30T12:46:39Z</time>
      </trkpt>
      <trkpt lat="4.62337" lon="-74.06022">
        <ele>2653.1</ele>
        <time>2020-08-30T12:46:40Z</time>
      </trkpt>
      <trkpt lat="4.62338" lon="-74.06025">
        <ele>2653</ele>
        <time>2020-08-30T12:46:41Z</time>
      </trkpt>
      <trkpt lat="4.62338" lon="-74.06028">
        <ele>2652.8</ele>
        <time>2020-08-30T12:46:42Z</time>
      </trkpt>
      <trkpt lat="4.62339" lon="-74.06036">
        <ele>2652.4</ele>
        <time>2020-08-30T12:46:44Z</time>
      </trkpt>
      <trkpt lat="4.62339" lon="-74.06041">
        <ele>2652.2</ele>
        <time>2020-08-30T12:46:46Z</time>
      </trkpt>
      <trkpt lat="4.62339" lon="-74.06045">
        <ele>2651.9</ele>
        <time>2020-08-30T12:46:47Z</time>
      </trkpt>
      <trkpt lat="4.62339" lon="-74.06047">
        <ele>2651.9</ele>
        <time>2020-08-30T12:46:48Z</time>
      </trkpt>
      <trkpt lat="4.62339" lon="-74.06049">
        <ele>2651.7</ele>
        <time>2020-08-30T12:46:49Z</time>
      </trkpt>
      <trkpt lat="4.62338" lon="-74.06053">
        <ele>2651.5</ele>
        <time>2020-08-30T12:46:51Z</time>
      </trkpt>
      <trkpt lat="4.62338" lon="-74.06058">
        <ele>2651.2</ele>
        <time>2020-08-30T12:46:53Z</time>
      </trkpt>
      <trkpt lat="4.62336" lon="-74.06066">
        <ele>2650.8</ele>
        <time>2020-08-30T12:46:55Z</time>
      </trkpt>
      <trkpt lat="4.62335" lon="-74.06071">
        <ele>2650.6</ele>
        <time>2020-08-30T12:46:57Z</time>
      </trkpt>
      <trkpt lat="4.62334" lon="-74.06076">
        <ele>2650.3</ele>
        <time>2020-08-30T12:46:59Z</time>
      </trkpt>
      <trkpt lat="4.62334" lon="-74.06081">
        <ele>2650.1</ele>
        <time>2020-08-30T12:47:01Z</time>
      </trkpt>
      <trkpt lat="4.62335" lon="-74.06086">
        <ele>2649.8</ele>
        <time>2020-08-30T12:47:03Z</time>
      </trkpt>
      <trkpt lat="4.62337" lon="-74.0609">
        <ele>2649.6</ele>
        <time>2020-08-30T12:47:05Z</time>
      </trkpt>
      <trkpt lat="4.62338" lon="-74.06096">
        <ele>2649.3</ele>
        <time>2020-08-30T12:47:07Z</time>
      </trkpt>
      <trkpt lat="4.62339" lon="-74.06098">
        <ele>2649.1</ele>
        <time>2020-08-30T12:47:08Z</time>
      </trkpt>
      <trkpt lat="4.6234" lon="-74.06103">
        <ele>2648.9</ele>
        <time>2020-08-30T12:47:10Z</time>
      </trkpt>
      <trkpt lat="4.62342" lon="-74.06106">
        <ele>2648.7</ele>
        <time>2020-08-30T12:47:11Z</time>
      </trkpt>
      <trkpt lat="4.62344" lon="-74.06111">
        <ele>2648.4</ele>
        <time>2020-08-30T12:47:13Z</time>
      </trkpt>
      <trkpt lat="4.6235" lon="-74.06116">
        <ele>2648.1</ele>
        <time>2020-08-30T12:47:15Z</time>
      </trkpt>
      <trkpt lat="4.62353" lon="-74.06119">
        <ele>2647.9</ele>
        <time>2020-08-30T12:47:17Z</time>
      </trkpt>
      <trkpt lat="4.62355" lon="-74.06122">
        <ele>2647.8</ele>
        <time>2020-08-30T12:47:18Z</time>
      </trkpt>
      <trkpt lat="4.62357" lon="-74.06127">
        <ele>2647.6</ele>
        <time>2020-08-30T12:47:19Z</time>
      </trkpt>
      <trkpt lat="4.62357" lon="-74.0613">
        <ele>2647.5</ele>
        <time>2020-08-30T12:47:20Z</time>
      </trkpt>
      <trkpt lat="4.62359" lon="-74.06138">
        <ele>2647.3</ele>
        <time>2020-08-30T12:47:22Z</time>
      </trkpt>
      <trkpt lat="4.62359" lon="-74.06141">
        <ele>2647.2</ele>
        <time>2020-08-30T12:47:23Z</time>
      </trkpt>
      <trkpt lat="4.62357" lon="-74.0615">
        <ele>2646.9</ele>
        <time>2020-08-30T12:47:25Z</time>
      </trkpt>
      <trkpt lat="4.6236" lon="-74.06152">
        <ele>2646.9</ele>
        <time>2020-08-30T12:47:27Z</time>
      </trkpt>
      <trkpt lat="4.62362" lon="-74.06155">
        <ele>2646.8</ele>
        <time>2020-08-30T12:47:29Z</time>
      </trkpt>
      <trkpt lat="4.62363" lon="-74.06155">
        <ele>2646.8</ele>
        <time>2020-08-30T12:47:30Z</time>
      </trkpt>
      <trkpt lat="4.62363" lon="-74.06157">
        <ele>2646.7</ele>
        <time>2020-08-30T12:47:32Z</time>
      </trkpt>
      <trkpt lat="4.62364" lon="-74.06157">
        <ele>2646.7</ele>
        <time>2020-08-30T12:47:33Z</time>
      </trkpt>
      <trkpt lat="4.62364" lon="-74.0616">
        <ele>2646.7</ele>
        <time>2020-08-30T12:47:35Z</time>
      </trkpt>
      <trkpt lat="4.62365" lon="-74.06162">
        <ele>2646.6</ele>
        <time>2020-08-30T12:47:37Z</time>
      </trkpt>
      <trkpt lat="4.62367" lon="-74.06165">
        <ele>2646.6</ele>
        <time>2020-08-30T12:47:38Z</time>
      </trkpt>
      <trkpt lat="4.62368" lon="-74.06167">
        <ele>2646.6</ele>
        <time>2020-08-30T12:47:40Z</time>
      </trkpt>
      <trkpt lat="4.6237" lon="-74.06169">
        <ele>2646.5</ele>
        <time>2020-08-30T12:47:41Z</time>
      </trkpt>
      <trkpt lat="4.62374" lon="-74.06176">
        <ele>2646.5</ele>
        <time>2020-08-30T12:47:43Z</time>
      </trkpt>
      <trkpt lat="4.62375" lon="-74.06182">
        <ele>2646.1</ele>
        <time>2020-08-30T12:47:45Z</time>
      </trkpt>
      <trkpt lat="4.62374" lon="-74.06187">
        <ele>2646</ele>
        <time>2020-08-30T12:47:47Z</time>
      </trkpt>
      <trkpt lat="4.62372" lon="-74.06192">
        <ele>2645.9</ele>
        <time>2020-08-30T12:47:49Z</time>
      </trkpt>
      <trkpt lat="4.62369" lon="-74.06193">
        <ele>2645.8</ele>
        <time>2020-08-30T12:47:51Z</time>
      </trkpt>
      <trkpt lat="4.62366" lon="-74.06193">
        <ele>2645.7</ele>
        <time>2020-08-30T12:47:52Z</time>
      </trkpt>
      <trkpt lat="4.62363" lon="-74.06192">
        <ele>2645.6</ele>
        <time>2020-08-30T12:47:54Z</time>
      </trkpt>
      <trkpt lat="4.62358" lon="-74.0618">
        <ele>2645.3</ele>
        <time>2020-08-30T12:47:56Z</time>
      </trkpt>
      <trkpt lat="4.62356" lon="-74.06179">
        <ele>2645.2</ele>
        <time>2020-08-30T12:47:58Z</time>
      </trkpt>
      <trkpt lat="4.62354" lon="-74.06178">
        <ele>2645.2</ele>
        <time>2020-08-30T12:48:00Z</time>
      </trkpt>
      <trkpt lat="4.6235" lon="-74.06173">
        <ele>2645</ele>
        <time>2020-08-30T12:48:02Z</time>
      </trkpt>
      <trkpt lat="4.62348" lon="-74.06171">
        <ele>2644.9</ele>
        <time>2020-08-30T12:48:03Z</time>
      </trkpt>
      <trkpt lat="4.62346" lon="-74.06168">
        <ele>2644.8</ele>
        <time>2020-08-30T12:48:05Z</time>
      </trkpt>
      <trkpt lat="4.62345" lon="-74.06169">
        <ele>2644.7</ele>
        <time>2020-08-30T12:48:06Z</time>
      </trkpt>
      <trkpt lat="4.62344" lon="-74.06169">
        <ele>2644.7</ele>
        <time>2020-08-30T12:48:08Z</time>
      </trkpt>
      <trkpt lat="4.62342" lon="-74.06169">
        <ele>2644.6</ele>
        <time>2020-08-30T12:48:09Z</time>
      </trkpt>
      <trkpt lat="4.62338" lon="-74.06168">
        <ele>2644.4</ele>
        <time>2020-08-30T12:48:11Z</time>
      </trkpt>
      <trkpt lat="4.62337" lon="-74.06168">
        <ele>2644.4</ele>
        <time>2020-08-30T12:48:12Z</time>
      </trkpt>
      <trkpt lat="4.62335" lon="-74.06168">
        <ele>2644.3</ele>
        <time>2020-08-30T12:48:13Z</time>
      </trkpt>
      <trkpt lat="4.62332" lon="-74.06169">
        <ele>2644.1</ele>
        <time>2020-08-30T12:48:15Z</time>
      </trkpt>
      <trkpt lat="4.62329" lon="-74.06169">
        <ele>2644</ele>
        <time>2020-08-30T12:48:17Z</time>
      </trkpt>
      <trkpt lat="4.62327" lon="-74.0617">
        <ele>2644</ele>
        <time>2020-08-30T12:48:19Z</time>
      </trkpt>
      <trkpt lat="4.62322" lon="-74.06173">
        <ele>2643.7</ele>
        <time>2020-08-30T12:48:20Z</time>
      </trkpt>
      <trkpt lat="4.62317" lon="-74.06175">
        <ele>2643.5</ele>
        <time>2020-08-30T12:48:21Z</time>
      </trkpt>
      <trkpt lat="4.62316" lon="-74.06176">
        <ele>2643.4</ele>
        <time>2020-08-30T12:48:23Z</time>
      </trkpt>
      <trkpt lat="4.62314" lon="-74.06177">
        <ele>2643.3</ele>
        <time>2020-08-30T12:48:25Z</time>
      </trkpt>
      <trkpt lat="4.62328" lon="-74.06174">
        <ele>2642.7</ele>
        <time>2020-08-30T12:48:27Z</time>
      </trkpt>
      <trkpt lat="4.62325" lon="-74.06175">
        <ele>2642.6</ele>
        <time>2020-08-30T12:48:29Z</time>
      </trkpt>
      <trkpt lat="4.62321" lon="-74.06176">
        <ele>2642.4</ele>
        <time>2020-08-30T12:48:31Z</time>
      </trkpt>
      <trkpt lat="4.62317" lon="-74.06177">
        <ele>2642.2</ele>
        <time>2020-08-30T12:48:33Z</time>
      </trkpt>
      <trkpt lat="4.62312" lon="-74.06178">
        <ele>2642</ele>
        <time>2020-08-30T12:48:35Z</time>
      </trkpt>
      <trkpt lat="4.62308" lon="-74.06179">
        <ele>2641.8</ele>
        <time>2020-08-30T12:48:37Z</time>
      </trkpt>
      <trkpt lat="4.62289" lon="-74.06187">
        <ele>2640.9</ele>
        <time>2020-08-30T12:48:38Z</time>
      </trkpt>
      <trkpt lat="4.62289" lon="-74.06187">
        <ele>2640.9</ele>
        <time>2020-08-30T12:48:39Z</time>
      </trkpt>
      <trkpt lat="4.62278" lon="-74.06192">
        <ele>2640.5</ele>
        <time>2020-08-30T12:48:41Z</time>
      </trkpt>
      <trkpt lat="4.62269" lon="-74.06195">
        <ele>2639.7</ele>
        <time>2020-08-30T12:48:42Z</time>
      </trkpt>
      <trkpt lat="4.6226" lon="-74.06199">
        <ele>2638.7</ele>
        <time>2020-08-30T12:48:43Z</time>
      </trkpt>
      <trkpt lat="4.62246" lon="-74.06206">
        <ele>2637</ele>
        <time>2020-08-30T12:48:45Z</time>
      </trkpt>
      <trkpt lat="4.62226" lon="-74.06216">
        <ele>2634.5</ele>
        <time>2020-08-30T12:48:47Z</time>
      </trkpt>
      <trkpt lat="4.62223" lon="-74.06217">
        <ele>2634.1</ele>
        <time>2020-08-30T12:48:49Z</time>
      </trkpt>
      <trkpt lat="4.62222" lon="-74.06218">
        <ele>2634</ele>
        <time>2020-08-30T12:48:50Z</time>
      </trkpt>
      <trkpt lat="4.62221" lon="-74.06219">
        <ele>2633.8</ele>
        <time>2020-08-30T12:48:51Z</time>
      </trkpt>
      <trkpt lat="4.62219" lon="-74.06223">
        <ele>2633.4</ele>
        <time>2020-08-30T12:48:54Z</time>
      </trkpt>
      <trkpt lat="4.62218" lon="-74.06225">
        <ele>2633.2</ele>
        <time>2020-08-30T12:48:55Z</time>
      </trkpt>
      <trkpt lat="4.62219" lon="-74.06237">
        <ele>2632.1</ele>
        <time>2020-08-30T12:48:57Z</time>
      </trkpt>
      <trkpt lat="4.62219" lon="-74.06243">
        <ele>2631.5</ele>
        <time>2020-08-30T12:48:59Z</time>
      </trkpt>
      <trkpt lat="4.62218" lon="-74.06248">
        <ele>2631</ele>
        <time>2020-08-30T12:49:01Z</time>
      </trkpt>
      <trkpt lat="4.62217" lon="-74.06254">
        <ele>2630.4</ele>
        <time>2020-08-30T12:49:03Z</time>
      </trkpt>
      <trkpt lat="4.62215" lon="-74.06258">
        <ele>2630.2</ele>
        <time>2020-08-30T12:49:04Z</time>
      </trkpt>
      <trkpt lat="4.62216" lon="-74.0626">
        <ele>2630.2</ele>
        <time>2020-08-30T12:49:05Z</time>
      </trkpt>
      <trkpt lat="4.62212" lon="-74.06269">
        <ele>2629.9</ele>
        <time>2020-08-30T12:49:07Z</time>
      </trkpt>
      <trkpt lat="4.62208" lon="-74.06276">
        <ele>2629.6</ele>
        <time>2020-08-30T12:49:09Z</time>
      </trkpt>
      <trkpt lat="4.62203" lon="-74.06281">
        <ele>2629.4</ele>
        <time>2020-08-30T12:49:11Z</time>
      </trkpt>
      <trkpt lat="4.62199" lon="-74.06284">
        <ele>2629.1</ele>
        <time>2020-08-30T12:49:13Z</time>
      </trkpt>
      <trkpt lat="4.62197" lon="-74.06286">
        <ele>2629</ele>
        <time>2020-08-30T12:49:14Z</time>
      </trkpt>
      <trkpt lat="4.62191" lon="-74.06289">
        <ele>2628.7</ele>
        <time>2020-08-30T12:49:16Z</time>
      </trkpt>
      <trkpt lat="4.62188" lon="-74.06289">
        <ele>2628.6</ele>
        <time>2020-08-30T12:49:17Z</time>
      </trkpt>
      <trkpt lat="4.62185" lon="-74.0629">
        <ele>2628.5</ele>
        <time>2020-08-30T12:49:18Z</time>
      </trkpt>
      <trkpt lat="4.62179" lon="-74.06289">
        <ele>2628.4</ele>
        <time>2020-08-30T12:49:20Z</time>
      </trkpt>
      <trkpt lat="4.62176" lon="-74.06288">
        <ele>2628.3</ele>
        <time>2020-08-30T12:49:21Z</time>
      </trkpt>
      <trkpt lat="4.6217" lon="-74.06285">
        <ele>2628.1</ele>
        <time>2020-08-30T12:49:23Z</time>
      </trkpt>
      <trkpt lat="4.62163" lon="-74.06283">
        <ele>2627.9</ele>
        <time>2020-08-30T12:49:25Z</time>
      </trkpt>
      <trkpt lat="4.62156" lon="-74.06281">
        <ele>2627.7</ele>
        <time>2020-08-30T12:49:27Z</time>
      </trkpt>
      <trkpt lat="4.62153" lon="-74.06281">
        <ele>2627.7</ele>
        <time>2020-08-30T12:49:28Z</time>
      </trkpt>
      <trkpt lat="4.6215" lon="-74.0628">
        <ele>2627.6</ele>
        <time>2020-08-30T12:49:29Z</time>
      </trkpt>
      <trkpt lat="4.62145" lon="-74.06278">
        <ele>2627.5</ele>
        <time>2020-08-30T12:49:31Z</time>
      </trkpt>
      <trkpt lat="4.62143" lon="-74.06277">
        <ele>2627.5</ele>
        <time>2020-08-30T12:49:32Z</time>
      </trkpt>
      <trkpt lat="4.62138" lon="-74.06276">
        <ele>2627.4</ele>
        <time>2020-08-30T12:49:34Z</time>
      </trkpt>
      <trkpt lat="4.62133" lon="-74.06276">
        <ele>2627.2</ele>
        <time>2020-08-30T12:49:36Z</time>
      </trkpt>
      <trkpt lat="4.6213" lon="-74.06275">
        <ele>2627.1</ele>
        <time>2020-08-30T12:49:37Z</time>
      </trkpt>
      <trkpt lat="4.62126" lon="-74.06275">
        <ele>2627</ele>
        <time>2020-08-30T12:49:39Z</time>
      </trkpt>
      <trkpt lat="4.62124" lon="-74.06276">
        <ele>2626.9</ele>
        <time>2020-08-30T12:49:40Z</time>
      </trkpt>
      <trkpt lat="4.62121" lon="-74.06278">
        <ele>2626.8</ele>
        <time>2020-08-30T12:49:42Z</time>
      </trkpt>
      <trkpt lat="4.6212" lon="-74.0628">
        <ele>2626.7</ele>
        <time>2020-08-30T12:49:43Z</time>
      </trkpt>
      <trkpt lat="4.62117" lon="-74.06284">
        <ele>2626.5</ele>
        <time>2020-08-30T12:49:45Z</time>
      </trkpt>
      <trkpt lat="4.62116" lon="-74.06288">
        <ele>2626.3</ele>
        <time>2020-08-30T12:49:47Z</time>
      </trkpt>
      <trkpt lat="4.62115" lon="-74.06293">
        <ele>2625.8</ele>
        <time>2020-08-30T12:49:49Z</time>
      </trkpt>
      <trkpt lat="4.62115" lon="-74.06295">
        <ele>2625.7</ele>
        <time>2020-08-30T12:49:50Z</time>
      </trkpt>
      <trkpt lat="4.62114" lon="-74.063">
        <ele>2625.3</ele>
        <time>2020-08-30T12:49:52Z</time>
      </trkpt>
      <trkpt lat="4.62114" lon="-74.06304">
        <ele>2625</ele>
        <time>2020-08-30T12:49:54Z</time>
      </trkpt>
      <trkpt lat="4.62114" lon="-74.06309">
        <ele>2624.7</ele>
        <time>2020-08-30T12:49:56Z</time>
      </trkpt>
      <trkpt lat="4.62115" lon="-74.06314">
        <ele>2624.3</ele>
        <time>2020-08-30T12:49:58Z</time>
      </trkpt>
      <trkpt lat="4.62115" lon="-74.06317">
        <ele>2624.1</ele>
        <time>2020-08-30T12:49:59Z</time>
      </trkpt>
      <trkpt lat="4.62114" lon="-74.06322">
        <ele>2623.8</ele>
        <time>2020-08-30T12:50:01Z</time>
      </trkpt>
      <trkpt lat="4.62113" lon="-74.06325">
        <ele>2623.6</ele>
        <time>2020-08-30T12:50:02Z</time>
      </trkpt>
      <trkpt lat="4.62112" lon="-74.06328">
        <ele>2623.3</ele>
        <time>2020-08-30T12:50:04Z</time>
      </trkpt>
      <trkpt lat="4.6211" lon="-74.06331">
        <ele>2623.1</ele>
        <time>2020-08-30T12:50:05Z</time>
      </trkpt>
      <trkpt lat="4.62109" lon="-74.06332">
        <ele>2623</ele>
        <time>2020-08-30T12:50:06Z</time>
      </trkpt>
      <trkpt lat="4.62103" lon="-74.06332">
        <ele>2622.7</ele>
        <time>2020-08-30T12:50:07Z</time>
      </trkpt>
      <trkpt lat="4.62099" lon="-74.06334">
        <ele>2622.4</ele>
        <time>2020-08-30T12:50:09Z</time>
      </trkpt>
      <trkpt lat="4.62097" lon="-74.06336">
        <ele>2622.3</ele>
        <time>2020-08-30T12:50:10Z</time>
      </trkpt>
      <trkpt lat="4.62095" lon="-74.06338">
        <ele>2622.1</ele>
        <time>2020-08-30T12:50:12Z</time>
      </trkpt>
      <trkpt lat="4.62094" lon="-74.0634">
        <ele>2621.3</ele>
        <time>2020-08-30T12:50:13Z</time>
      </trkpt>
      <trkpt lat="4.62093" lon="-74.06343">
        <ele>2621</ele>
        <time>2020-08-30T12:50:15Z</time>
      </trkpt>
      <trkpt lat="4.62093" lon="-74.06347">
        <ele>2620.7</ele>
        <time>2020-08-30T12:50:17Z</time>
      </trkpt>
      <trkpt lat="4.62093" lon="-74.06349">
        <ele>2620.5</ele>
        <time>2020-08-30T12:50:18Z</time>
      </trkpt>
      <trkpt lat="4.62094" lon="-74.06353">
        <ele>2620.2</ele>
        <time>2020-08-30T12:50:20Z</time>
      </trkpt>
      <trkpt lat="4.62096" lon="-74.06357">
        <ele>2619.8</ele>
        <time>2020-08-30T12:50:22Z</time>
      </trkpt>
      <trkpt lat="4.62098" lon="-74.06361">
        <ele>2619.4</ele>
        <time>2020-08-30T12:50:24Z</time>
      </trkpt>
      <trkpt lat="4.62099" lon="-74.06363">
        <ele>2619.2</ele>
        <time>2020-08-30T12:50:25Z</time>
      </trkpt>
      <trkpt lat="4.62102" lon="-74.06366">
        <ele>2618.8</ele>
        <time>2020-08-30T12:50:27Z</time>
      </trkpt>
      <trkpt lat="4.62104" lon="-74.06368">
        <ele>2618.6</ele>
        <time>2020-08-30T12:50:28Z</time>
      </trkpt>
      <trkpt lat="4.62107" lon="-74.06372">
        <ele>2618.1</ele>
        <time>2020-08-30T12:50:30Z</time>
      </trkpt>
      <trkpt lat="4.62111" lon="-74.06376">
        <ele>2617.7</ele>
        <time>2020-08-30T12:50:32Z</time>
      </trkpt>
      <trkpt lat="4.62113" lon="-74.06378">
        <ele>2617.5</ele>
        <time>2020-08-30T12:50:33Z</time>
      </trkpt>
      <trkpt lat="4.62116" lon="-74.06382">
        <ele>2617</ele>
        <time>2020-08-30T12:50:35Z</time>
      </trkpt>
      <trkpt lat="4.62118" lon="-74.06385">
        <ele>2616.8</ele>
        <time>2020-08-30T12:50:36Z</time>
      </trkpt>
      <trkpt lat="4.62123" lon="-74.06391">
        <ele>2616.2</ele>
        <time>2020-08-30T12:50:38Z</time>
      </trkpt>
      <trkpt lat="4.62124" lon="-74.06393">
        <ele>2616.1</ele>
        <time>2020-08-30T12:50:39Z</time>
      </trkpt>
      <trkpt lat="4.62126" lon="-74.06397">
        <ele>2615.7</ele>
        <time>2020-08-30T12:50:41Z</time>
      </trkpt>
      <trkpt lat="4.62129" lon="-74.06402">
        <ele>2615.3</ele>
        <time>2020-08-30T12:50:43Z</time>
      </trkpt>
      <trkpt lat="4.6213" lon="-74.06403">
        <ele>2615.1</ele>
        <time>2020-08-30T12:50:44Z</time>
      </trkpt>
      <trkpt lat="4.62133" lon="-74.06407">
        <ele>2614.6</ele>
        <time>2020-08-30T12:50:46Z</time>
      </trkpt>
      <trkpt lat="4.62135" lon="-74.06411">
        <ele>2614.3</ele>
        <time>2020-08-30T12:50:48Z</time>
      </trkpt>
      <trkpt lat="4.62137" lon="-74.06413">
        <ele>2614.1</ele>
        <time>2020-08-30T12:50:49Z</time>
      </trkpt>
      <trkpt lat="4.62139" lon="-74.06417">
        <ele>2613.8</ele>
        <time>2020-08-30T12:50:51Z</time>
      </trkpt>
      <trkpt lat="4.62141" lon="-74.06421">
        <ele>2613.4</ele>
        <time>2020-08-30T12:50:53Z</time>
      </trkpt>
      <trkpt lat="4.62143" lon="-74.06425">
        <ele>2613</ele>
        <time>2020-08-30T12:50:55Z</time>
      </trkpt>
      <trkpt lat="4.62145" lon="-74.06428">
        <ele>2612.8</ele>
        <time>2020-08-30T12:50:56Z</time>
      </trkpt>
      <trkpt lat="4.62147" lon="-74.06432">
        <ele>2612.4</ele>
        <time>2020-08-30T12:50:58Z</time>
      </trkpt>
      <trkpt lat="4.62148" lon="-74.06435">
        <ele>2612</ele>
        <time>2020-08-30T12:51:00Z</time>
      </trkpt>
      <trkpt lat="4.6215" lon="-74.06437">
        <ele>2611.8</ele>
        <time>2020-08-30T12:51:01Z</time>
      </trkpt>
      <trkpt lat="4.62152" lon="-74.06442">
        <ele>2611.4</ele>
        <time>2020-08-30T12:51:03Z</time>
      </trkpt>
      <trkpt lat="4.62153" lon="-74.06445">
        <ele>2611</ele>
        <time>2020-08-30T12:51:04Z</time>
      </trkpt>
      <trkpt lat="4.62154" lon="-74.06446">
        <ele>2610.9</ele>
        <time>2020-08-30T12:51:05Z</time>
      </trkpt>
      <trkpt lat="4.62155" lon="-74.0645">
        <ele>2610.5</ele>
        <time>2020-08-30T12:51:07Z</time>
      </trkpt>
      <trkpt lat="4.62156" lon="-74.06454">
        <ele>2610.2</ele>
        <time>2020-08-30T12:51:08Z</time>
      </trkpt>
      <trkpt lat="4.62157" lon="-74.06455">
        <ele>2610.1</ele>
        <time>2020-08-30T12:51:09Z</time>
      </trkpt>
      <trkpt lat="4.62158" lon="-74.06457">
        <ele>2609.8</ele>
        <time>2020-08-30T12:51:10Z</time>
      </trkpt>
      <trkpt lat="4.62159" lon="-74.06462">
        <ele>2609.3</ele>
        <time>2020-08-30T12:51:12Z</time>
      </trkpt>
      <trkpt lat="4.6216" lon="-74.06466">
        <ele>2609.1</ele>
        <time>2020-08-30T12:51:13Z</time>
      </trkpt>
      <trkpt lat="4.6216" lon="-74.06467">
        <ele>2609.1</ele>
        <time>2020-08-30T12:51:14Z</time>
      </trkpt>
      <trkpt lat="4.6216" lon="-74.06471">
        <ele>2608.8</ele>
        <time>2020-08-30T12:51:16Z</time>
      </trkpt>
      <trkpt lat="4.62161" lon="-74.06473">
        <ele>2608.7</ele>
        <time>2020-08-30T12:51:17Z</time>
      </trkpt>
      <trkpt lat="4.62163" lon="-74.06475">
        <ele>2608.5</ele>
        <time>2020-08-30T12:51:19Z</time>
      </trkpt>
      <trkpt lat="4.62164" lon="-74.06479">
        <ele>2608.3</ele>
        <time>2020-08-30T12:51:21Z</time>
      </trkpt>
      <trkpt lat="4.62165" lon="-74.06482">
        <ele>2608</ele>
        <time>2020-08-30T12:51:23Z</time>
      </trkpt>
      <trkpt lat="4.62165" lon="-74.06485">
        <ele>2607.8</ele>
        <time>2020-08-30T12:51:24Z</time>
      </trkpt>
      <trkpt lat="4.62166" lon="-74.06487">
        <ele>2607.7</ele>
        <time>2020-08-30T12:51:25Z</time>
      </trkpt>
      <trkpt lat="4.62166" lon="-74.06492">
        <ele>2607.3</ele>
        <time>2020-08-30T12:51:27Z</time>
      </trkpt>
      <trkpt lat="4.62166" lon="-74.06495">
        <ele>2607</ele>
        <time>2020-08-30T12:51:28Z</time>
      </trkpt>
      <trkpt lat="4.62166" lon="-74.06498">
        <ele>2606.7</ele>
        <time>2020-08-30T12:51:29Z</time>
      </trkpt>
      <trkpt lat="4.62165" lon="-74.06502">
        <ele>2606.4</ele>
        <time>2020-08-30T12:51:31Z</time>
      </trkpt>
      <trkpt lat="4.62162" lon="-74.06511">
        <ele>2604.2</ele>
        <time>2020-08-30T12:51:33Z</time>
      </trkpt>
      <trkpt lat="4.6216" lon="-74.06513">
        <ele>2603.7</ele>
        <time>2020-08-30T12:51:34Z</time>
      </trkpt>
      <trkpt lat="4.62159" lon="-74.06516">
        <ele>2603.3</ele>
        <time>2020-08-30T12:51:35Z</time>
      </trkpt>
      <trkpt lat="4.62159" lon="-74.06521">
        <ele>2602.7</ele>
        <time>2020-08-30T12:51:37Z</time>
      </trkpt>
      <trkpt lat="4.62159" lon="-74.06523">
        <ele>2602.4</ele>
        <time>2020-08-30T12:51:38Z</time>
      </trkpt>
      <trkpt lat="4.6216" lon="-74.06526">
        <ele>2602</ele>
        <time>2020-08-30T12:51:40Z</time>
      </trkpt>
      <trkpt lat="4.62161" lon="-74.06527">
        <ele>2601.8</ele>
        <time>2020-08-30T12:51:41Z</time>
      </trkpt>
      <trkpt lat="4.62164" lon="-74.06528">
        <ele>2601.4</ele>
        <time>2020-08-30T12:51:43Z</time>
      </trkpt>
      <trkpt lat="4.62166" lon="-74.06527">
        <ele>2601.2</ele>
        <time>2020-08-30T12:51:44Z</time>
      </trkpt>
      <trkpt lat="4.62169" lon="-74.06526">
        <ele>2601.1</ele>
        <time>2020-08-30T12:51:46Z</time>
      </trkpt>
      <trkpt lat="4.62171" lon="-74.06525">
        <ele>2601.1</ele>
        <time>2020-08-30T12:51:47Z</time>
      </trkpt>
      <trkpt lat="4.62173" lon="-74.06522">
        <ele>2601</ele>
        <time>2020-08-30T12:51:49Z</time>
      </trkpt>
      <trkpt lat="4.62174" lon="-74.0652">
        <ele>2600.9</ele>
        <time>2020-08-30T12:51:50Z</time>
      </trkpt>
      <trkpt lat="4.62175" lon="-74.06518">
        <ele>2600.9</ele>
        <time>2020-08-30T12:51:52Z</time>
      </trkpt>
      <trkpt lat="4.62173" lon="-74.06515">
        <ele>2600.8</ele>
        <time>2020-08-30T12:51:54Z</time>
      </trkpt>
      <trkpt lat="4.62176" lon="-74.06514">
        <ele>2600.8</ele>
        <time>2020-08-30T12:51:56Z</time>
      </trkpt>
      <trkpt lat="4.62177" lon="-74.06514">
        <ele>2600.7</ele>
        <time>2020-08-30T12:51:57Z</time>
      </trkpt>
      <trkpt lat="4.6218" lon="-74.06514">
        <ele>2600.7</ele>
        <time>2020-08-30T12:51:59Z</time>
      </trkpt>
      <trkpt lat="4.62185" lon="-74.06514">
        <ele>2600.6</ele>
        <time>2020-08-30T12:52:00Z</time>
      </trkpt>
      <trkpt lat="4.62189" lon="-74.06513">
        <ele>2600.5</ele>
        <time>2020-08-30T12:52:02Z</time>
      </trkpt>
      <trkpt lat="4.6219" lon="-74.06513">
        <ele>2600.5</ele>
        <time>2020-08-30T12:52:03Z</time>
      </trkpt>
      <trkpt lat="4.62192" lon="-74.06513">
        <ele>2600.4</ele>
        <time>2020-08-30T12:52:04Z</time>
      </trkpt>
      <trkpt lat="4.62193" lon="-74.06512">
        <ele>2600.4</ele>
        <time>2020-08-30T12:52:05Z</time>
      </trkpt>
      <trkpt lat="4.62194" lon="-74.06511">
        <ele>2600.4</ele>
        <time>2020-08-30T12:52:06Z</time>
      </trkpt>
      <trkpt lat="4.622" lon="-74.06509">
        <ele>2600.2</ele>
        <time>2020-08-30T12:52:08Z</time>
      </trkpt>
      <trkpt lat="4.62204" lon="-74.06508">
        <ele>2600.1</ele>
        <time>2020-08-30T12:52:09Z</time>
      </trkpt>
      <trkpt lat="4.62211" lon="-74.06506">
        <ele>2600</ele>
        <time>2020-08-30T12:52:11Z</time>
      </trkpt>
      <trkpt lat="4.62213" lon="-74.06506">
        <ele>2600</ele>
        <time>2020-08-30T12:52:12Z</time>
      </trkpt>
      <trkpt lat="4.62215" lon="-74.06508">
        <ele>2599.9</ele>
        <time>2020-08-30T12:52:14Z</time>
      </trkpt>
      <trkpt lat="4.62218" lon="-74.06508">
        <ele>2599.9</ele>
        <time>2020-08-30T12:52:16Z</time>
      </trkpt>
      <trkpt lat="4.6222" lon="-74.06508">
        <ele>2599.8</ele>
        <time>2020-08-30T12:52:18Z</time>
      </trkpt>
      <trkpt lat="4.62231" lon="-74.06502">
        <ele>2599.6</ele>
        <time>2020-08-30T12:52:20Z</time>
      </trkpt>
      <trkpt lat="4.62235" lon="-74.065">
        <ele>2599.5</ele>
        <time>2020-08-30T12:52:21Z</time>
      </trkpt>
      <trkpt lat="4.62238" lon="-74.06499">
        <ele>2599.4</ele>
        <time>2020-08-30T12:52:22Z</time>
      </trkpt>
      <trkpt lat="4.62244" lon="-74.06497">
        <ele>2599.2</ele>
        <time>2020-08-30T12:52:24Z</time>
      </trkpt>
      <trkpt lat="4.62247" lon="-74.06497">
        <ele>2599.1</ele>
        <time>2020-08-30T12:52:26Z</time>
      </trkpt>
      <trkpt lat="4.62249" lon="-74.06499">
        <ele>2599.1</ele>
        <time>2020-08-30T12:52:28Z</time>
      </trkpt>
      <trkpt lat="4.62258" lon="-74.06504">
        <ele>2598.4</ele>
        <time>2020-08-30T12:52:30Z</time>
      </trkpt>
      <trkpt lat="4.62261" lon="-74.06508">
        <ele>2598.3</ele>
        <time>2020-08-30T12:52:32Z</time>
      </trkpt>
      <trkpt lat="4.62276" lon="-74.06515">
        <ele>2598</ele>
        <time>2020-08-30T12:52:34Z</time>
      </trkpt>
      <trkpt lat="4.62279" lon="-74.06521">
        <ele>2597.9</ele>
        <time>2020-08-30T12:52:36Z</time>
      </trkpt>
      <trkpt lat="4.62281" lon="-74.06525">
        <ele>2597.8</ele>
        <time>2020-08-30T12:52:38Z</time>
      </trkpt>
      <trkpt lat="4.62277" lon="-74.06521">
        <ele>2597.7</ele>
        <time>2020-08-30T12:52:39Z</time>
      </trkpt>
      <trkpt lat="4.62275" lon="-74.06517">
        <ele>2597.6</ele>
        <time>2020-08-30T12:52:41Z</time>
      </trkpt>
      <trkpt lat="4.62272" lon="-74.06514">
        <ele>2597.6</ele>
        <time>2020-08-30T12:52:42Z</time>
      </trkpt>
      <trkpt lat="4.62269" lon="-74.0651">
        <ele>2597.5</ele>
        <time>2020-08-30T12:52:44Z</time>
      </trkpt>
      <trkpt lat="4.6227" lon="-74.06512">
        <ele>2597.5</ele>
        <time>2020-08-30T12:52:45Z</time>
      </trkpt>
      <trkpt lat="4.62271" lon="-74.06515">
        <ele>2597.4</ele>
        <time>2020-08-30T12:52:47Z</time>
      </trkpt>
      <trkpt lat="4.62274" lon="-74.06521">
        <ele>2597.3</ele>
        <time>2020-08-30T12:52:49Z</time>
      </trkpt>
      <trkpt lat="4.62276" lon="-74.06526">
        <ele>2597.2</ele>
        <time>2020-08-30T12:52:50Z</time>
      </trkpt>
      <trkpt lat="4.62282" lon="-74.06539">
        <ele>2597</ele>
        <time>2020-08-30T12:52:52Z</time>
      </trkpt>
      <trkpt lat="4.62284" lon="-74.06544">
        <ele>2596.9</ele>
        <time>2020-08-30T12:52:53Z</time>
      </trkpt>
      <trkpt lat="4.62286" lon="-74.06548">
        <ele>2596.9</ele>
        <time>2020-08-30T12:52:54Z</time>
      </trkpt>
      <trkpt lat="4.62289" lon="-74.06554">
        <ele>2596.8</ele>
        <time>2020-08-30T12:52:56Z</time>
      </trkpt>
      <trkpt lat="4.62292" lon="-74.06558">
        <ele>2596.6</ele>
        <time>2020-08-30T12:52:58Z</time>
      </trkpt>
      <trkpt lat="4.62294" lon="-74.06563">
        <ele>2596.5</ele>
        <time>2020-08-30T12:53:00Z</time>
      </trkpt>
      <trkpt lat="4.62296" lon="-74.06565">
        <ele>2596.4</ele>
        <time>2020-08-30T12:53:01Z</time>
      </trkpt>
      <trkpt lat="4.62297" lon="-74.06568">
        <ele>2596.3</ele>
        <time>2020-08-30T12:53:02Z</time>
      </trkpt>
      <trkpt lat="4.62299" lon="-74.06574">
        <ele>2596.1</ele>
        <time>2020-08-30T12:53:04Z</time>
      </trkpt>
      <trkpt lat="4.62301" lon="-74.06577">
        <ele>2596</ele>
        <time>2020-08-30T12:53:05Z</time>
      </trkpt>
      <trkpt lat="4.62303" lon="-74.06583">
        <ele>2595.9</ele>
        <time>2020-08-30T12:53:07Z</time>
      </trkpt>
      <trkpt lat="4.62306" lon="-74.06588">
        <ele>2595.8</ele>
        <time>2020-08-30T12:53:09Z</time>
      </trkpt>
      <trkpt lat="4.62309" lon="-74.06593">
        <ele>2595.8</ele>
        <time>2020-08-30T12:53:11Z</time>
      </trkpt>
      <trkpt lat="4.62312" lon="-74.06597">
        <ele>2595.7</ele>
        <time>2020-08-30T12:53:13Z</time>
      </trkpt>
      <trkpt lat="4.62315" lon="-74.06602">
        <ele>2595.7</ele>
        <time>2020-08-30T12:53:15Z</time>
      </trkpt>
      <trkpt lat="4.62317" lon="-74.06604">
        <ele>2595.6</ele>
        <time>2020-08-30T12:53:16Z</time>
      </trkpt>
      <trkpt lat="4.62318" lon="-74.06607">
        <ele>2595.6</ele>
        <time>2020-08-30T12:53:17Z</time>
      </trkpt>
      <trkpt lat="4.62319" lon="-74.0661">
        <ele>2595.6</ele>
        <time>2020-08-30T12:53:18Z</time>
      </trkpt>
      <trkpt lat="4.6232" lon="-74.06612">
        <ele>2595.5</ele>
        <time>2020-08-30T12:53:19Z</time>
      </trkpt>
      <trkpt lat="4.62322" lon="-74.06617">
        <ele>2595.5</ele>
        <time>2020-08-30T12:53:21Z</time>
      </trkpt>
      <trkpt lat="4.62324" lon="-74.06619">
        <ele>2595.5</ele>
        <time>2020-08-30T12:53:22Z</time>
      </trkpt>
      <trkpt lat="4.62326" lon="-74.06623">
        <ele>2595.4</ele>
        <time>2020-08-30T12:53:24Z</time>
      </trkpt>
      <trkpt lat="4.62327" lon="-74.06626">
        <ele>2595.4</ele>
        <time>2020-08-30T12:53:26Z</time>
      </trkpt>
      <trkpt lat="4.62329" lon="-74.0663">
        <ele>2595.3</ele>
        <time>2020-08-30T12:53:28Z</time>
      </trkpt>
      <trkpt lat="4.62331" lon="-74.06633">
        <ele>2595.3</ele>
        <time>2020-08-30T12:53:30Z</time>
      </trkpt>
      <trkpt lat="4.62332" lon="-74.06635">
        <ele>2595.2</ele>
        <time>2020-08-30T12:53:31Z</time>
      </trkpt>
      <trkpt lat="4.62333" lon="-74.06638">
        <ele>2595.2</ele>
        <time>2020-08-30T12:53:33Z</time>
      </trkpt>
      <trkpt lat="4.62335" lon="-74.06641">
        <ele>2595.1</ele>
        <time>2020-08-30T12:53:34Z</time>
      </trkpt>
      <trkpt lat="4.62335" lon="-74.06642">
        <ele>2595.1</ele>
        <time>2020-08-30T12:53:35Z</time>
      </trkpt>
      <trkpt lat="4.62337" lon="-74.06646">
        <ele>2594.8</ele>
        <time>2020-08-30T12:53:37Z</time>
      </trkpt>
      <trkpt lat="4.62339" lon="-74.06649">
        <ele>2594.6</ele>
        <time>2020-08-30T12:53:39Z</time>
      </trkpt>
      <trkpt lat="4.62341" lon="-74.06652">
        <ele>2594.4</ele>
        <time>2020-08-30T12:53:41Z</time>
      </trkpt>
      <trkpt lat="4.62343" lon="-74.06655">
        <ele>2594.2</ele>
        <time>2020-08-30T12:53:43Z</time>
      </trkpt>
      <trkpt lat="4.62345" lon="-74.06658">
        <ele>2593.9</ele>
        <time>2020-08-30T12:53:45Z</time>
      </trkpt>
      <trkpt lat="4.62348" lon="-74.0666">
        <ele>2593.6</ele>
        <time>2020-08-30T12:53:46Z</time>
      </trkpt>
      <trkpt lat="4.62349" lon="-74.06661">
        <ele>2593.6</ele>
        <time>2020-08-30T12:53:47Z</time>
      </trkpt>
      <trkpt lat="4.62352" lon="-74.06663">
        <ele>2593.3</ele>
        <time>2020-08-30T12:53:49Z</time>
      </trkpt>
      <trkpt lat="4.62354" lon="-74.06664">
        <ele>2593.1</ele>
        <time>2020-08-30T12:53:50Z</time>
      </trkpt>
      <trkpt lat="4.62357" lon="-74.06666">
        <ele>2592.8</ele>
        <time>2020-08-30T12:53:52Z</time>
      </trkpt>
      <trkpt lat="4.6236" lon="-74.06669">
        <ele>2592.5</ele>
        <time>2020-08-30T12:53:54Z</time>
      </trkpt>
      <trkpt lat="4.62363" lon="-74.06673">
        <ele>2592.1</ele>
        <time>2020-08-30T12:53:56Z</time>
      </trkpt>
      <trkpt lat="4.62364" lon="-74.06677">
        <ele>2591.8</ele>
        <time>2020-08-30T12:53:58Z</time>
      </trkpt>
      <trkpt lat="4.62366" lon="-74.06681">
        <ele>2591.6</ele>
        <time>2020-08-30T12:54:00Z</time>
      </trkpt>
      <trkpt lat="4.62367" lon="-74.06686">
        <ele>2591.3</ele>
        <time>2020-08-30T12:54:02Z</time>
      </trkpt>
      <trkpt lat="4.62368" lon="-74.06691">
        <ele>2591</ele>
        <time>2020-08-30T12:54:04Z</time>
      </trkpt>
      <trkpt lat="4.62369" lon="-74.06695">
        <ele>2590.8</ele>
        <time>2020-08-30T12:54:05Z</time>
      </trkpt>
      <trkpt lat="4.62369" lon="-74.06696">
        <ele>2590.7</ele>
        <time>2020-08-30T12:54:06Z</time>
      </trkpt>
      <trkpt lat="4.62371" lon="-74.06701">
        <ele>2590.4</ele>
        <time>2020-08-30T12:54:08Z</time>
      </trkpt>
      <trkpt lat="4.62373" lon="-74.06705">
        <ele>2590.2</ele>
        <time>2020-08-30T12:54:10Z</time>
      </trkpt>
      <trkpt lat="4.62375" lon="-74.06708">
        <ele>2590.1</ele>
        <time>2020-08-30T12:54:11Z</time>
      </trkpt>
      <trkpt lat="4.62378" lon="-74.06712">
        <ele>2590</ele>
        <time>2020-08-30T12:54:13Z</time>
      </trkpt>
      <trkpt lat="4.62379" lon="-74.06714">
        <ele>2589.9</ele>
        <time>2020-08-30T12:54:14Z</time>
      </trkpt>
      <trkpt lat="4.62382" lon="-74.06718">
        <ele>2589.8</ele>
        <time>2020-08-30T12:54:16Z</time>
      </trkpt>
      <trkpt lat="4.62384" lon="-74.0672">
        <ele>2589.8</ele>
        <time>2020-08-30T12:54:17Z</time>
      </trkpt>
      <trkpt lat="4.62388" lon="-74.06724">
        <ele>2589.7</ele>
        <time>2020-08-30T12:54:19Z</time>
      </trkpt>
      <trkpt lat="4.6239" lon="-74.06726">
        <ele>2589.7</ele>
        <time>2020-08-30T12:54:20Z</time>
      </trkpt>
      <trkpt lat="4.62392" lon="-74.06729">
        <ele>2589.6</ele>
        <time>2020-08-30T12:54:22Z</time>
      </trkpt>
      <trkpt lat="4.62393" lon="-74.06732">
        <ele>2589.6</ele>
        <time>2020-08-30T12:54:23Z</time>
      </trkpt>
      <trkpt lat="4.62393" lon="-74.06735">
        <ele>2589.6</ele>
        <time>2020-08-30T12:54:24Z</time>
      </trkpt>
      <trkpt lat="4.62394" lon="-74.06739">
        <ele>2589.5</ele>
        <time>2020-08-30T12:54:26Z</time>
      </trkpt>
      <trkpt lat="4.62395" lon="-74.06742">
        <ele>2589.5</ele>
        <time>2020-08-30T12:54:27Z</time>
      </trkpt>
      <trkpt lat="4.62397" lon="-74.06746">
        <ele>2589.5</ele>
        <time>2020-08-30T12:54:29Z</time>
      </trkpt>
      <trkpt lat="4.62401" lon="-74.06751">
        <ele>2589.5</ele>
        <time>2020-08-30T12:54:32Z</time>
      </trkpt>
      <trkpt lat="4.62403" lon="-74.06753">
        <ele>2589.5</ele>
        <time>2020-08-30T12:54:33Z</time>
      </trkpt>
      <trkpt lat="4.62406" lon="-74.06756">
        <ele>2589.5</ele>
        <time>2020-08-30T12:54:35Z</time>
      </trkpt>
      <trkpt lat="4.6241" lon="-74.06759">
        <ele>2589.6</ele>
        <time>2020-08-30T12:54:37Z</time>
      </trkpt>
      <trkpt lat="4.62413" lon="-74.06761">
        <ele>2589.6</ele>
        <time>2020-08-30T12:54:38Z</time>
      </trkpt>
      <trkpt lat="4.62414" lon="-74.06762">
        <ele>2589.5</ele>
        <time>2020-08-30T12:54:39Z</time>
      </trkpt>
      <trkpt lat="4.62418" lon="-74.06763">
        <ele>2589.5</ele>
        <time>2020-08-30T12:54:41Z</time>
      </trkpt>
      <trkpt lat="4.62421" lon="-74.06763">
        <ele>2589.5</ele>
        <time>2020-08-30T12:54:42Z</time>
      </trkpt>
      <trkpt lat="4.62424" lon="-74.06763">
        <ele>2589.5</ele>
        <time>2020-08-30T12:54:44Z</time>
      </trkpt>
      <trkpt lat="4.62428" lon="-74.06762">
        <ele>2589.5</ele>
        <time>2020-08-30T12:54:46Z</time>
      </trkpt>
      <trkpt lat="4.62431" lon="-74.06762">
        <ele>2589.5</ele>
        <time>2020-08-30T12:54:48Z</time>
      </trkpt>
      <trkpt lat="4.62434" lon="-74.06764">
        <ele>2589.5</ele>
        <time>2020-08-30T12:54:50Z</time>
      </trkpt>
      <trkpt lat="4.62435" lon="-74.06765">
        <ele>2589.4</ele>
        <time>2020-08-30T12:54:51Z</time>
      </trkpt>
      <trkpt lat="4.62436" lon="-74.06766">
        <ele>2589.4</ele>
        <time>2020-08-30T12:54:52Z</time>
      </trkpt>
      <trkpt lat="4.62439" lon="-74.06769">
        <ele>2589.3</ele>
        <time>2020-08-30T12:54:54Z</time>
      </trkpt>
      <trkpt lat="4.62441" lon="-74.06771">
        <ele>2589.1</ele>
        <time>2020-08-30T12:54:55Z</time>
      </trkpt>
      <trkpt lat="4.62442" lon="-74.06772">
        <ele>2589.1</ele>
        <time>2020-08-30T12:54:56Z</time>
      </trkpt>
      <trkpt lat="4.62443" lon="-74.06774">
        <ele>2588.9</ele>
        <time>2020-08-30T12:54:57Z</time>
      </trkpt>
      <trkpt lat="4.62445" lon="-74.06779">
        <ele>2588.7</ele>
        <time>2020-08-30T12:54:59Z</time>
      </trkpt>
      <trkpt lat="4.62446" lon="-74.06782">
        <ele>2588.5</ele>
        <time>2020-08-30T12:55:00Z</time>
      </trkpt>
      <trkpt lat="4.62446" lon="-74.06787">
        <ele>2588.1</ele>
        <time>2020-08-30T12:55:02Z</time>
      </trkpt>
      <trkpt lat="4.62445" lon="-74.06791">
        <ele>2587.9</ele>
        <time>2020-08-30T12:55:03Z</time>
      </trkpt>
      <trkpt lat="4.62445" lon="-74.06795">
        <ele>2587.6</ele>
        <time>2020-08-30T12:55:04Z</time>
      </trkpt>
      <trkpt lat="4.62444" lon="-74.06799">
        <ele>2587.4</ele>
        <time>2020-08-30T12:55:05Z</time>
      </trkpt>
      <trkpt lat="4.62444" lon="-74.06802">
        <ele>2587.2</ele>
        <time>2020-08-30T12:55:06Z</time>
      </trkpt>
      <trkpt lat="4.62444" lon="-74.06808">
        <ele>2586.8</ele>
        <time>2020-08-30T12:55:08Z</time>
      </trkpt>
      <trkpt lat="4.62444" lon="-74.06814">
        <ele>2586.5</ele>
        <time>2020-08-30T12:55:10Z</time>
      </trkpt>
      <trkpt lat="4.62446" lon="-74.06818">
        <ele>2586.2</ele>
        <time>2020-08-30T12:55:11Z</time>
      </trkpt>
      <trkpt lat="4.62449" lon="-74.06824">
        <ele>2585.8</ele>
        <time>2020-08-30T12:55:13Z</time>
      </trkpt>
      <trkpt lat="4.62451" lon="-74.0683">
        <ele>2585.4</ele>
        <time>2020-08-30T12:55:15Z</time>
      </trkpt>
      <trkpt lat="4.62452" lon="-74.06833">
        <ele>2585.2</ele>
        <time>2020-08-30T12:55:16Z</time>
      </trkpt>
      <trkpt lat="4.62452" lon="-74.06839">
        <ele>2585</ele>
        <time>2020-08-30T12:55:18Z</time>
      </trkpt>
      <trkpt lat="4.62453" lon="-74.06844">
        <ele>2584.9</ele>
        <time>2020-08-30T12:55:20Z</time>
      </trkpt>
      <trkpt lat="4.62453" lon="-74.06847">
        <ele>2584.8</ele>
        <time>2020-08-30T12:55:21Z</time>
      </trkpt>
      <trkpt lat="4.62454" lon="-74.06852">
        <ele>2584.6</ele>
        <time>2020-08-30T12:55:23Z</time>
      </trkpt>
      <trkpt lat="4.62455" lon="-74.06858">
        <ele>2584.5</ele>
        <time>2020-08-30T12:55:25Z</time>
      </trkpt>
      <trkpt lat="4.62455" lon="-74.06864">
        <ele>2584.3</ele>
        <time>2020-08-30T12:55:27Z</time>
      </trkpt>
      <trkpt lat="4.62455" lon="-74.06868">
        <ele>2584.2</ele>
        <time>2020-08-30T12:55:28Z</time>
      </trkpt>
      <trkpt lat="4.62456" lon="-74.06875">
        <ele>2584</ele>
        <time>2020-08-30T12:55:30Z</time>
      </trkpt>
      <trkpt lat="4.62457" lon="-74.06881">
        <ele>2583.9</ele>
        <time>2020-08-30T12:55:32Z</time>
      </trkpt>
      <trkpt lat="4.62457" lon="-74.06884">
        <ele>2583.8</ele>
        <time>2020-08-30T12:55:33Z</time>
      </trkpt>
      <trkpt lat="4.62456" lon="-74.06889">
        <ele>2583.7</ele>
        <time>2020-08-30T12:55:35Z</time>
      </trkpt>
      <trkpt lat="4.62456" lon="-74.06894">
        <ele>2583.6</ele>
        <time>2020-08-30T12:55:37Z</time>
      </trkpt>
      <trkpt lat="4.62456" lon="-74.06896">
        <ele>2583.5</ele>
        <time>2020-08-30T12:55:38Z</time>
      </trkpt>
      <trkpt lat="4.62456" lon="-74.06901">
        <ele>2583.5</ele>
        <time>2020-08-30T12:55:40Z</time>
      </trkpt>
      <trkpt lat="4.62458" lon="-74.06904">
        <ele>2583.4</ele>
        <time>2020-08-30T12:55:42Z</time>
      </trkpt>
      <trkpt lat="4.62458" lon="-74.06905">
        <ele>2583.4</ele>
        <time>2020-08-30T12:55:43Z</time>
      </trkpt>
      <trkpt lat="4.62459" lon="-74.06906">
        <ele>2583.4</ele>
        <time>2020-08-30T12:55:44Z</time>
      </trkpt>
      <trkpt lat="4.62461" lon="-74.06907">
        <ele>2583.3</ele>
        <time>2020-08-30T12:55:46Z</time>
      </trkpt>
      <trkpt lat="4.62462" lon="-74.06911">
        <ele>2583.2</ele>
        <time>2020-08-30T12:55:48Z</time>
      </trkpt>
      <trkpt lat="4.62463" lon="-74.06915">
        <ele>2583.1</ele>
        <time>2020-08-30T12:55:50Z</time>
      </trkpt>
      <trkpt lat="4.62464" lon="-74.06918">
        <ele>2582.9</ele>
        <time>2020-08-30T12:55:51Z</time>
      </trkpt>
      <trkpt lat="4.62464" lon="-74.06919">
        <ele>2582.9</ele>
        <time>2020-08-30T12:55:52Z</time>
      </trkpt>
      <trkpt lat="4.62464" lon="-74.06922">
        <ele>2582.8</ele>
        <time>2020-08-30T12:55:54Z</time>
      </trkpt>
      <trkpt lat="4.62464" lon="-74.06923">
        <ele>2582.8</ele>
        <time>2020-08-30T12:55:55Z</time>
      </trkpt>
      <trkpt lat="4.62463" lon="-74.06923">
        <ele>2582.8</ele>
        <time>2020-08-30T12:55:56Z</time>
      </trkpt>
      <trkpt lat="4.62462" lon="-74.06923">
        <ele>2582.8</ele>
        <time>2020-08-30T12:55:58Z</time>
      </trkpt>
      <trkpt lat="4.62461" lon="-74.06924">
        <ele>2582.8</ele>
        <time>2020-08-30T12:56:00Z</time>
      </trkpt>
      <trkpt lat="4.62461" lon="-74.06924">
        <ele>2582.8</ele>
        <time>2020-08-30T12:56:01Z</time>
      </trkpt>
      <trkpt lat="4.6246" lon="-74.06925">
        <ele>2582.8</ele>
        <time>2020-08-30T12:56:03Z</time>
      </trkpt>
      <trkpt lat="4.62459" lon="-74.06925">
        <ele>2582.8</ele>
        <time>2020-08-30T12:56:05Z</time>
      </trkpt>
      <trkpt lat="4.62458" lon="-74.06925">
        <ele>2582.8</ele>
        <time>2020-08-30T12:56:06Z</time>
      </trkpt>
      <trkpt lat="4.62458" lon="-74.06926">
        <ele>2582.8</ele>
        <time>2020-08-30T12:56:07Z</time>
      </trkpt>
      <trkpt lat="4.62457" lon="-74.06926">
        <ele>2582.8</ele>
        <time>2020-08-30T12:56:14Z</time>
      </trkpt>
      <trkpt lat="4.62456" lon="-74.06926">
        <ele>2582.8</ele>
        <time>2020-08-30T12:56:15Z</time>
      </trkpt>
      <trkpt lat="4.62456" lon="-74.06929">
        <ele>2582.7</ele>
        <time>2020-08-30T12:56:16Z</time>
      </trkpt>
      <trkpt lat="4.62456" lon="-74.06933">
        <ele>2582.6</ele>
        <time>2020-08-30T12:56:18Z</time>
      </trkpt>
      <trkpt lat="4.62458" lon="-74.06938">
        <ele>2582.5</ele>
        <time>2020-08-30T12:56:20Z</time>
      </trkpt>
      <trkpt lat="4.6246" lon="-74.06944">
        <ele>2582.3</ele>
        <time>2020-08-30T12:56:22Z</time>
      </trkpt>
      <trkpt lat="4.6246" lon="-74.06947">
        <ele>2582.2</ele>
        <time>2020-08-30T12:56:23Z</time>
      </trkpt>
      <trkpt lat="4.6246" lon="-74.0695">
        <ele>2582.2</ele>
        <time>2020-08-30T12:56:24Z</time>
      </trkpt>
      <trkpt lat="4.62459" lon="-74.06956">
        <ele>2582</ele>
        <time>2020-08-30T12:56:26Z</time>
      </trkpt>
      <trkpt lat="4.62459" lon="-74.06962">
        <ele>2581.8</ele>
        <time>2020-08-30T12:56:28Z</time>
      </trkpt>
      <trkpt lat="4.62459" lon="-74.06965">
        <ele>2581.7</ele>
        <time>2020-08-30T12:56:29Z</time>
      </trkpt>
      <trkpt lat="4.62459" lon="-74.06968">
        <ele>2581.6</ele>
        <time>2020-08-30T12:56:30Z</time>
      </trkpt>
      <trkpt lat="4.62459" lon="-74.0697">
        <ele>2581.6</ele>
        <time>2020-08-30T12:56:31Z</time>
      </trkpt>
      <trkpt lat="4.62458" lon="-74.06973">
        <ele>2581.5</ele>
        <time>2020-08-30T12:56:32Z</time>
      </trkpt>
      <trkpt lat="4.62459" lon="-74.06979">
        <ele>2581.3</ele>
        <time>2020-08-30T12:56:34Z</time>
      </trkpt>
      <trkpt lat="4.6246" lon="-74.06982">
        <ele>2581.2</ele>
        <time>2020-08-30T12:56:35Z</time>
      </trkpt>
      <trkpt lat="4.62461" lon="-74.06985">
        <ele>2581.2</ele>
        <time>2020-08-30T12:56:36Z</time>
      </trkpt>
      <trkpt lat="4.62464" lon="-74.06991">
        <ele>2581</ele>
        <time>2020-08-30T12:56:38Z</time>
      </trkpt>
      <trkpt lat="4.62465" lon="-74.06994">
        <ele>2581</ele>
        <time>2020-08-30T12:56:39Z</time>
      </trkpt>
      <trkpt lat="4.62467" lon="-74.07">
        <ele>2580.9</ele>
        <time>2020-08-30T12:56:41Z</time>
      </trkpt>
      <trkpt lat="4.62468" lon="-74.07005">
        <ele>2580.8</ele>
        <time>2020-08-30T12:56:43Z</time>
      </trkpt>
      <trkpt lat="4.62468" lon="-74.07007">
        <ele>2580.7</ele>
        <time>2020-08-30T12:56:44Z</time>
      </trkpt>
      <trkpt lat="4.62468" lon="-74.07012">
        <ele>2580.7</ele>
        <time>2020-08-30T12:56:46Z</time>
      </trkpt>
      <trkpt lat="4.62468" lon="-74.07015">
        <ele>2580.6</ele>
        <time>2020-08-30T12:56:47Z</time>
      </trkpt>
      <trkpt lat="4.62468" lon="-74.07019">
        <ele>2580.5</ele>
        <time>2020-08-30T12:56:49Z</time>
      </trkpt>
      <trkpt lat="4.62469" lon="-74.07022">
        <ele>2580.5</ele>
        <time>2020-08-30T12:56:50Z</time>
      </trkpt>
      <trkpt lat="4.6247" lon="-74.07027">
        <ele>2580.4</ele>
        <time>2020-08-30T12:56:52Z</time>
      </trkpt>
      <trkpt lat="4.62471" lon="-74.07029">
        <ele>2580.3</ele>
        <time>2020-08-30T12:56:53Z</time>
      </trkpt>
      <trkpt lat="4.62472" lon="-74.07034">
        <ele>2580.2</ele>
        <time>2020-08-30T12:56:55Z</time>
      </trkpt>
      <trkpt lat="4.62473" lon="-74.07037">
        <ele>2580.1</ele>
        <time>2020-08-30T12:56:56Z</time>
      </trkpt>
      <trkpt lat="4.62474" lon="-74.07042">
        <ele>2579.9</ele>
        <time>2020-08-30T12:56:58Z</time>
      </trkpt>
      <trkpt lat="4.62475" lon="-74.07044">
        <ele>2579.8</ele>
        <time>2020-08-30T12:56:59Z</time>
      </trkpt>
      <trkpt lat="4.62476" lon="-74.0705">
        <ele>2579.7</ele>
        <time>2020-08-30T12:57:01Z</time>
      </trkpt>
      <trkpt lat="4.62477" lon="-74.07052">
        <ele>2579.6</ele>
        <time>2020-08-30T12:57:02Z</time>
      </trkpt>
      <trkpt lat="4.62481" lon="-74.07057">
        <ele>2579.4</ele>
        <time>2020-08-30T12:57:04Z</time>
      </trkpt>
      <trkpt lat="4.62482" lon="-74.07059">
        <ele>2579.4</ele>
        <time>2020-08-30T12:57:05Z</time>
      </trkpt>
      <trkpt lat="4.62485" lon="-74.07064">
        <ele>2579.2</ele>
        <time>2020-08-30T12:57:07Z</time>
      </trkpt>
      <trkpt lat="4.62486" lon="-74.07067">
        <ele>2579.2</ele>
        <time>2020-08-30T12:57:08Z</time>
      </trkpt>
      <trkpt lat="4.62487" lon="-74.0707">
        <ele>2579.1</ele>
        <time>2020-08-30T12:57:09Z</time>
      </trkpt>
      <trkpt lat="4.62488" lon="-74.07075">
        <ele>2579.1</ele>
        <time>2020-08-30T12:57:11Z</time>
      </trkpt>
      <trkpt lat="4.62489" lon="-74.0708">
        <ele>2579</ele>
        <time>2020-08-30T12:57:13Z</time>
      </trkpt>
      <trkpt lat="4.6249" lon="-74.07085">
        <ele>2579</ele>
        <time>2020-08-30T12:57:15Z</time>
      </trkpt>
      <trkpt lat="4.62491" lon="-74.07087">
        <ele>2578.9</ele>
        <time>2020-08-30T12:57:16Z</time>
      </trkpt>
      <trkpt lat="4.62492" lon="-74.07092">
        <ele>2578.8</ele>
        <time>2020-08-30T12:57:18Z</time>
      </trkpt>
      <trkpt lat="4.62492" lon="-74.07097">
        <ele>2578.7</ele>
        <time>2020-08-30T12:57:20Z</time>
      </trkpt>
      <trkpt lat="4.62493" lon="-74.07102">
        <ele>2578.7</ele>
        <time>2020-08-30T12:57:22Z</time>
      </trkpt>
      <trkpt lat="4.62495" lon="-74.07106">
        <ele>2578.6</ele>
        <time>2020-08-30T12:57:24Z</time>
      </trkpt>
      <trkpt lat="4.62496" lon="-74.07108">
        <ele>2578.6</ele>
        <time>2020-08-30T12:57:25Z</time>
      </trkpt>
      <trkpt lat="4.62497" lon="-74.07114">
        <ele>2578.5</ele>
        <time>2020-08-30T12:57:27Z</time>
      </trkpt>
      <trkpt lat="4.62498" lon="-74.07119">
        <ele>2578.5</ele>
        <time>2020-08-30T12:57:29Z</time>
      </trkpt>
      <trkpt lat="4.625" lon="-74.07124">
        <ele>2578.4</ele>
        <time>2020-08-30T12:57:31Z</time>
      </trkpt>
      <trkpt lat="4.62501" lon="-74.07129">
        <ele>2578.3</ele>
        <time>2020-08-30T12:57:33Z</time>
      </trkpt>
      <trkpt lat="4.62501" lon="-74.07133">
        <ele>2578.3</ele>
        <time>2020-08-30T12:57:35Z</time>
      </trkpt>
      <trkpt lat="4.62501" lon="-74.07139">
        <ele>2578.2</ele>
        <time>2020-08-30T12:57:37Z</time>
      </trkpt>
      <trkpt lat="4.62502" lon="-74.07144">
        <ele>2578.1</ele>
        <time>2020-08-30T12:57:39Z</time>
      </trkpt>
      <trkpt lat="4.62502" lon="-74.07148">
        <ele>2578</ele>
        <time>2020-08-30T12:57:40Z</time>
      </trkpt>
      <trkpt lat="4.62502" lon="-74.0715">
        <ele>2578</ele>
        <time>2020-08-30T12:57:41Z</time>
      </trkpt>
      <trkpt lat="4.62503" lon="-74.07155">
        <ele>2577.9</ele>
        <time>2020-08-30T12:57:43Z</time>
      </trkpt>
      <trkpt lat="4.62503" lon="-74.07158">
        <ele>2577.9</ele>
        <time>2020-08-30T12:57:44Z</time>
      </trkpt>
      <trkpt lat="4.62504" lon="-74.07164">
        <ele>2577.8</ele>
        <time>2020-08-30T12:57:46Z</time>
      </trkpt>
      <trkpt lat="4.62505" lon="-74.07168">
        <ele>2577.8</ele>
        <time>2020-08-30T12:57:47Z</time>
      </trkpt>
      <trkpt lat="4.62505" lon="-74.07169">
        <ele>2577.8</ele>
        <time>2020-08-30T12:57:48Z</time>
      </trkpt>
      <trkpt lat="4.62506" lon="-74.07171">
        <ele>2577.8</ele>
        <time>2020-08-30T12:57:49Z</time>
      </trkpt>
      <trkpt lat="4.62507" lon="-74.07176">
        <ele>2577.7</ele>
        <time>2020-08-30T12:57:51Z</time>
      </trkpt>
      <trkpt lat="4.62507" lon="-74.07179">
        <ele>2577.7</ele>
        <time>2020-08-30T12:57:52Z</time>
      </trkpt>
      <trkpt lat="4.62507" lon="-74.07181">
        <ele>2577.7</ele>
        <time>2020-08-30T12:57:53Z</time>
      </trkpt>
      <trkpt lat="4.62507" lon="-74.07187">
        <ele>2577.7</ele>
        <time>2020-08-30T12:57:55Z</time>
      </trkpt>
      <trkpt lat="4.62508" lon="-74.07192">
        <ele>2577.7</ele>
        <time>2020-08-30T12:57:57Z</time>
      </trkpt>
      <trkpt lat="4.62509" lon="-74.07194">
        <ele>2577.6</ele>
        <time>2020-08-30T12:57:58Z</time>
      </trkpt>
      <trkpt lat="4.6251" lon="-74.072">
        <ele>2577.5</ele>
        <time>2020-08-30T12:58:00Z</time>
      </trkpt>
      <trkpt lat="4.62511" lon="-74.07205">
        <ele>2577.4</ele>
        <time>2020-08-30T12:58:02Z</time>
      </trkpt>
      <trkpt lat="4.62512" lon="-74.0721">
        <ele>2577.4</ele>
        <time>2020-08-30T12:58:04Z</time>
      </trkpt>
      <trkpt lat="4.62513" lon="-74.07215">
        <ele>2577.3</ele>
        <time>2020-08-30T12:58:06Z</time>
      </trkpt>
      <trkpt lat="4.62513" lon="-74.07217">
        <ele>2577.2</ele>
        <time>2020-08-30T12:58:07Z</time>
      </trkpt>
      <trkpt lat="4.62513" lon="-74.07222">
        <ele>2577.2</ele>
        <time>2020-08-30T12:58:09Z</time>
      </trkpt>
      <trkpt lat="4.62512" lon="-74.07227">
        <ele>2577.1</ele>
        <time>2020-08-30T12:58:11Z</time>
      </trkpt>
      <trkpt lat="4.62512" lon="-74.0723">
        <ele>2577</ele>
        <time>2020-08-30T12:58:12Z</time>
      </trkpt>
      <trkpt lat="4.62513" lon="-74.07235">
        <ele>2576.9</ele>
        <time>2020-08-30T12:58:14Z</time>
      </trkpt>
      <trkpt lat="4.62514" lon="-74.0724">
        <ele>2576.7</ele>
        <time>2020-08-30T12:58:16Z</time>
      </trkpt>
      <trkpt lat="4.62514" lon="-74.07245">
        <ele>2576.6</ele>
        <time>2020-08-30T12:58:18Z</time>
      </trkpt>
      <trkpt lat="4.62514" lon="-74.07246">
        <ele>2576.5</ele>
        <time>2020-08-30T12:58:19Z</time>
      </trkpt>
      <trkpt lat="4.62515" lon="-74.0725">
        <ele>2576.4</ele>
        <time>2020-08-30T12:58:21Z</time>
      </trkpt>
      <trkpt lat="4.62516" lon="-74.07253">
        <ele>2576.3</ele>
        <time>2020-08-30T12:58:22Z</time>
      </trkpt>
      <trkpt lat="4.62516" lon="-74.07255">
        <ele>2576.3</ele>
        <time>2020-08-30T12:58:23Z</time>
      </trkpt>
      <trkpt lat="4.62517" lon="-74.07259">
        <ele>2576.2</ele>
        <time>2020-08-30T12:58:25Z</time>
      </trkpt>
      <trkpt lat="4.62518" lon="-74.07262">
        <ele>2576.1</ele>
        <time>2020-08-30T12:58:26Z</time>
      </trkpt>
      <trkpt lat="4.62519" lon="-74.07267">
        <ele>2576</ele>
        <time>2020-08-30T12:58:28Z</time>
      </trkpt>
      <trkpt lat="4.62521" lon="-74.07272">
        <ele>2575.9</ele>
        <time>2020-08-30T12:58:30Z</time>
      </trkpt>
      <trkpt lat="4.62522" lon="-74.07275">
        <ele>2575.8</ele>
        <time>2020-08-30T12:58:31Z</time>
      </trkpt>
      <trkpt lat="4.62523" lon="-74.07278">
        <ele>2575.8</ele>
        <time>2020-08-30T12:58:32Z</time>
      </trkpt>
      <trkpt lat="4.62524" lon="-74.07284">
        <ele>2575.7</ele>
        <time>2020-08-30T12:58:34Z</time>
      </trkpt>
      <trkpt lat="4.62524" lon="-74.07288">
        <ele>2575.6</ele>
        <time>2020-08-30T12:58:35Z</time>
      </trkpt>
      <trkpt lat="4.62526" lon="-74.07294">
        <ele>2575.5</ele>
        <time>2020-08-30T12:58:37Z</time>
      </trkpt>
      <trkpt lat="4.62527" lon="-74.07299">
        <ele>2575.4</ele>
        <time>2020-08-30T12:58:39Z</time>
      </trkpt>
      <trkpt lat="4.62528" lon="-74.07304">
        <ele>2575.3</ele>
        <time>2020-08-30T12:58:41Z</time>
      </trkpt>
      <trkpt lat="4.62529" lon="-74.0731">
        <ele>2575.2</ele>
        <time>2020-08-30T12:58:43Z</time>
      </trkpt>
      <trkpt lat="4.62529" lon="-74.07315">
        <ele>2575.1</ele>
        <time>2020-08-30T12:58:45Z</time>
      </trkpt>
      <trkpt lat="4.62529" lon="-74.0732">
        <ele>2575</ele>
        <time>2020-08-30T12:58:47Z</time>
      </trkpt>
      <trkpt lat="4.6253" lon="-74.07325">
        <ele>2574.9</ele>
        <time>2020-08-30T12:58:49Z</time>
      </trkpt>
      <trkpt lat="4.62531" lon="-74.0733">
        <ele>2574.8</ele>
        <time>2020-08-30T12:58:51Z</time>
      </trkpt>
      <trkpt lat="4.62533" lon="-74.07335">
        <ele>2574.8</ele>
        <time>2020-08-30T12:58:53Z</time>
      </trkpt>
      <trkpt lat="4.62534" lon="-74.07338">
        <ele>2574.7</ele>
        <time>2020-08-30T12:58:54Z</time>
      </trkpt>
      <trkpt lat="4.62535" lon="-74.0734">
        <ele>2574.7</ele>
        <time>2020-08-30T12:58:55Z</time>
      </trkpt>
      <trkpt lat="4.62536" lon="-74.07345">
        <ele>2574.7</ele>
        <time>2020-08-30T12:58:57Z</time>
      </trkpt>
      <trkpt lat="4.62537" lon="-74.0735">
        <ele>2574.7</ele>
        <time>2020-08-30T12:58:59Z</time>
      </trkpt>
      <trkpt lat="4.62537" lon="-74.07352">
        <ele>2574.7</ele>
        <time>2020-08-30T12:59:00Z</time>
      </trkpt>
      <trkpt lat="4.62538" lon="-74.07355">
        <ele>2574.7</ele>
        <time>2020-08-30T12:59:01Z</time>
      </trkpt>
      <trkpt lat="4.62538" lon="-74.07359">
        <ele>2574.6</ele>
        <time>2020-08-30T12:59:02Z</time>
      </trkpt>
      <trkpt lat="4.62538" lon="-74.07361">
        <ele>2574.6</ele>
        <time>2020-08-30T12:59:03Z</time>
      </trkpt>
      <trkpt lat="4.62538" lon="-74.07364">
        <ele>2574.6</ele>
        <time>2020-08-30T12:59:04Z</time>
      </trkpt>
      <trkpt lat="4.62538" lon="-74.07366">
        <ele>2574.6</ele>
        <time>2020-08-30T12:59:05Z</time>
      </trkpt>
      <trkpt lat="4.62538" lon="-74.07368">
        <ele>2574.6</ele>
        <time>2020-08-30T12:59:06Z</time>
      </trkpt>
      <trkpt lat="4.62539" lon="-74.07373">
        <ele>2574.6</ele>
        <time>2020-08-30T12:59:08Z</time>
      </trkpt>
      <trkpt lat="4.6254" lon="-74.07378">
        <ele>2574.6</ele>
        <time>2020-08-30T12:59:10Z</time>
      </trkpt>
      <trkpt lat="4.62542" lon="-74.07384">
        <ele>2574.7</ele>
        <time>2020-08-30T12:59:12Z</time>
      </trkpt>
      <trkpt lat="4.62546" lon="-74.07389">
        <ele>2574.7</ele>
        <time>2020-08-30T12:59:14Z</time>
      </trkpt>
      <trkpt lat="4.62548" lon="-74.07394">
        <ele>2574.7</ele>
        <time>2020-08-30T12:59:16Z</time>
      </trkpt>
      <trkpt lat="4.62549" lon="-74.07398">
        <ele>2574.7</ele>
        <time>2020-08-30T12:59:17Z</time>
      </trkpt>
      <trkpt lat="4.62549" lon="-74.07399">
        <ele>2574.7</ele>
        <time>2020-08-30T12:59:18Z</time>
      </trkpt>
      <trkpt lat="4.62549" lon="-74.07404">
        <ele>2574.8</ele>
        <time>2020-08-30T12:59:20Z</time>
      </trkpt>
      <trkpt lat="4.6255" lon="-74.07407">
        <ele>2574.8</ele>
        <time>2020-08-30T12:59:21Z</time>
      </trkpt>
      <trkpt lat="4.62551" lon="-74.07411">
        <ele>2574.8</ele>
        <time>2020-08-30T12:59:23Z</time>
      </trkpt>
      <trkpt lat="4.62552" lon="-74.07416">
        <ele>2574.8</ele>
        <time>2020-08-30T12:59:25Z</time>
      </trkpt>
      <trkpt lat="4.62553" lon="-74.07419">
        <ele>2574.8</ele>
        <time>2020-08-30T12:59:26Z</time>
      </trkpt>
      <trkpt lat="4.62553" lon="-74.0742">
        <ele>2574.8</ele>
        <time>2020-08-30T12:59:27Z</time>
      </trkpt>
      <trkpt lat="4.62553" lon="-74.07422">
        <ele>2574.8</ele>
        <time>2020-08-30T12:59:28Z</time>
      </trkpt>
      <trkpt lat="4.62556" lon="-74.07426">
        <ele>2574.8</ele>
        <time>2020-08-30T12:59:30Z</time>
      </trkpt>
      <trkpt lat="4.62559" lon="-74.07429">
        <ele>2574.8</ele>
        <time>2020-08-30T12:59:32Z</time>
      </trkpt>
      <trkpt lat="4.62562" lon="-74.07432">
        <ele>2574.8</ele>
        <time>2020-08-30T12:59:34Z</time>
      </trkpt>
      <trkpt lat="4.62565" lon="-74.07435">
        <ele>2574.8</ele>
        <time>2020-08-30T12:59:35Z</time>
      </trkpt>
      <trkpt lat="4.62566" lon="-74.07435">
        <ele>2574.8</ele>
        <time>2020-08-30T12:59:36Z</time>
      </trkpt>
      <trkpt lat="4.62569" lon="-74.07438">
        <ele>2574.8</ele>
        <time>2020-08-30T12:59:38Z</time>
      </trkpt>
      <trkpt lat="4.62571" lon="-74.07438">
        <ele>2574.8</ele>
        <time>2020-08-30T12:59:39Z</time>
      </trkpt>
      <trkpt lat="4.62574" lon="-74.07441">
        <ele>2574.8</ele>
        <time>2020-08-30T12:59:41Z</time>
      </trkpt>
      <trkpt lat="4.62576" lon="-74.07442">
        <ele>2574.8</ele>
        <time>2020-08-30T12:59:42Z</time>
      </trkpt>
      <trkpt lat="4.62579" lon="-74.07445">
        <ele>2574.8</ele>
        <time>2020-08-30T12:59:44Z</time>
      </trkpt>
      <trkpt lat="4.62581" lon="-74.07448">
        <ele>2574.8</ele>
        <time>2020-08-30T12:59:45Z</time>
      </trkpt>
      <trkpt lat="4.62582" lon="-74.07449">
        <ele>2574.8</ele>
        <time>2020-08-30T12:59:46Z</time>
      </trkpt>
      <trkpt lat="4.62584" lon="-74.07451">
        <ele>2574.8</ele>
        <time>2020-08-30T12:59:48Z</time>
      </trkpt>
      <trkpt lat="4.62588" lon="-74.07453">
        <ele>2574.8</ele>
        <time>2020-08-30T12:59:50Z</time>
      </trkpt>
      <trkpt lat="4.62591" lon="-74.07456">
        <ele>2574.8</ele>
        <time>2020-08-30T12:59:52Z</time>
      </trkpt>
      <trkpt lat="4.62595" lon="-74.07459">
        <ele>2574.7</ele>
        <time>2020-08-30T12:59:54Z</time>
      </trkpt>
      <trkpt lat="4.62599" lon="-74.07461">
        <ele>2574.7</ele>
        <time>2020-08-30T12:59:56Z</time>
      </trkpt>
      <trkpt lat="4.62603" lon="-74.07463">
        <ele>2574.7</ele>
        <time>2020-08-30T12:59:58Z</time>
      </trkpt>
      <trkpt lat="4.62605" lon="-74.07464">
        <ele>2574.7</ele>
        <time>2020-08-30T12:59:59Z</time>
      </trkpt>
      <trkpt lat="4.62609" lon="-74.07467">
        <ele>2574.7</ele>
        <time>2020-08-30T13:00:01Z</time>
      </trkpt>
      <trkpt lat="4.62612" lon="-74.07468">
        <ele>2574.7</ele>
        <time>2020-08-30T13:00:02Z</time>
      </trkpt>
      <trkpt lat="4.62613" lon="-74.07468">
        <ele>2574.7</ele>
        <time>2020-08-30T13:00:03Z</time>
      </trkpt>
      <trkpt lat="4.62617" lon="-74.07471">
        <ele>2574.7</ele>
        <time>2020-08-30T13:00:05Z</time>
      </trkpt>
      <trkpt lat="4.62622" lon="-74.07474">
        <ele>2574.6</ele>
        <time>2020-08-30T13:00:07Z</time>
      </trkpt>
      <trkpt lat="4.62626" lon="-74.07477">
        <ele>2574.6</ele>
        <time>2020-08-30T13:00:09Z</time>
      </trkpt>
      <trkpt lat="4.62628" lon="-74.07479">
        <ele>2574.5</ele>
        <time>2020-08-30T13:00:10Z</time>
      </trkpt>
      <trkpt lat="4.62632" lon="-74.07482">
        <ele>2574.4</ele>
        <time>2020-08-30T13:00:12Z</time>
      </trkpt>
      <trkpt lat="4.62636" lon="-74.07485">
        <ele>2574.4</ele>
        <time>2020-08-30T13:00:14Z</time>
      </trkpt>
      <trkpt lat="4.6264" lon="-74.07486">
        <ele>2574.4</ele>
        <time>2020-08-30T13:00:15Z</time>
      </trkpt>
      <trkpt lat="4.62641" lon="-74.07486">
        <ele>2574.4</ele>
        <time>2020-08-30T13:00:16Z</time>
      </trkpt>
      <trkpt lat="4.62646" lon="-74.07488">
        <ele>2574.4</ele>
        <time>2020-08-30T13:00:18Z</time>
      </trkpt>
      <trkpt lat="4.62651" lon="-74.0749">
        <ele>2574.3</ele>
        <time>2020-08-30T13:00:20Z</time>
      </trkpt>
      <trkpt lat="4.62654" lon="-74.07491">
        <ele>2574.3</ele>
        <time>2020-08-30T13:00:21Z</time>
      </trkpt>
      <trkpt lat="4.62656" lon="-74.07492">
        <ele>2574.2</ele>
        <time>2020-08-30T13:00:22Z</time>
      </trkpt>
      <trkpt lat="4.62661" lon="-74.07493">
        <ele>2574.1</ele>
        <time>2020-08-30T13:00:24Z</time>
      </trkpt>
      <trkpt lat="4.62667" lon="-74.07495">
        <ele>2574</ele>
        <time>2020-08-30T13:00:26Z</time>
      </trkpt>
      <trkpt lat="4.62671" lon="-74.07497">
        <ele>2573.8</ele>
        <time>2020-08-30T13:00:28Z</time>
      </trkpt>
      <trkpt lat="4.62674" lon="-74.07498">
        <ele>2573.8</ele>
        <time>2020-08-30T13:00:29Z</time>
      </trkpt>
      <trkpt lat="4.62678" lon="-74.07499">
        <ele>2573.7</ele>
        <time>2020-08-30T13:00:31Z</time>
      </trkpt>
      <trkpt lat="4.62682" lon="-74.07498">
        <ele>2573.6</ele>
        <time>2020-08-30T13:00:32Z</time>
      </trkpt>
      <trkpt lat="4.62683" lon="-74.07498">
        <ele>2573.6</ele>
        <time>2020-08-30T13:00:33Z</time>
      </trkpt>
      <trkpt lat="4.62688" lon="-74.07498">
        <ele>2573.5</ele>
        <time>2020-08-30T13:00:35Z</time>
      </trkpt>
      <trkpt lat="4.6269" lon="-74.07499">
        <ele>2573.5</ele>
        <time>2020-08-30T13:00:36Z</time>
      </trkpt>
      <trkpt lat="4.62695" lon="-74.075">
        <ele>2573.4</ele>
        <time>2020-08-30T13:00:38Z</time>
      </trkpt>
      <trkpt lat="4.62701" lon="-74.075">
        <ele>2573.3</ele>
        <time>2020-08-30T13:00:40Z</time>
      </trkpt>
      <trkpt lat="4.62706" lon="-74.07501">
        <ele>2573.1</ele>
        <time>2020-08-30T13:00:42Z</time>
      </trkpt>
      <trkpt lat="4.62712" lon="-74.07503">
        <ele>2573</ele>
        <time>2020-08-30T13:00:44Z</time>
      </trkpt>
      <trkpt lat="4.62718" lon="-74.07505">
        <ele>2572.9</ele>
        <time>2020-08-30T13:00:46Z</time>
      </trkpt>
      <trkpt lat="4.6272" lon="-74.07505">
        <ele>2572.8</ele>
        <time>2020-08-30T13:00:47Z</time>
      </trkpt>
      <trkpt lat="4.62725" lon="-74.07505">
        <ele>2572.7</ele>
        <time>2020-08-30T13:00:49Z</time>
      </trkpt>
      <trkpt lat="4.6273" lon="-74.07505">
        <ele>2572.6</ele>
        <time>2020-08-30T13:00:51Z</time>
      </trkpt>
      <trkpt lat="4.62735" lon="-74.07505">
        <ele>2572.5</ele>
        <time>2020-08-30T13:00:53Z</time>
      </trkpt>
      <trkpt lat="4.62741" lon="-74.07504">
        <ele>2572.5</ele>
        <time>2020-08-30T13:00:55Z</time>
      </trkpt>
      <trkpt lat="4.62746" lon="-74.07504">
        <ele>2572.4</ele>
        <time>2020-08-30T13:00:57Z</time>
      </trkpt>
      <trkpt lat="4.62751" lon="-74.07503">
        <ele>2572.3</ele>
        <time>2020-08-30T13:00:59Z</time>
      </trkpt>
      <trkpt lat="4.62756" lon="-74.07503">
        <ele>2572.2</ele>
        <time>2020-08-30T13:01:01Z</time>
      </trkpt>
      <trkpt lat="4.6276" lon="-74.07503">
        <ele>2572.2</ele>
        <time>2020-08-30T13:01:03Z</time>
      </trkpt>
      <trkpt lat="4.62762" lon="-74.07503">
        <ele>2572.2</ele>
        <time>2020-08-30T13:01:04Z</time>
      </trkpt>
      <trkpt lat="4.62767" lon="-74.07503">
        <ele>2572.1</ele>
        <time>2020-08-30T13:01:06Z</time>
      </trkpt>
      <trkpt lat="4.62769" lon="-74.07503">
        <ele>2572.1</ele>
        <time>2020-08-30T13:01:07Z</time>
      </trkpt>
      <trkpt lat="4.62774" lon="-74.07504">
        <ele>2572</ele>
        <time>2020-08-30T13:01:09Z</time>
      </trkpt>
      <trkpt lat="4.6278" lon="-74.07505">
        <ele>2572</ele>
        <time>2020-08-30T13:01:11Z</time>
      </trkpt>
      <trkpt lat="4.62785" lon="-74.07506">
        <ele>2571.9</ele>
        <time>2020-08-30T13:01:13Z</time>
      </trkpt>
      <trkpt lat="4.62789" lon="-74.07507">
        <ele>2571.9</ele>
        <time>2020-08-30T13:01:14Z</time>
      </trkpt>
      <trkpt lat="4.6279" lon="-74.07507">
        <ele>2571.9</ele>
        <time>2020-08-30T13:01:15Z</time>
      </trkpt>
      <trkpt lat="4.62794" lon="-74.07508">
        <ele>2571.8</ele>
        <time>2020-08-30T13:01:17Z</time>
      </trkpt>
      <trkpt lat="4.62797" lon="-74.07508">
        <ele>2571.8</ele>
        <time>2020-08-30T13:01:18Z</time>
      </trkpt>
      <trkpt lat="4.62801" lon="-74.0751">
        <ele>2571.8</ele>
        <time>2020-08-30T13:01:20Z</time>
      </trkpt>
      <trkpt lat="4.62804" lon="-74.07511">
        <ele>2571.7</ele>
        <time>2020-08-30T13:01:21Z</time>
      </trkpt>
      <trkpt lat="4.62809" lon="-74.07512">
        <ele>2571.6</ele>
        <time>2020-08-30T13:01:23Z</time>
      </trkpt>
      <trkpt lat="4.62812" lon="-74.07513">
        <ele>2571.6</ele>
        <time>2020-08-30T13:01:24Z</time>
      </trkpt>
      <trkpt lat="4.62816" lon="-74.07515">
        <ele>2571.5</ele>
        <time>2020-08-30T13:01:26Z</time>
      </trkpt>
      <trkpt lat="4.62819" lon="-74.07515">
        <ele>2571.5</ele>
        <time>2020-08-30T13:01:27Z</time>
      </trkpt>
      <trkpt lat="4.62823" lon="-74.07515">
        <ele>2571.4</ele>
        <time>2020-08-30T13:01:29Z</time>
      </trkpt>
      <trkpt lat="4.62825" lon="-74.07515">
        <ele>2571.3</ele>
        <time>2020-08-30T13:01:30Z</time>
      </trkpt>
      <trkpt lat="4.62829" lon="-74.07514">
        <ele>2571.3</ele>
        <time>2020-08-30T13:01:32Z</time>
      </trkpt>
      <trkpt lat="4.62834" lon="-74.07513">
        <ele>2571.2</ele>
        <time>2020-08-30T13:01:34Z</time>
      </trkpt>
      <trkpt lat="4.62837" lon="-74.07512">
        <ele>2571.1</ele>
        <time>2020-08-30T13:01:36Z</time>
      </trkpt>
      <trkpt lat="4.62839" lon="-74.07512">
        <ele>2571.1</ele>
        <time>2020-08-30T13:01:37Z</time>
      </trkpt>
      <trkpt lat="4.62842" lon="-74.07511">
        <ele>2571.1</ele>
        <time>2020-08-30T13:01:39Z</time>
      </trkpt>
      <trkpt lat="4.62843" lon="-74.07511">
        <ele>2571.1</ele>
        <time>2020-08-30T13:01:40Z</time>
      </trkpt>
      <trkpt lat="4.62845" lon="-74.0751">
        <ele>2571</ele>
        <time>2020-08-30T13:01:42Z</time>
      </trkpt>
      <trkpt lat="4.62847" lon="-74.0751">
        <ele>2571</ele>
        <time>2020-08-30T13:01:44Z</time>
      </trkpt>
      <trkpt lat="4.62848" lon="-74.07509">
        <ele>2571</ele>
        <time>2020-08-30T13:01:45Z</time>
      </trkpt>
      <trkpt lat="4.62849" lon="-74.07509">
        <ele>2570.9</ele>
        <time>2020-08-30T13:01:46Z</time>
      </trkpt>
      <trkpt lat="4.62852" lon="-74.07508">
        <ele>2570.9</ele>
        <time>2020-08-30T13:01:48Z</time>
      </trkpt>
      <trkpt lat="4.62855" lon="-74.07506">
        <ele>2570.8</ele>
        <time>2020-08-30T13:01:50Z</time>
      </trkpt>
      <trkpt lat="4.62856" lon="-74.07505">
        <ele>2570.8</ele>
        <time>2020-08-30T13:01:51Z</time>
      </trkpt>
      <trkpt lat="4.6286" lon="-74.07503">
        <ele>2570.8</ele>
        <time>2020-08-30T13:01:53Z</time>
      </trkpt>
      <trkpt lat="4.62864" lon="-74.07501">
        <ele>2570.7</ele>
        <time>2020-08-30T13:01:55Z</time>
      </trkpt>
      <trkpt lat="4.62865" lon="-74.075">
        <ele>2570.7</ele>
        <time>2020-08-30T13:01:56Z</time>
      </trkpt>
      <trkpt lat="4.62867" lon="-74.07499">
        <ele>2570.7</ele>
        <time>2020-08-30T13:01:58Z</time>
      </trkpt>
      <trkpt lat="4.6287" lon="-74.07498">
        <ele>2570.6</ele>
        <time>2020-08-30T13:01:59Z</time>
      </trkpt>
      <trkpt lat="4.62874" lon="-74.07498">
        <ele>2570.6</ele>
        <time>2020-08-30T13:02:01Z</time>
      </trkpt>
      <trkpt lat="4.62876" lon="-74.07498">
        <ele>2570.6</ele>
        <time>2020-08-30T13:02:02Z</time>
      </trkpt>
      <trkpt lat="4.62879" lon="-74.07498">
        <ele>2570.5</ele>
        <time>2020-08-30T13:02:04Z</time>
      </trkpt>
      <trkpt lat="4.62885" lon="-74.07497">
        <ele>2570.5</ele>
        <time>2020-08-30T13:02:06Z</time>
      </trkpt>
      <trkpt lat="4.62889" lon="-74.07495">
        <ele>2570.5</ele>
        <time>2020-08-30T13:02:08Z</time>
      </trkpt>
      <trkpt lat="4.62892" lon="-74.07495">
        <ele>2570.4</ele>
        <time>2020-08-30T13:02:09Z</time>
      </trkpt>
      <trkpt lat="4.62893" lon="-74.07495">
        <ele>2570.4</ele>
        <time>2020-08-30T13:02:10Z</time>
      </trkpt>
      <trkpt lat="4.62897" lon="-74.07494">
        <ele>2570.4</ele>
        <time>2020-08-30T13:02:12Z</time>
      </trkpt>
      <trkpt lat="4.62899" lon="-74.07494">
        <ele>2570.4</ele>
        <time>2020-08-30T13:02:13Z</time>
      </trkpt>
      <trkpt lat="4.62905" lon="-74.07495">
        <ele>2570.4</ele>
        <time>2020-08-30T13:02:15Z</time>
      </trkpt>
      <trkpt lat="4.62909" lon="-74.07494">
        <ele>2570.3</ele>
        <time>2020-08-30T13:02:17Z</time>
      </trkpt>
      <trkpt lat="4.62911" lon="-74.07494">
        <ele>2570.3</ele>
        <time>2020-08-30T13:02:18Z</time>
      </trkpt>
      <trkpt lat="4.62914" lon="-74.07493">
        <ele>2570.3</ele>
        <time>2020-08-30T13:02:20Z</time>
      </trkpt>
      <trkpt lat="4.62918" lon="-74.07493">
        <ele>2570.2</ele>
        <time>2020-08-30T13:02:22Z</time>
      </trkpt>
      <trkpt lat="4.6292" lon="-74.07493">
        <ele>2570.1</ele>
        <time>2020-08-30T13:02:23Z</time>
      </trkpt>
      <trkpt lat="4.62926" lon="-74.07492">
        <ele>2570</ele>
        <time>2020-08-30T13:02:25Z</time>
      </trkpt>
      <trkpt lat="4.62928" lon="-74.07492">
        <ele>2570</ele>
        <time>2020-08-30T13:02:26Z</time>
      </trkpt>
      <trkpt lat="4.62932" lon="-74.07492">
        <ele>2569.9</ele>
        <time>2020-08-30T13:02:28Z</time>
      </trkpt>
      <trkpt lat="4.62934" lon="-74.07492">
        <ele>2569.8</ele>
        <time>2020-08-30T13:02:29Z</time>
      </trkpt>
      <trkpt lat="4.62938" lon="-74.07492">
        <ele>2569.7</ele>
        <time>2020-08-30T13:02:31Z</time>
      </trkpt>
      <trkpt lat="4.6294" lon="-74.07492">
        <ele>2569.7</ele>
        <time>2020-08-30T13:02:32Z</time>
      </trkpt>
      <trkpt lat="4.62945" lon="-74.07492">
        <ele>2569.6</ele>
        <time>2020-08-30T13:02:34Z</time>
      </trkpt>
      <trkpt lat="4.62949" lon="-74.07493">
        <ele>2569.5</ele>
        <time>2020-08-30T13:02:35Z</time>
      </trkpt>
      <trkpt lat="4.62953" lon="-74.07492">
        <ele>2569.5</ele>
        <time>2020-08-30T13:02:37Z</time>
      </trkpt>
      <trkpt lat="4.62955" lon="-74.07492">
        <ele>2569.5</ele>
        <time>2020-08-30T13:02:38Z</time>
      </trkpt>
      <trkpt lat="4.62959" lon="-74.07491">
        <ele>2569.5</ele>
        <time>2020-08-30T13:02:40Z</time>
      </trkpt>
      <trkpt lat="4.62962" lon="-74.0749">
        <ele>2569.5</ele>
        <time>2020-08-30T13:02:41Z</time>
      </trkpt>
      <trkpt lat="4.62963" lon="-74.0749">
        <ele>2569.5</ele>
        <time>2020-08-30T13:02:42Z</time>
      </trkpt>
      <trkpt lat="4.62965" lon="-74.07489">
        <ele>2569.4</ele>
        <time>2020-08-30T13:02:43Z</time>
      </trkpt>
      <trkpt lat="4.62971" lon="-74.07488">
        <ele>2569.4</ele>
        <time>2020-08-30T13:02:45Z</time>
      </trkpt>
      <trkpt lat="4.62973" lon="-74.07487">
        <ele>2569.4</ele>
        <time>2020-08-30T13:02:46Z</time>
      </trkpt>
      <trkpt lat="4.62977" lon="-74.07485">
        <ele>2569.3</ele>
        <time>2020-08-30T13:02:48Z</time>
      </trkpt>
      <trkpt lat="4.62982" lon="-74.07484">
        <ele>2569.3</ele>
        <time>2020-08-30T13:02:50Z</time>
      </trkpt>
      <trkpt lat="4.62986" lon="-74.07484">
        <ele>2569.2</ele>
        <time>2020-08-30T13:02:51Z</time>
      </trkpt>
      <trkpt lat="4.62987" lon="-74.07484">
        <ele>2569.2</ele>
        <time>2020-08-30T13:02:52Z</time>
      </trkpt>
      <trkpt lat="4.62989" lon="-74.07484">
        <ele>2569.2</ele>
        <time>2020-08-30T13:02:53Z</time>
      </trkpt>
      <trkpt lat="4.62995" lon="-74.07485">
        <ele>2569.1</ele>
        <time>2020-08-30T13:02:55Z</time>
      </trkpt>
      <trkpt lat="4.62999" lon="-74.07485">
        <ele>2569.1</ele>
        <time>2020-08-30T13:02:57Z</time>
      </trkpt>
      <trkpt lat="4.63002" lon="-74.07487">
        <ele>2569</ele>
        <time>2020-08-30T13:02:59Z</time>
      </trkpt>
      <trkpt lat="4.63006" lon="-74.07488">
        <ele>2569</ele>
        <time>2020-08-30T13:03:00Z</time>
      </trkpt>
      <trkpt lat="4.6301" lon="-74.07489">
        <ele>2569</ele>
        <time>2020-08-30T13:03:02Z</time>
      </trkpt>
      <trkpt lat="4.63015" lon="-74.07489">
        <ele>2568.9</ele>
        <time>2020-08-30T13:03:04Z</time>
      </trkpt>
      <trkpt lat="4.63016" lon="-74.07489">
        <ele>2568.9</ele>
        <time>2020-08-30T13:03:05Z</time>
      </trkpt>
      <trkpt lat="4.6302" lon="-74.07488">
        <ele>2568.8</ele>
        <time>2020-08-30T13:03:07Z</time>
      </trkpt>
      <trkpt lat="4.63023" lon="-74.07488">
        <ele>2568.8</ele>
        <time>2020-08-30T13:03:09Z</time>
      </trkpt>
      <trkpt lat="4.63025" lon="-74.07488">
        <ele>2568.7</ele>
        <time>2020-08-30T13:03:10Z</time>
      </trkpt>
      <trkpt lat="4.6303" lon="-74.07488">
        <ele>2568.7</ele>
        <time>2020-08-30T13:03:12Z</time>
      </trkpt>
      <trkpt lat="4.63033" lon="-74.07488">
        <ele>2568.6</ele>
        <time>2020-08-30T13:03:13Z</time>
      </trkpt>
      <trkpt lat="4.63038" lon="-74.07488">
        <ele>2568.6</ele>
        <time>2020-08-30T13:03:15Z</time>
      </trkpt>
      <trkpt lat="4.63043" lon="-74.07488">
        <ele>2568.5</ele>
        <time>2020-08-30T13:03:16Z</time>
      </trkpt>
      <trkpt lat="4.63047" lon="-74.07488">
        <ele>2568.5</ele>
        <time>2020-08-30T13:03:18Z</time>
      </trkpt>
      <trkpt lat="4.63049" lon="-74.07487">
        <ele>2568.5</ele>
        <time>2020-08-30T13:03:19Z</time>
      </trkpt>
      <trkpt lat="4.63053" lon="-74.07486">
        <ele>2568.5</ele>
        <time>2020-08-30T13:03:21Z</time>
      </trkpt>
      <trkpt lat="4.63057" lon="-74.07486">
        <ele>2568.5</ele>
        <time>2020-08-30T13:03:23Z</time>
      </trkpt>
      <trkpt lat="4.63061" lon="-74.07485">
        <ele>2568.4</ele>
        <time>2020-08-30T13:03:25Z</time>
      </trkpt>
      <trkpt lat="4.63068" lon="-74.07485">
        <ele>2568.3</ele>
        <time>2020-08-30T13:03:27Z</time>
      </trkpt>
      <trkpt lat="4.6307" lon="-74.07486">
        <ele>2568.3</ele>
        <time>2020-08-30T13:03:28Z</time>
      </trkpt>
      <trkpt lat="4.63074" lon="-74.07486">
        <ele>2568.3</ele>
        <time>2020-08-30T13:03:30Z</time>
      </trkpt>
      <trkpt lat="4.63077" lon="-74.07486">
        <ele>2568.2</ele>
        <time>2020-08-30T13:03:31Z</time>
      </trkpt>
      <trkpt lat="4.63081" lon="-74.07486">
        <ele>2568.2</ele>
        <time>2020-08-30T13:03:33Z</time>
      </trkpt>
      <trkpt lat="4.63085" lon="-74.07486">
        <ele>2568.1</ele>
        <time>2020-08-30T13:03:35Z</time>
      </trkpt>
      <trkpt lat="4.6309" lon="-74.07484">
        <ele>2568.1</ele>
        <time>2020-08-30T13:03:37Z</time>
      </trkpt>
      <trkpt lat="4.63094" lon="-74.07482">
        <ele>2568.1</ele>
        <time>2020-08-30T13:03:39Z</time>
      </trkpt>
      <trkpt lat="4.63095" lon="-74.07481">
        <ele>2568</ele>
        <time>2020-08-30T13:03:40Z</time>
      </trkpt>
      <trkpt lat="4.63099" lon="-74.07479">
        <ele>2568</ele>
        <time>2020-08-30T13:03:42Z</time>
      </trkpt>
      <trkpt lat="4.63101" lon="-74.07479">
        <ele>2568</ele>
        <time>2020-08-30T13:03:43Z</time>
      </trkpt>
      <trkpt lat="4.63105" lon="-74.07479">
        <ele>2568</ele>
        <time>2020-08-30T13:03:45Z</time>
      </trkpt>
      <trkpt lat="4.63108" lon="-74.07479">
        <ele>2567.9</ele>
        <time>2020-08-30T13:03:46Z</time>
      </trkpt>
      <trkpt lat="4.63111" lon="-74.0748">
        <ele>2567.9</ele>
        <time>2020-08-30T13:03:48Z</time>
      </trkpt>
      <trkpt lat="4.63113" lon="-74.07481">
        <ele>2567.9</ele>
        <time>2020-08-30T13:03:49Z</time>
      </trkpt>
      <trkpt lat="4.63117" lon="-74.07482">
        <ele>2567.8</ele>
        <time>2020-08-30T13:03:51Z</time>
      </trkpt>
      <trkpt lat="4.63121" lon="-74.07481">
        <ele>2567.8</ele>
        <time>2020-08-30T13:03:53Z</time>
      </trkpt>
      <trkpt lat="4.63123" lon="-74.07481">
        <ele>2567.8</ele>
        <time>2020-08-30T13:03:54Z</time>
      </trkpt>
      <trkpt lat="4.6313" lon="-74.07479">
        <ele>2567.7</ele>
        <time>2020-08-30T13:03:56Z</time>
      </trkpt>
      <trkpt lat="4.63135" lon="-74.07478">
        <ele>2567.7</ele>
        <time>2020-08-30T13:03:58Z</time>
      </trkpt>
      <trkpt lat="4.63138" lon="-74.07478">
        <ele>2567.7</ele>
        <time>2020-08-30T13:03:59Z</time>
      </trkpt>
      <trkpt lat="4.63142" lon="-74.07478">
        <ele>2567.6</ele>
        <time>2020-08-30T13:04:01Z</time>
      </trkpt>
      <trkpt lat="4.63144" lon="-74.07478">
        <ele>2567.6</ele>
        <time>2020-08-30T13:04:02Z</time>
      </trkpt>
      <trkpt lat="4.63149" lon="-74.07478">
        <ele>2567.6</ele>
        <time>2020-08-30T13:04:04Z</time>
      </trkpt>
      <trkpt lat="4.63153" lon="-74.07477">
        <ele>2567.6</ele>
        <time>2020-08-30T13:04:06Z</time>
      </trkpt>
      <trkpt lat="4.63159" lon="-74.07476">
        <ele>2567.6</ele>
        <time>2020-08-30T13:04:07Z</time>
      </trkpt>
      <trkpt lat="4.63163" lon="-74.07476">
        <ele>2567.6</ele>
        <time>2020-08-30T13:04:09Z</time>
      </trkpt>
      <trkpt lat="4.63165" lon="-74.07476">
        <ele>2567.6</ele>
        <time>2020-08-30T13:04:10Z</time>
      </trkpt>
      <trkpt lat="4.63169" lon="-74.07476">
        <ele>2567.5</ele>
        <time>2020-08-30T13:04:12Z</time>
      </trkpt>
      <trkpt lat="4.63173" lon="-74.07477">
        <ele>2567.5</ele>
        <time>2020-08-30T13:04:14Z</time>
      </trkpt>
      <trkpt lat="4.63176" lon="-74.07478">
        <ele>2567.5</ele>
        <time>2020-08-30T13:04:15Z</time>
      </trkpt>
      <trkpt lat="4.63177" lon="-74.07478">
        <ele>2567.5</ele>
        <time>2020-08-30T13:04:16Z</time>
      </trkpt>
      <trkpt lat="4.63181" lon="-74.07479">
        <ele>2567.4</ele>
        <time>2020-08-30T13:04:18Z</time>
      </trkpt>
      <trkpt lat="4.63186" lon="-74.0748">
        <ele>2567.4</ele>
        <time>2020-08-30T13:04:20Z</time>
      </trkpt>
      <trkpt lat="4.63188" lon="-74.0748">
        <ele>2567.3</ele>
        <time>2020-08-30T13:04:21Z</time>
      </trkpt>
      <trkpt lat="4.63192" lon="-74.0748">
        <ele>2567.3</ele>
        <time>2020-08-30T13:04:23Z</time>
      </trkpt>
      <trkpt lat="4.63197" lon="-74.0748">
        <ele>2567.2</ele>
        <time>2020-08-30T13:04:25Z</time>
      </trkpt>
      <trkpt lat="4.63199" lon="-74.07481">
        <ele>2567.1</ele>
        <time>2020-08-30T13:04:26Z</time>
      </trkpt>
      <trkpt lat="4.63205" lon="-74.07481">
        <ele>2567.1</ele>
        <time>2020-08-30T13:04:28Z</time>
      </trkpt>
      <trkpt lat="4.6321" lon="-74.07481">
        <ele>2567</ele>
        <time>2020-08-30T13:04:30Z</time>
      </trkpt>
      <trkpt lat="4.63212" lon="-74.07481">
        <ele>2567</ele>
        <time>2020-08-30T13:04:31Z</time>
      </trkpt>
      <trkpt lat="4.63218" lon="-74.07483">
        <ele>2566.9</ele>
        <time>2020-08-30T13:04:33Z</time>
      </trkpt>
      <trkpt lat="4.63223" lon="-74.07483">
        <ele>2566.9</ele>
        <time>2020-08-30T13:04:35Z</time>
      </trkpt>
      <trkpt lat="4.63226" lon="-74.07482">
        <ele>2566.9</ele>
        <time>2020-08-30T13:04:36Z</time>
      </trkpt>
      <trkpt lat="4.6323" lon="-74.07482">
        <ele>2566.9</ele>
        <time>2020-08-30T13:04:38Z</time>
      </trkpt>
      <trkpt lat="4.63235" lon="-74.07482">
        <ele>2566.8</ele>
        <time>2020-08-30T13:04:40Z</time>
      </trkpt>
      <trkpt lat="4.63237" lon="-74.07482">
        <ele>2566.8</ele>
        <time>2020-08-30T13:04:41Z</time>
      </trkpt>
      <trkpt lat="4.63241" lon="-74.07483">
        <ele>2566.8</ele>
        <time>2020-08-30T13:04:43Z</time>
      </trkpt>
      <trkpt lat="4.63242" lon="-74.07483">
        <ele>2566.8</ele>
        <time>2020-08-30T13:04:44Z</time>
      </trkpt>
      <trkpt lat="4.63246" lon="-74.07483">
        <ele>2566.8</ele>
        <time>2020-08-30T13:04:46Z</time>
      </trkpt>
      <trkpt lat="4.6325" lon="-74.07483">
        <ele>2566.8</ele>
        <time>2020-08-30T13:04:48Z</time>
      </trkpt>
      <trkpt lat="4.63252" lon="-74.07483">
        <ele>2566.8</ele>
        <time>2020-08-30T13:04:49Z</time>
      </trkpt>
      <trkpt lat="4.63257" lon="-74.07489">
        <ele>2566.7</ele>
        <time>2020-08-30T13:04:51Z</time>
      </trkpt>
      <trkpt lat="4.6326" lon="-74.07491">
        <ele>2566.6</ele>
        <time>2020-08-30T13:04:53Z</time>
      </trkpt>
      <trkpt lat="4.63262" lon="-74.07491">
        <ele>2566.6</ele>
        <time>2020-08-30T13:04:54Z</time>
      </trkpt>
      <trkpt lat="4.63265" lon="-74.07492">
        <ele>2566.6</ele>
        <time>2020-08-30T13:04:56Z</time>
      </trkpt>
      <trkpt lat="4.6327" lon="-74.07491">
        <ele>2566.5</ele>
        <time>2020-08-30T13:04:58Z</time>
      </trkpt>
      <trkpt lat="4.63274" lon="-74.07491">
        <ele>2566.5</ele>
        <time>2020-08-30T13:05:00Z</time>
      </trkpt>
      <trkpt lat="4.63279" lon="-74.07492">
        <ele>2566.4</ele>
        <time>2020-08-30T13:05:02Z</time>
      </trkpt>
      <trkpt lat="4.63284" lon="-74.07492">
        <ele>2566.3</ele>
        <time>2020-08-30T13:05:04Z</time>
      </trkpt>
      <trkpt lat="4.63286" lon="-74.07493">
        <ele>2566.3</ele>
        <time>2020-08-30T13:05:05Z</time>
      </trkpt>
      <trkpt lat="4.63293" lon="-74.07492">
        <ele>2566.2</ele>
        <time>2020-08-30T13:05:07Z</time>
      </trkpt>
      <trkpt lat="4.63297" lon="-74.07492">
        <ele>2566.2</ele>
        <time>2020-08-30T13:05:08Z</time>
      </trkpt>
      <trkpt lat="4.63298" lon="-74.07492">
        <ele>2566.2</ele>
        <time>2020-08-30T13:05:09Z</time>
      </trkpt>
      <trkpt lat="4.63301" lon="-74.07491">
        <ele>2566.2</ele>
        <time>2020-08-30T13:05:10Z</time>
      </trkpt>
      <trkpt lat="4.63304" lon="-74.07491">
        <ele>2566.2</ele>
        <time>2020-08-30T13:05:12Z</time>
      </trkpt>
      <trkpt lat="4.63309" lon="-74.07491">
        <ele>2566.1</ele>
        <time>2020-08-30T13:05:14Z</time>
      </trkpt>
      <trkpt lat="4.63311" lon="-74.0749">
        <ele>2566.1</ele>
        <time>2020-08-30T13:05:15Z</time>
      </trkpt>
      <trkpt lat="4.63316" lon="-74.07489">
        <ele>2566</ele>
        <time>2020-08-30T13:05:17Z</time>
      </trkpt>
      <trkpt lat="4.63318" lon="-74.07489">
        <ele>2566</ele>
        <time>2020-08-30T13:05:18Z</time>
      </trkpt>
      <trkpt lat="4.63321" lon="-74.07488">
        <ele>2565.7</ele>
        <time>2020-08-30T13:05:20Z</time>
      </trkpt>
      <trkpt lat="4.63324" lon="-74.07487">
        <ele>2565.4</ele>
        <time>2020-08-30T13:05:22Z</time>
      </trkpt>
      <trkpt lat="4.63325" lon="-74.07486">
        <ele>2565.4</ele>
        <time>2020-08-30T13:05:24Z</time>
      </trkpt>
      <trkpt lat="4.63324" lon="-74.07484">
        <ele>2565.4</ele>
        <time>2020-08-30T13:05:26Z</time>
      </trkpt>
      <trkpt lat="4.63323" lon="-74.07482">
        <ele>2565.4</ele>
        <time>2020-08-30T13:05:27Z</time>
      </trkpt>
      <trkpt lat="4.63323" lon="-74.07479">
        <ele>2565.4</ele>
        <time>2020-08-30T13:05:29Z</time>
      </trkpt>
      <trkpt lat="4.63322" lon="-74.07476">
        <ele>2565.4</ele>
        <time>2020-08-30T13:05:31Z</time>
      </trkpt>
      <trkpt lat="4.63319" lon="-74.07472">
        <ele>2565.5</ele>
        <time>2020-08-30T13:05:32Z</time>
      </trkpt>
      <trkpt lat="4.63316" lon="-74.07469">
        <ele>2565.5</ele>
        <time>2020-08-30T13:05:34Z</time>
      </trkpt>
      <trkpt lat="4.63314" lon="-74.07467">
        <ele>2565.5</ele>
        <time>2020-08-30T13:05:35Z</time>
      </trkpt>
      <trkpt lat="4.63311" lon="-74.07463">
        <ele>2565.5</ele>
        <time>2020-08-30T13:05:37Z</time>
      </trkpt>
      <trkpt lat="4.63309" lon="-74.0746">
        <ele>2565.5</ele>
        <time>2020-08-30T13:05:38Z</time>
      </trkpt>
      <trkpt lat="4.63304" lon="-74.07456">
        <ele>2565.6</ele>
        <time>2020-08-30T13:05:40Z</time>
      </trkpt>
      <trkpt lat="4.63302" lon="-74.07454">
        <ele>2565.6</ele>
        <time>2020-08-30T13:05:41Z</time>
      </trkpt>
      <trkpt lat="4.63298" lon="-74.07449">
        <ele>2565.6</ele>
        <time>2020-08-30T13:05:43Z</time>
      </trkpt>
      <trkpt lat="4.63296" lon="-74.07447">
        <ele>2565.7</ele>
        <time>2020-08-30T13:05:44Z</time>
      </trkpt>
      <trkpt lat="4.63296" lon="-74.07446">
        <ele>2565.7</ele>
        <time>2020-08-30T13:05:45Z</time>
      </trkpt>
      <trkpt lat="4.63294" lon="-74.07444">
        <ele>2565.7</ele>
        <time>2020-08-30T13:05:46Z</time>
      </trkpt>
      <trkpt lat="4.63292" lon="-74.07441">
        <ele>2565.8</ele>
        <time>2020-08-30T13:05:48Z</time>
      </trkpt>
      <trkpt lat="4.6329" lon="-74.07438">
        <ele>2565.8</ele>
        <time>2020-08-30T13:05:49Z</time>
      </trkpt>
      <trkpt lat="4.63288" lon="-74.07436">
        <ele>2565.9</ele>
        <time>2020-08-30T13:05:50Z</time>
      </trkpt>
      <trkpt lat="4.63286" lon="-74.07434">
        <ele>2566</ele>
        <time>2020-08-30T13:05:51Z</time>
      </trkpt>
      <trkpt lat="4.63282" lon="-74.07429">
        <ele>2566.1</ele>
        <time>2020-08-30T13:05:53Z</time>
      </trkpt>
      <trkpt lat="4.63279" lon="-74.07426">
        <ele>2566.1</ele>
        <time>2020-08-30T13:05:55Z</time>
      </trkpt>
      <trkpt lat="4.63276" lon="-74.07422">
        <ele>2566.2</ele>
        <time>2020-08-30T13:05:57Z</time>
      </trkpt>
      <trkpt lat="4.63272" lon="-74.07418">
        <ele>2566.3</ele>
        <time>2020-08-30T13:05:59Z</time>
      </trkpt>
      <trkpt lat="4.63271" lon="-74.07417">
        <ele>2566.3</ele>
        <time>2020-08-30T13:06:00Z</time>
      </trkpt>
      <trkpt lat="4.63267" lon="-74.07413">
        <ele>2566.4</ele>
        <time>2020-08-30T13:06:02Z</time>
      </trkpt>
      <trkpt lat="4.63265" lon="-74.07411">
        <ele>2566.4</ele>
        <time>2020-08-30T13:06:04Z</time>
      </trkpt>
      <trkpt lat="4.63262" lon="-74.07408">
        <ele>2566.4</ele>
        <time>2020-08-30T13:06:06Z</time>
      </trkpt>
      <trkpt lat="4.63261" lon="-74.07406">
        <ele>2566.4</ele>
        <time>2020-08-30T13:06:07Z</time>
      </trkpt>
      <trkpt lat="4.63258" lon="-74.07403">
        <ele>2566.4</ele>
        <time>2020-08-30T13:06:08Z</time>
      </trkpt>
      <trkpt lat="4.63257" lon="-74.07402">
        <ele>2566.4</ele>
        <time>2020-08-30T13:06:09Z</time>
      </trkpt>
      <trkpt lat="4.63254" lon="-74.074">
        <ele>2566.5</ele>
        <time>2020-08-30T13:06:11Z</time>
      </trkpt>
      <trkpt lat="4.63251" lon="-74.07398">
        <ele>2566.5</ele>
        <time>2020-08-30T13:06:12Z</time>
      </trkpt>
      <trkpt lat="4.63246" lon="-74.07395">
        <ele>2566.6</ele>
        <time>2020-08-30T13:06:14Z</time>
      </trkpt>
      <trkpt lat="4.63243" lon="-74.07391">
        <ele>2566.7</ele>
        <time>2020-08-30T13:06:16Z</time>
      </trkpt>
      <trkpt lat="4.6324" lon="-74.07386">
        <ele>2566.7</ele>
        <time>2020-08-30T13:06:18Z</time>
      </trkpt>
      <trkpt lat="4.63238" lon="-74.07381">
        <ele>2566.8</ele>
        <time>2020-08-30T13:06:20Z</time>
      </trkpt>
      <trkpt lat="4.63236" lon="-74.07376">
        <ele>2566.9</ele>
        <time>2020-08-30T13:06:22Z</time>
      </trkpt>
      <trkpt lat="4.63233" lon="-74.07371">
        <ele>2567</ele>
        <time>2020-08-30T13:06:24Z</time>
      </trkpt>
      <trkpt lat="4.63231" lon="-74.07366">
        <ele>2567</ele>
        <time>2020-08-30T13:06:26Z</time>
      </trkpt>
      <trkpt lat="4.63228" lon="-74.07362">
        <ele>2567.1</ele>
        <time>2020-08-30T13:06:28Z</time>
      </trkpt>
      <trkpt lat="4.63225" lon="-74.07358">
        <ele>2567.1</ele>
        <time>2020-08-30T13:06:30Z</time>
      </trkpt>
      <trkpt lat="4.63221" lon="-74.07355">
        <ele>2567.1</ele>
        <time>2020-08-30T13:06:32Z</time>
      </trkpt>
      <trkpt lat="4.63217" lon="-74.07352">
        <ele>2567.2</ele>
        <time>2020-08-30T13:06:34Z</time>
      </trkpt>
      <trkpt lat="4.63215" lon="-74.07349">
        <ele>2567.2</ele>
        <time>2020-08-30T13:06:35Z</time>
      </trkpt>
      <trkpt lat="4.63214" lon="-74.07349">
        <ele>2567.2</ele>
        <time>2020-08-30T13:06:36Z</time>
      </trkpt>
      <trkpt lat="4.6321" lon="-74.07346">
        <ele>2567.2</ele>
        <time>2020-08-30T13:06:38Z</time>
      </trkpt>
      <trkpt lat="4.63206" lon="-74.07342">
        <ele>2567.3</ele>
        <time>2020-08-30T13:06:40Z</time>
      </trkpt>
      <trkpt lat="4.63203" lon="-74.07339">
        <ele>2567.3</ele>
        <time>2020-08-30T13:06:42Z</time>
      </trkpt>
      <trkpt lat="4.632" lon="-74.07335">
        <ele>2567.4</ele>
        <time>2020-08-30T13:06:44Z</time>
      </trkpt>
      <trkpt lat="4.63196" lon="-74.07329">
        <ele>2567.6</ele>
        <time>2020-08-30T13:06:46Z</time>
      </trkpt>
      <trkpt lat="4.63193" lon="-74.07326">
        <ele>2567.6</ele>
        <time>2020-08-30T13:06:48Z</time>
      </trkpt>
      <trkpt lat="4.63191" lon="-74.07323">
        <ele>2567.7</ele>
        <time>2020-08-30T13:06:49Z</time>
      </trkpt>
      <trkpt lat="4.6319" lon="-74.07322">
        <ele>2567.7</ele>
        <time>2020-08-30T13:06:50Z</time>
      </trkpt>
      <trkpt lat="4.63188" lon="-74.07319">
        <ele>2567.8</ele>
        <time>2020-08-30T13:06:52Z</time>
      </trkpt>
      <trkpt lat="4.63185" lon="-74.07316">
        <ele>2567.8</ele>
        <time>2020-08-30T13:06:54Z</time>
      </trkpt>
      <trkpt lat="4.63181" lon="-74.07312">
        <ele>2567.9</ele>
        <time>2020-08-30T13:06:56Z</time>
      </trkpt>
      <trkpt lat="4.63179" lon="-74.07309">
        <ele>2567.9</ele>
        <time>2020-08-30T13:06:57Z</time>
      </trkpt>
      <trkpt lat="4.63179" lon="-74.07308">
        <ele>2567.9</ele>
        <time>2020-08-30T13:06:58Z</time>
      </trkpt>
      <trkpt lat="4.63177" lon="-74.07306">
        <ele>2568</ele>
        <time>2020-08-30T13:07:00Z</time>
      </trkpt>
      <trkpt lat="4.63175" lon="-74.07304">
        <ele>2568</ele>
        <time>2020-08-30T13:07:01Z</time>
      </trkpt>
      <trkpt lat="4.63172" lon="-74.073">
        <ele>2568</ele>
        <time>2020-08-30T13:07:03Z</time>
      </trkpt>
      <trkpt lat="4.63169" lon="-74.07295">
        <ele>2568.1</ele>
        <time>2020-08-30T13:07:05Z</time>
      </trkpt>
      <trkpt lat="4.63165" lon="-74.07287">
        <ele>2568.2</ele>
        <time>2020-08-30T13:07:07Z</time>
      </trkpt>
      <trkpt lat="4.63162" lon="-74.07284">
        <ele>2568.2</ele>
        <time>2020-08-30T13:07:09Z</time>
      </trkpt>
      <trkpt lat="4.63161" lon="-74.07282">
        <ele>2568.3</ele>
        <time>2020-08-30T13:07:10Z</time>
      </trkpt>
      <trkpt lat="4.63157" lon="-74.07278">
        <ele>2568.3</ele>
        <time>2020-08-30T13:07:12Z</time>
      </trkpt>
      <trkpt lat="4.63153" lon="-74.07275">
        <ele>2568.5</ele>
        <time>2020-08-30T13:07:14Z</time>
      </trkpt>
      <trkpt lat="4.63151" lon="-74.07272">
        <ele>2568.5</ele>
        <time>2020-08-30T13:07:15Z</time>
      </trkpt>
      <trkpt lat="4.63145" lon="-74.07267">
        <ele>2568.7</ele>
        <time>2020-08-30T13:07:17Z</time>
      </trkpt>
      <trkpt lat="4.63142" lon="-74.07263">
        <ele>2568.9</ele>
        <time>2020-08-30T13:07:19Z</time>
      </trkpt>
      <trkpt lat="4.6314" lon="-74.0726">
        <ele>2569</ele>
        <time>2020-08-30T13:07:20Z</time>
      </trkpt>
      <trkpt lat="4.6314" lon="-74.0726">
        <ele>2569</ele>
        <time>2020-08-30T13:07:21Z</time>
      </trkpt>
      <trkpt lat="4.63138" lon="-74.07256">
        <ele>2569.2</ele>
        <time>2020-08-30T13:07:23Z</time>
      </trkpt>
      <trkpt lat="4.63135" lon="-74.07252">
        <ele>2569.3</ele>
        <time>2020-08-30T13:07:25Z</time>
      </trkpt>
      <trkpt lat="4.63134" lon="-74.07251">
        <ele>2569.4</ele>
        <time>2020-08-30T13:07:26Z</time>
      </trkpt>
      <trkpt lat="4.6313" lon="-74.07247">
        <ele>2569.6</ele>
        <time>2020-08-30T13:07:28Z</time>
      </trkpt>
      <trkpt lat="4.63128" lon="-74.07245">
        <ele>2569.7</ele>
        <time>2020-08-30T13:07:29Z</time>
      </trkpt>
      <trkpt lat="4.63127" lon="-74.07244">
        <ele>2569.7</ele>
        <time>2020-08-30T13:07:30Z</time>
      </trkpt>
      <trkpt lat="4.63125" lon="-74.07241">
        <ele>2569.8</ele>
        <time>2020-08-30T13:07:32Z</time>
      </trkpt>
      <trkpt lat="4.63124" lon="-74.07239">
        <ele>2569.9</ele>
        <time>2020-08-30T13:07:33Z</time>
      </trkpt>
      <trkpt lat="4.63121" lon="-74.07236">
        <ele>2570</ele>
        <time>2020-08-30T13:07:35Z</time>
      </trkpt>
      <trkpt lat="4.63119" lon="-74.07234">
        <ele>2570.1</ele>
        <time>2020-08-30T13:07:36Z</time>
      </trkpt>
      <trkpt lat="4.63115" lon="-74.0723">
        <ele>2570.3</ele>
        <time>2020-08-30T13:07:38Z</time>
      </trkpt>
      <trkpt lat="4.63111" lon="-74.07227">
        <ele>2570.4</ele>
        <time>2020-08-30T13:07:40Z</time>
      </trkpt>
      <trkpt lat="4.6311" lon="-74.07225">
        <ele>2570.4</ele>
        <time>2020-08-30T13:07:41Z</time>
      </trkpt>
      <trkpt lat="4.63106" lon="-74.07222">
        <ele>2570.4</ele>
        <time>2020-08-30T13:07:43Z</time>
      </trkpt>
      <trkpt lat="4.63103" lon="-74.07218">
        <ele>2570.5</ele>
        <time>2020-08-30T13:07:45Z</time>
      </trkpt>
      <trkpt lat="4.631" lon="-74.07213">
        <ele>2570.5</ele>
        <time>2020-08-30T13:07:47Z</time>
      </trkpt>
      <trkpt lat="4.63099" lon="-74.07211">
        <ele>2570.5</ele>
        <time>2020-08-30T13:07:48Z</time>
      </trkpt>
      <trkpt lat="4.63096" lon="-74.07207">
        <ele>2570.6</ele>
        <time>2020-08-30T13:07:50Z</time>
      </trkpt>
      <trkpt lat="4.63093" lon="-74.07204">
        <ele>2570.6</ele>
        <time>2020-08-30T13:07:52Z</time>
      </trkpt>
      <trkpt lat="4.63089" lon="-74.07201">
        <ele>2570.7</ele>
        <time>2020-08-30T13:07:54Z</time>
      </trkpt>
      <trkpt lat="4.63087" lon="-74.07199">
        <ele>2570.7</ele>
        <time>2020-08-30T13:07:55Z</time>
      </trkpt>
      <trkpt lat="4.63084" lon="-74.07195">
        <ele>2570.8</ele>
        <time>2020-08-30T13:07:57Z</time>
      </trkpt>
      <trkpt lat="4.63083" lon="-74.07193">
        <ele>2570.8</ele>
        <time>2020-08-30T13:07:58Z</time>
      </trkpt>
      <trkpt lat="4.6308" lon="-74.07188">
        <ele>2570.9</ele>
        <time>2020-08-30T13:08:00Z</time>
      </trkpt>
      <trkpt lat="4.63078" lon="-74.07186">
        <ele>2570.9</ele>
        <time>2020-08-30T13:08:01Z</time>
      </trkpt>
      <trkpt lat="4.63077" lon="-74.07185">
        <ele>2570.9</ele>
        <time>2020-08-30T13:08:02Z</time>
      </trkpt>
      <trkpt lat="4.63075" lon="-74.07181">
        <ele>2571</ele>
        <time>2020-08-30T13:08:04Z</time>
      </trkpt>
      <trkpt lat="4.63071" lon="-74.07175">
        <ele>2571.1</ele>
        <time>2020-08-30T13:08:06Z</time>
      </trkpt>
      <trkpt lat="4.63067" lon="-74.0717">
        <ele>2571.2</ele>
        <time>2020-08-30T13:08:08Z</time>
      </trkpt>
      <trkpt lat="4.63064" lon="-74.07167">
        <ele>2571.3</ele>
        <time>2020-08-30T13:08:10Z</time>
      </trkpt>
      <trkpt lat="4.63061" lon="-74.07164">
        <ele>2571.4</ele>
        <time>2020-08-30T13:08:12Z</time>
      </trkpt>
      <trkpt lat="4.63059" lon="-74.07161">
        <ele>2571.5</ele>
        <time>2020-08-30T13:08:13Z</time>
      </trkpt>
      <trkpt lat="4.63059" lon="-74.07161">
        <ele>2571.5</ele>
        <time>2020-08-30T13:08:14Z</time>
      </trkpt>
      <trkpt lat="4.63056" lon="-74.07158">
        <ele>2571.6</ele>
        <time>2020-08-30T13:08:15Z</time>
      </trkpt>
      <trkpt lat="4.63055" lon="-74.07157">
        <ele>2571.6</ele>
        <time>2020-08-30T13:08:16Z</time>
      </trkpt>
      <trkpt lat="4.63053" lon="-74.07155">
        <ele>2571.7</ele>
        <time>2020-08-30T13:08:17Z</time>
      </trkpt>
      <trkpt lat="4.6305" lon="-74.07152">
        <ele>2571.8</ele>
        <time>2020-08-30T13:08:19Z</time>
      </trkpt>
      <trkpt lat="4.63048" lon="-74.07149">
        <ele>2571.8</ele>
        <time>2020-08-30T13:08:20Z</time>
      </trkpt>
      <trkpt lat="4.63048" lon="-74.07148">
        <ele>2571.9</ele>
        <time>2020-08-30T13:08:21Z</time>
      </trkpt>
      <trkpt lat="4.63043" lon="-74.07143">
        <ele>2572</ele>
        <time>2020-08-30T13:08:23Z</time>
      </trkpt>
      <trkpt lat="4.63041" lon="-74.0714">
        <ele>2572.1</ele>
        <time>2020-08-30T13:08:24Z</time>
      </trkpt>
      <trkpt lat="4.6304" lon="-74.07138">
        <ele>2572.1</ele>
        <time>2020-08-30T13:08:25Z</time>
      </trkpt>
      <trkpt lat="4.63038" lon="-74.07134">
        <ele>2572.3</ele>
        <time>2020-08-30T13:08:27Z</time>
      </trkpt>
      <trkpt lat="4.63035" lon="-74.07129">
        <ele>2572.4</ele>
        <time>2020-08-30T13:08:29Z</time>
      </trkpt>
      <trkpt lat="4.63031" lon="-74.07127">
        <ele>2572.5</ele>
        <time>2020-08-30T13:08:31Z</time>
      </trkpt>
      <trkpt lat="4.63028" lon="-74.07125">
        <ele>2572.6</ele>
        <time>2020-08-30T13:08:32Z</time>
      </trkpt>
      <trkpt lat="4.63026" lon="-74.07125">
        <ele>2572.6</ele>
        <time>2020-08-30T13:08:33Z</time>
      </trkpt>
      <trkpt lat="4.63021" lon="-74.07124">
        <ele>2572.7</ele>
        <time>2020-08-30T13:08:35Z</time>
      </trkpt>
      <trkpt lat="4.63018" lon="-74.07123">
        <ele>2572.8</ele>
        <time>2020-08-30T13:08:36Z</time>
      </trkpt>
      <trkpt lat="4.63017" lon="-74.07123">
        <ele>2572.8</ele>
        <time>2020-08-30T13:08:37Z</time>
      </trkpt>
      <trkpt lat="4.63012" lon="-74.07122">
        <ele>2572.9</ele>
        <time>2020-08-30T13:08:39Z</time>
      </trkpt>
      <trkpt lat="4.63008" lon="-74.0712">
        <ele>2573</ele>
        <time>2020-08-30T13:08:41Z</time>
      </trkpt>
      <trkpt lat="4.63003" lon="-74.07114">
        <ele>2573.1</ele>
        <time>2020-08-30T13:08:43Z</time>
      </trkpt>
      <trkpt lat="4.63001" lon="-74.07111">
        <ele>2573.1</ele>
        <time>2020-08-30T13:08:45Z</time>
      </trkpt>
      <trkpt lat="4.63001" lon="-74.07111">
        <ele>2573.1</ele>
        <time>2020-08-30T13:08:47Z</time>
      </trkpt>
      <trkpt lat="4.63001" lon="-74.07111">
        <ele>2573.1</ele>
        <time>2020-08-30T13:08:49Z</time>
      </trkpt>
      <trkpt lat="4.63002" lon="-74.07112">
        <ele>2573.1</ele>
        <time>2020-08-30T13:08:51Z</time>
      </trkpt>
      <trkpt lat="4.63002" lon="-74.07112">
        <ele>2573.1</ele>
        <time>2020-08-30T13:08:52Z</time>
      </trkpt>
      <trkpt lat="4.63002" lon="-74.07112">
        <ele>2573.1</ele>
        <time>2020-08-30T13:08:54Z</time>
      </trkpt>
      <trkpt lat="4.63002" lon="-74.07112">
        <ele>2573.1</ele>
        <time>2020-08-30T13:08:56Z</time>
      </trkpt>
      <trkpt lat="4.63002" lon="-74.07112">
        <ele>2573.1</ele>
        <time>2020-08-30T13:08:57Z</time>
      </trkpt>
      <trkpt lat="4.63002" lon="-74.07112">
        <ele>2573.1</ele>
        <time>2020-08-30T13:08:59Z</time>
      </trkpt>
      <trkpt lat="4.63002" lon="-74.07112">
        <ele>2573.1</ele>
        <time>2020-08-30T13:09:01Z</time>
      </trkpt>
      <trkpt lat="4.63002" lon="-74.07112">
        <ele>2573.1</ele>
        <time>2020-08-30T13:09:02Z</time>
      </trkpt>
      <trkpt lat="4.63002" lon="-74.07111">
        <ele>2573.1</ele>
        <time>2020-08-30T13:09:03Z</time>
      </trkpt>
      <trkpt lat="4.63002" lon="-74.0711">
        <ele>2573.1</ele>
        <time>2020-08-30T13:09:05Z</time>
      </trkpt>
      <trkpt lat="4.63002" lon="-74.0711">
        <ele>2573.1</ele>
        <time>2020-08-30T13:09:06Z</time>
      </trkpt>
      <trkpt lat="4.63001" lon="-74.07107">
        <ele>2573.1</ele>
        <time>2020-08-30T13:09:08Z</time>
      </trkpt>
      <trkpt lat="4.62999" lon="-74.07104">
        <ele>2573.1</ele>
        <time>2020-08-30T13:09:10Z</time>
      </trkpt>
      <trkpt lat="4.62997" lon="-74.071">
        <ele>2573.2</ele>
        <time>2020-08-30T13:09:12Z</time>
      </trkpt>
      <trkpt lat="4.62994" lon="-74.07096">
        <ele>2573.2</ele>
        <time>2020-08-30T13:09:14Z</time>
      </trkpt>
      <trkpt lat="4.6299" lon="-74.07092">
        <ele>2573.3</ele>
        <time>2020-08-30T13:09:16Z</time>
      </trkpt>
      <trkpt lat="4.62988" lon="-74.0709">
        <ele>2573.3</ele>
        <time>2020-08-30T13:09:17Z</time>
      </trkpt>
      <trkpt lat="4.62985" lon="-74.07086">
        <ele>2573.4</ele>
        <time>2020-08-30T13:09:19Z</time>
      </trkpt>
      <trkpt lat="4.62984" lon="-74.07084">
        <ele>2573.4</ele>
        <time>2020-08-30T13:09:20Z</time>
      </trkpt>
      <trkpt lat="4.62979" lon="-74.07078">
        <ele>2573.5</ele>
        <time>2020-08-30T13:09:22Z</time>
      </trkpt>
      <trkpt lat="4.62975" lon="-74.07073">
        <ele>2573.5</ele>
        <time>2020-08-30T13:09:24Z</time>
      </trkpt>
      <trkpt lat="4.62971" lon="-74.07068">
        <ele>2573.7</ele>
        <time>2020-08-30T13:09:26Z</time>
      </trkpt>
      <trkpt lat="4.62967" lon="-74.07064">
        <ele>2573.8</ele>
        <time>2020-08-30T13:09:28Z</time>
      </trkpt>
      <trkpt lat="4.62965" lon="-74.07061">
        <ele>2573.8</ele>
        <time>2020-08-30T13:09:29Z</time>
      </trkpt>
      <trkpt lat="4.62964" lon="-74.0706">
        <ele>2573.9</ele>
        <time>2020-08-30T13:09:30Z</time>
      </trkpt>
      <trkpt lat="4.62961" lon="-74.07056">
        <ele>2574</ele>
        <time>2020-08-30T13:09:32Z</time>
      </trkpt>
      <trkpt lat="4.62959" lon="-74.07054">
        <ele>2574.1</ele>
        <time>2020-08-30T13:09:33Z</time>
      </trkpt>
      <trkpt lat="4.62958" lon="-74.07051">
        <ele>2574.2</ele>
        <time>2020-08-30T13:09:34Z</time>
      </trkpt>
      <trkpt lat="4.62956" lon="-74.07047">
        <ele>2574.3</ele>
        <time>2020-08-30T13:09:35Z</time>
      </trkpt>
      <trkpt lat="4.62955" lon="-74.07046">
        <ele>2574.3</ele>
        <time>2020-08-30T13:09:36Z</time>
      </trkpt>
      <trkpt lat="4.62951" lon="-74.07042">
        <ele>2574.5</ele>
        <time>2020-08-30T13:09:39Z</time>
      </trkpt>
      <trkpt lat="4.62948" lon="-74.07036">
        <ele>2574.6</ele>
        <time>2020-08-30T13:09:42Z</time>
      </trkpt>
      <trkpt lat="4.62948" lon="-74.07033">
        <ele>2574.7</ele>
        <time>2020-08-30T13:09:44Z</time>
      </trkpt>
      <trkpt lat="4.62947" lon="-74.0703">
        <ele>2574.7</ele>
        <time>2020-08-30T13:09:45Z</time>
      </trkpt>
      <trkpt lat="4.62947" lon="-74.07028">
        <ele>2574.8</ele>
        <time>2020-08-30T13:09:46Z</time>
      </trkpt>
      <trkpt lat="4.62948" lon="-74.07024">
        <ele>2574.8</ele>
        <time>2020-08-30T13:09:48Z</time>
      </trkpt>
      <trkpt lat="4.6295" lon="-74.07021">
        <ele>2574.8</ele>
        <time>2020-08-30T13:09:50Z</time>
      </trkpt>
      <trkpt lat="4.62952" lon="-74.0702">
        <ele>2574.8</ele>
        <time>2020-08-30T13:09:51Z</time>
      </trkpt>
      <trkpt lat="4.62956" lon="-74.07019">
        <ele>2574.8</ele>
        <time>2020-08-30T13:09:53Z</time>
      </trkpt>
      <trkpt lat="4.6296" lon="-74.07019">
        <ele>2574.8</ele>
        <time>2020-08-30T13:09:54Z</time>
      </trkpt>
      <trkpt lat="4.62961" lon="-74.07019">
        <ele>2574.8</ele>
        <time>2020-08-30T13:09:55Z</time>
      </trkpt>
      <trkpt lat="4.62964" lon="-74.07019">
        <ele>2574.8</ele>
        <time>2020-08-30T13:09:56Z</time>
      </trkpt>
      <trkpt lat="4.62969" lon="-74.0702">
        <ele>2574.9</ele>
        <time>2020-08-30T13:09:58Z</time>
      </trkpt>
      <trkpt lat="4.62973" lon="-74.0702">
        <ele>2574.9</ele>
        <time>2020-08-30T13:10:00Z</time>
      </trkpt>
      <trkpt lat="4.62977" lon="-74.07019">
        <ele>2574.9</ele>
        <time>2020-08-30T13:10:02Z</time>
      </trkpt>
      <trkpt lat="4.6298" lon="-74.07019">
        <ele>2574.9</ele>
        <time>2020-08-30T13:10:03Z</time>
      </trkpt>
      <trkpt lat="4.62981" lon="-74.07018">
        <ele>2574.9</ele>
        <time>2020-08-30T13:10:04Z</time>
      </trkpt>
      <trkpt lat="4.62986" lon="-74.07017">
        <ele>2575</ele>
        <time>2020-08-30T13:10:06Z</time>
      </trkpt>
      <trkpt lat="4.6299" lon="-74.07017">
        <ele>2575</ele>
        <time>2020-08-30T13:10:08Z</time>
      </trkpt>
      <trkpt lat="4.62995" lon="-74.07015">
        <ele>2575</ele>
        <time>2020-08-30T13:10:10Z</time>
      </trkpt>
      <trkpt lat="4.62999" lon="-74.07013">
        <ele>2575.1</ele>
        <time>2020-08-30T13:10:12Z</time>
      </trkpt>
      <trkpt lat="4.63004" lon="-74.07012">
        <ele>2575.3</ele>
        <time>2020-08-30T13:10:14Z</time>
      </trkpt>
      <trkpt lat="4.63007" lon="-74.07012">
        <ele>2575.3</ele>
        <time>2020-08-30T13:10:15Z</time>
      </trkpt>
      <trkpt lat="4.63012" lon="-74.07011">
        <ele>2575.3</ele>
        <time>2020-08-30T13:10:17Z</time>
      </trkpt>
      <trkpt lat="4.63017" lon="-74.0701">
        <ele>2575.2</ele>
        <time>2020-08-30T13:10:19Z</time>
      </trkpt>
      <trkpt lat="4.63023" lon="-74.07008">
        <ele>2575.2</ele>
        <time>2020-08-30T13:10:21Z</time>
      </trkpt>
      <trkpt lat="4.63027" lon="-74.07007">
        <ele>2575</ele>
        <time>2020-08-30T13:10:22Z</time>
      </trkpt>
      <trkpt lat="4.63028" lon="-74.07007">
        <ele>2575</ele>
        <time>2020-08-30T13:10:23Z</time>
      </trkpt>
      <trkpt lat="4.63031" lon="-74.07005">
        <ele>2574.9</ele>
        <time>2020-08-30T13:10:24Z</time>
      </trkpt>
      <trkpt lat="4.63032" lon="-74.07005">
        <ele>2574.8</ele>
        <time>2020-08-30T13:10:25Z</time>
      </trkpt>
      <trkpt lat="4.63036" lon="-74.07004">
        <ele>2574.7</ele>
        <time>2020-08-30T13:10:27Z</time>
      </trkpt>
      <trkpt lat="4.63039" lon="-74.07004">
        <ele>2574.6</ele>
        <time>2020-08-30T13:10:28Z</time>
      </trkpt>
      <trkpt lat="4.63043" lon="-74.07003">
        <ele>2574.4</ele>
        <time>2020-08-30T13:10:30Z</time>
      </trkpt>
      <trkpt lat="4.63048" lon="-74.07001">
        <ele>2574.2</ele>
        <time>2020-08-30T13:10:32Z</time>
      </trkpt>
      <trkpt lat="4.6305" lon="-74.07001">
        <ele>2574.2</ele>
        <time>2020-08-30T13:10:33Z</time>
      </trkpt>
      <trkpt lat="4.63056" lon="-74.07004">
        <ele>2574</ele>
        <time>2020-08-30T13:10:35Z</time>
      </trkpt>
      <trkpt lat="4.63061" lon="-74.07004">
        <ele>2573.9</ele>
        <time>2020-08-30T13:10:37Z</time>
      </trkpt>
      <trkpt lat="4.63065" lon="-74.07004">
        <ele>2573.9</ele>
        <time>2020-08-30T13:10:39Z</time>
      </trkpt>
      <trkpt lat="4.63071" lon="-74.07005">
        <ele>2573.7</ele>
        <time>2020-08-30T13:10:41Z</time>
      </trkpt>
      <trkpt lat="4.63075" lon="-74.07004">
        <ele>2573.6</ele>
        <time>2020-08-30T13:10:43Z</time>
      </trkpt>
      <trkpt lat="4.63077" lon="-74.07003">
        <ele>2573.5</ele>
        <time>2020-08-30T13:10:44Z</time>
      </trkpt>
      <trkpt lat="4.63081" lon="-74.07002">
        <ele>2573.5</ele>
        <time>2020-08-30T13:10:46Z</time>
      </trkpt>
      <trkpt lat="4.63083" lon="-74.07002">
        <ele>2573.4</ele>
        <time>2020-08-30T13:10:47Z</time>
      </trkpt>
      <trkpt lat="4.63089" lon="-74.07">
        <ele>2573.2</ele>
        <time>2020-08-30T13:10:49Z</time>
      </trkpt>
      <trkpt lat="4.63096" lon="-74.06996">
        <ele>2573.1</ele>
        <time>2020-08-30T13:10:51Z</time>
      </trkpt>
      <trkpt lat="4.63098" lon="-74.06995">
        <ele>2573</ele>
        <time>2020-08-30T13:10:52Z</time>
      </trkpt>
      <trkpt lat="4.63103" lon="-74.06993">
        <ele>2572.8</ele>
        <time>2020-08-30T13:10:54Z</time>
      </trkpt>
      <trkpt lat="4.63108" lon="-74.06992">
        <ele>2572.7</ele>
        <time>2020-08-30T13:10:56Z</time>
      </trkpt>
      <trkpt lat="4.63112" lon="-74.06991">
        <ele>2572.7</ele>
        <time>2020-08-30T13:10:57Z</time>
      </trkpt>
      <trkpt lat="4.63113" lon="-74.06991">
        <ele>2572.7</ele>
        <time>2020-08-30T13:10:58Z</time>
      </trkpt>
      <trkpt lat="4.63118" lon="-74.0699">
        <ele>2572.6</ele>
        <time>2020-08-30T13:11:00Z</time>
      </trkpt>
      <trkpt lat="4.63124" lon="-74.06988">
        <ele>2572.4</ele>
        <time>2020-08-30T13:11:02Z</time>
      </trkpt>
      <trkpt lat="4.63127" lon="-74.06988">
        <ele>2572.4</ele>
        <time>2020-08-30T13:11:03Z</time>
      </trkpt>
      <trkpt lat="4.63133" lon="-74.06986">
        <ele>2572.3</ele>
        <time>2020-08-30T13:11:05Z</time>
      </trkpt>
      <trkpt lat="4.63138" lon="-74.06984">
        <ele>2572.2</ele>
        <time>2020-08-30T13:11:07Z</time>
      </trkpt>
      <trkpt lat="4.63142" lon="-74.06982">
        <ele>2572.2</ele>
        <time>2020-08-30T13:11:09Z</time>
      </trkpt>
      <trkpt lat="4.63147" lon="-74.06981">
        <ele>2572.1</ele>
        <time>2020-08-30T13:11:11Z</time>
      </trkpt>
      <trkpt lat="4.63152" lon="-74.0698">
        <ele>2572</ele>
        <time>2020-08-30T13:11:12Z</time>
      </trkpt>
      <trkpt lat="4.63156" lon="-74.0698">
        <ele>2572</ele>
        <time>2020-08-30T13:11:14Z</time>
      </trkpt>
      <trkpt lat="4.63159" lon="-74.0698">
        <ele>2572</ele>
        <time>2020-08-30T13:11:15Z</time>
      </trkpt>
      <trkpt lat="4.6316" lon="-74.0698">
        <ele>2572</ele>
        <time>2020-08-30T13:11:16Z</time>
      </trkpt>
      <trkpt lat="4.63162" lon="-74.0698">
        <ele>2571.9</ele>
        <time>2020-08-30T13:11:17Z</time>
      </trkpt>
      <trkpt lat="4.63167" lon="-74.06978">
        <ele>2571.9</ele>
        <time>2020-08-30T13:11:19Z</time>
      </trkpt>
      <trkpt lat="4.6317" lon="-74.06977">
        <ele>2571.9</ele>
        <time>2020-08-30T13:11:20Z</time>
      </trkpt>
      <trkpt lat="4.63177" lon="-74.06976">
        <ele>2571.9</ele>
        <time>2020-08-30T13:11:22Z</time>
      </trkpt>
      <trkpt lat="4.63181" lon="-74.06975">
        <ele>2571.8</ele>
        <time>2020-08-30T13:11:24Z</time>
      </trkpt>
      <trkpt lat="4.63184" lon="-74.06975">
        <ele>2571.8</ele>
        <time>2020-08-30T13:11:25Z</time>
      </trkpt>
      <trkpt lat="4.63185" lon="-74.06974">
        <ele>2571.8</ele>
        <time>2020-08-30T13:11:26Z</time>
      </trkpt>
      <trkpt lat="4.63189" lon="-74.06974">
        <ele>2571.8</ele>
        <time>2020-08-30T13:11:28Z</time>
      </trkpt>
      <trkpt lat="4.63191" lon="-74.06973">
        <ele>2571.7</ele>
        <time>2020-08-30T13:11:29Z</time>
      </trkpt>
      <trkpt lat="4.63196" lon="-74.06972">
        <ele>2571.7</ele>
        <time>2020-08-30T13:11:31Z</time>
      </trkpt>
      <trkpt lat="4.63203" lon="-74.06971">
        <ele>2571.6</ele>
        <time>2020-08-30T13:11:33Z</time>
      </trkpt>
      <trkpt lat="4.63205" lon="-74.06971">
        <ele>2571.6</ele>
        <time>2020-08-30T13:11:34Z</time>
      </trkpt>
      <trkpt lat="4.63209" lon="-74.06971">
        <ele>2571.5</ele>
        <time>2020-08-30T13:11:36Z</time>
      </trkpt>
      <trkpt lat="4.63212" lon="-74.06972">
        <ele>2571.4</ele>
        <time>2020-08-30T13:11:37Z</time>
      </trkpt>
      <trkpt lat="4.63213" lon="-74.06972">
        <ele>2571.4</ele>
        <time>2020-08-30T13:11:38Z</time>
      </trkpt>
      <trkpt lat="4.63217" lon="-74.06973">
        <ele>2571.3</ele>
        <time>2020-08-30T13:11:40Z</time>
      </trkpt>
      <trkpt lat="4.6322" lon="-74.06974">
        <ele>2571.2</ele>
        <time>2020-08-30T13:11:41Z</time>
      </trkpt>
      <trkpt lat="4.63226" lon="-74.06978">
        <ele>2571.1</ele>
        <time>2020-08-30T13:11:43Z</time>
      </trkpt>
      <trkpt lat="4.63229" lon="-74.06981">
        <ele>2570.9</ele>
        <time>2020-08-30T13:11:45Z</time>
      </trkpt>
      <trkpt lat="4.63232" lon="-74.06984">
        <ele>2570.8</ele>
        <time>2020-08-30T13:11:47Z</time>
      </trkpt>
      <trkpt lat="4.63236" lon="-74.06983">
        <ele>2570.7</ele>
        <time>2020-08-30T13:11:48Z</time>
      </trkpt>
      <trkpt lat="4.63237" lon="-74.06983">
        <ele>2570.7</ele>
        <time>2020-08-30T13:11:49Z</time>
      </trkpt>
      <trkpt lat="4.63242" lon="-74.06981">
        <ele>2570.5</ele>
        <time>2020-08-30T13:11:51Z</time>
      </trkpt>
      <trkpt lat="4.63246" lon="-74.06979">
        <ele>2570.4</ele>
        <time>2020-08-30T13:11:52Z</time>
      </trkpt>
      <trkpt lat="4.6325" lon="-74.06977">
        <ele>2570.4</ele>
        <time>2020-08-30T13:11:54Z</time>
      </trkpt>
      <trkpt lat="4.63252" lon="-74.06975">
        <ele>2570.4</ele>
        <time>2020-08-30T13:11:55Z</time>
      </trkpt>
      <trkpt lat="4.63256" lon="-74.06972">
        <ele>2570.3</ele>
        <time>2020-08-30T13:11:57Z</time>
      </trkpt>
      <trkpt lat="4.63257" lon="-74.06971">
        <ele>2570.3</ele>
        <time>2020-08-30T13:11:58Z</time>
      </trkpt>
      <trkpt lat="4.63261" lon="-74.06969">
        <ele>2570.3</ele>
        <time>2020-08-30T13:12:00Z</time>
      </trkpt>
      <trkpt lat="4.63263" lon="-74.06968">
        <ele>2570.3</ele>
        <time>2020-08-30T13:12:01Z</time>
      </trkpt>
      <trkpt lat="4.63269" lon="-74.06966">
        <ele>2570.3</ele>
        <time>2020-08-30T13:12:03Z</time>
      </trkpt>
      <trkpt lat="4.63272" lon="-74.06967">
        <ele>2570.3</ele>
        <time>2020-08-30T13:12:04Z</time>
      </trkpt>
      <trkpt lat="4.63277" lon="-74.06968">
        <ele>2570.4</ele>
        <time>2020-08-30T13:12:06Z</time>
      </trkpt>
      <trkpt lat="4.63279" lon="-74.06966">
        <ele>2570.4</ele>
        <time>2020-08-30T13:12:07Z</time>
      </trkpt>
      <trkpt lat="4.63283" lon="-74.06964">
        <ele>2570.3</ele>
        <time>2020-08-30T13:12:09Z</time>
      </trkpt>
      <trkpt lat="4.63284" lon="-74.06964">
        <ele>2570.2</ele>
        <time>2020-08-30T13:12:10Z</time>
      </trkpt>
      <trkpt lat="4.63286" lon="-74.0696">
        <ele>2570.2</ele>
        <time>2020-08-30T13:12:12Z</time>
      </trkpt>
      <trkpt lat="4.63288" lon="-74.06957">
        <ele>2570.2</ele>
        <time>2020-08-30T13:12:14Z</time>
      </trkpt>
      <trkpt lat="4.6329" lon="-74.06955">
        <ele>2570.3</ele>
        <time>2020-08-30T13:12:16Z</time>
      </trkpt>
      <trkpt lat="4.63291" lon="-74.06954">
        <ele>2570.2</ele>
        <time>2020-08-30T13:12:17Z</time>
      </trkpt>
      <trkpt lat="4.63295" lon="-74.06952">
        <ele>2570.2</ele>
        <time>2020-08-30T13:12:18Z</time>
      </trkpt>
      <trkpt lat="4.63297" lon="-74.06952">
        <ele>2570.1</ele>
        <time>2020-08-30T13:12:19Z</time>
      </trkpt>
      <trkpt lat="4.63301" lon="-74.0695">
        <ele>2570</ele>
        <time>2020-08-30T13:12:21Z</time>
      </trkpt>
      <trkpt lat="4.63304" lon="-74.06947">
        <ele>2569.9</ele>
        <time>2020-08-30T13:12:22Z</time>
      </trkpt>
      <trkpt lat="4.63307" lon="-74.06944">
        <ele>2569.8</ele>
        <time>2020-08-30T13:12:23Z</time>
      </trkpt>
      <trkpt lat="4.63307" lon="-74.06943">
        <ele>2570</ele>
        <time>2020-08-30T13:12:24Z</time>
      </trkpt>
      <trkpt lat="4.63308" lon="-74.0694">
        <ele>2570</ele>
        <time>2020-08-30T13:12:26Z</time>
      </trkpt>
      <trkpt lat="4.63309" lon="-74.06937">
        <ele>2570.2</ele>
        <time>2020-08-30T13:12:27Z</time>
      </trkpt>
      <trkpt lat="4.6331" lon="-74.06935">
        <ele>2570.2</ele>
        <time>2020-08-30T13:12:28Z</time>
      </trkpt>
      <trkpt lat="4.63313" lon="-74.06931">
        <ele>2570.2</ele>
        <time>2020-08-30T13:12:30Z</time>
      </trkpt>
      <trkpt lat="4.63318" lon="-74.06929">
        <ele>2570.1</ele>
        <time>2020-08-30T13:12:32Z</time>
      </trkpt>
      <trkpt lat="4.63324" lon="-74.06926">
        <ele>2570</ele>
        <time>2020-08-30T13:12:33Z</time>
      </trkpt>
      <trkpt lat="4.63328" lon="-74.06925">
        <ele>2569.9</ele>
        <time>2020-08-30T13:12:35Z</time>
      </trkpt>
      <trkpt lat="4.63332" lon="-74.06923">
        <ele>2569.8</ele>
        <time>2020-08-30T13:12:37Z</time>
      </trkpt>
      <trkpt lat="4.63336" lon="-74.06922">
        <ele>2569.7</ele>
        <time>2020-08-30T13:12:38Z</time>
      </trkpt>
      <trkpt lat="4.63337" lon="-74.06922">
        <ele>2569.7</ele>
        <time>2020-08-30T13:12:39Z</time>
      </trkpt>
      <trkpt lat="4.63341" lon="-74.0692">
        <ele>2569.6</ele>
        <time>2020-08-30T13:12:41Z</time>
      </trkpt>
      <trkpt lat="4.63343" lon="-74.0692">
        <ele>2569.6</ele>
        <time>2020-08-30T13:12:42Z</time>
      </trkpt>
      <trkpt lat="4.63351" lon="-74.06918">
        <ele>2569.4</ele>
        <time>2020-08-30T13:12:44Z</time>
      </trkpt>
      <trkpt lat="4.63354" lon="-74.06918">
        <ele>2569.3</ele>
        <time>2020-08-30T13:12:46Z</time>
      </trkpt>
      <trkpt lat="4.63357" lon="-74.06918">
        <ele>2569.3</ele>
        <time>2020-08-30T13:12:47Z</time>
      </trkpt>
      <trkpt lat="4.63361" lon="-74.06918">
        <ele>2569.2</ele>
        <time>2020-08-30T13:12:49Z</time>
      </trkpt>
      <trkpt lat="4.63364" lon="-74.06917">
        <ele>2569.3</ele>
        <time>2020-08-30T13:12:50Z</time>
      </trkpt>
      <trkpt lat="4.63365" lon="-74.06917">
        <ele>2569.3</ele>
        <time>2020-08-30T13:12:51Z</time>
      </trkpt>
      <trkpt lat="4.63373" lon="-74.06918">
        <ele>2569.4</ele>
        <time>2020-08-30T13:12:53Z</time>
      </trkpt>
      <trkpt lat="4.63377" lon="-74.06919">
        <ele>2569.2</ele>
        <time>2020-08-30T13:12:55Z</time>
      </trkpt>
      <trkpt lat="4.63381" lon="-74.06921">
        <ele>2569.1</ele>
        <time>2020-08-30T13:12:57Z</time>
      </trkpt>
      <trkpt lat="4.63384" lon="-74.06924">
        <ele>2569</ele>
        <time>2020-08-30T13:12:58Z</time>
      </trkpt>
      <trkpt lat="4.63385" lon="-74.06925">
        <ele>2569</ele>
        <time>2020-08-30T13:12:59Z</time>
      </trkpt>
      <trkpt lat="4.63389" lon="-74.06929">
        <ele>2568.9</ele>
        <time>2020-08-30T13:13:01Z</time>
      </trkpt>
      <trkpt lat="4.63391" lon="-74.0693">
        <ele>2568.9</ele>
        <time>2020-08-30T13:13:03Z</time>
      </trkpt>
      <trkpt lat="4.63396" lon="-74.06931">
        <ele>2569.1</ele>
        <time>2020-08-30T13:13:04Z</time>
      </trkpt>
      <trkpt lat="4.63398" lon="-74.0693">
        <ele>2569.1</ele>
        <time>2020-08-30T13:13:05Z</time>
      </trkpt>
      <trkpt lat="4.63401" lon="-74.06928">
        <ele>2569.2</ele>
        <time>2020-08-30T13:13:07Z</time>
      </trkpt>
      <trkpt lat="4.63405" lon="-74.06924">
        <ele>2569.3</ele>
        <time>2020-08-30T13:13:09Z</time>
      </trkpt>
      <trkpt lat="4.63407" lon="-74.06921">
        <ele>2569.3</ele>
        <time>2020-08-30T13:13:10Z</time>
      </trkpt>
      <trkpt lat="4.63412" lon="-74.06916">
        <ele>2569.4</ele>
        <time>2020-08-30T13:13:12Z</time>
      </trkpt>
      <trkpt lat="4.63416" lon="-74.06912">
        <ele>2569.5</ele>
        <time>2020-08-30T13:13:14Z</time>
      </trkpt>
      <trkpt lat="4.63418" lon="-74.0691">
        <ele>2569.5</ele>
        <time>2020-08-30T13:13:15Z</time>
      </trkpt>
      <trkpt lat="4.63421" lon="-74.06906">
        <ele>2569.6</ele>
        <time>2020-08-30T13:13:17Z</time>
      </trkpt>
      <trkpt lat="4.63425" lon="-74.06904">
        <ele>2569.7</ele>
        <time>2020-08-30T13:13:19Z</time>
      </trkpt>
      <trkpt lat="4.63427" lon="-74.06903">
        <ele>2569.7</ele>
        <time>2020-08-30T13:13:20Z</time>
      </trkpt>
      <trkpt lat="4.6343" lon="-74.06901">
        <ele>2569.8</ele>
        <time>2020-08-30T13:13:22Z</time>
      </trkpt>
      <trkpt lat="4.63435" lon="-74.06897">
        <ele>2570</ele>
        <time>2020-08-30T13:13:24Z</time>
      </trkpt>
      <trkpt lat="4.63439" lon="-74.06894">
        <ele>2570.2</ele>
        <time>2020-08-30T13:13:26Z</time>
      </trkpt>
      <trkpt lat="4.63441" lon="-74.06892">
        <ele>2570.3</ele>
        <time>2020-08-30T13:13:27Z</time>
      </trkpt>
      <trkpt lat="4.63444" lon="-74.06888">
        <ele>2570.5</ele>
        <time>2020-08-30T13:13:29Z</time>
      </trkpt>
      <trkpt lat="4.63446" lon="-74.06887">
        <ele>2570.6</ele>
        <time>2020-08-30T13:13:30Z</time>
      </trkpt>
      <trkpt lat="4.63449" lon="-74.06884">
        <ele>2570.7</ele>
        <time>2020-08-30T13:13:32Z</time>
      </trkpt>
      <trkpt lat="4.63451" lon="-74.06882">
        <ele>2570.8</ele>
        <time>2020-08-30T13:13:33Z</time>
      </trkpt>
      <trkpt lat="4.63451" lon="-74.06878">
        <ele>2570.9</ele>
        <time>2020-08-30T13:13:35Z</time>
      </trkpt>
      <trkpt lat="4.63447" lon="-74.06873">
        <ele>2570.9</ele>
        <time>2020-08-30T13:13:37Z</time>
      </trkpt>
      <trkpt lat="4.63446" lon="-74.06871">
        <ele>2570.9</ele>
        <time>2020-08-30T13:13:38Z</time>
      </trkpt>
      <trkpt lat="4.63443" lon="-74.06866">
        <ele>2571</ele>
        <time>2020-08-30T13:13:40Z</time>
      </trkpt>
      <trkpt lat="4.63441" lon="-74.06861">
        <ele>2571.1</ele>
        <time>2020-08-30T13:13:42Z</time>
      </trkpt>
      <trkpt lat="4.6344" lon="-74.06857">
        <ele>2571.2</ele>
        <time>2020-08-30T13:13:43Z</time>
      </trkpt>
      <trkpt lat="4.63439" lon="-74.06852">
        <ele>2571.2</ele>
        <time>2020-08-30T13:13:45Z</time>
      </trkpt>
      <trkpt lat="4.63439" lon="-74.06849">
        <ele>2571.3</ele>
        <time>2020-08-30T13:13:47Z</time>
      </trkpt>
      <trkpt lat="4.63439" lon="-74.06848">
        <ele>2571.3</ele>
        <time>2020-08-30T13:13:48Z</time>
      </trkpt>
      <trkpt lat="4.63439" lon="-74.06846">
        <ele>2571.3</ele>
        <time>2020-08-30T13:13:49Z</time>
      </trkpt>
      <trkpt lat="4.63444" lon="-74.06843">
        <ele>2571.2</ele>
        <time>2020-08-30T13:13:51Z</time>
      </trkpt>
      <trkpt lat="4.63451" lon="-74.0684">
        <ele>2571</ele>
        <time>2020-08-30T13:13:53Z</time>
      </trkpt>
      <trkpt lat="4.63453" lon="-74.0684">
        <ele>2571</ele>
        <time>2020-08-30T13:13:54Z</time>
      </trkpt>
      <trkpt lat="4.63458" lon="-74.06839">
        <ele>2570.9</ele>
        <time>2020-08-30T13:13:56Z</time>
      </trkpt>
      <trkpt lat="4.63462" lon="-74.0684">
        <ele>2570.9</ele>
        <time>2020-08-30T13:13:57Z</time>
      </trkpt>
      <trkpt lat="4.63463" lon="-74.0684">
        <ele>2570.9</ele>
        <time>2020-08-30T13:13:58Z</time>
      </trkpt>
      <trkpt lat="4.63468" lon="-74.06842">
        <ele>2570.9</ele>
        <time>2020-08-30T13:14:00Z</time>
      </trkpt>
      <trkpt lat="4.63473" lon="-74.06842">
        <ele>2570.7</ele>
        <time>2020-08-30T13:14:02Z</time>
      </trkpt>
      <trkpt lat="4.63481" lon="-74.06841">
        <ele>2570.4</ele>
        <time>2020-08-30T13:14:04Z</time>
      </trkpt>
      <trkpt lat="4.63485" lon="-74.06841">
        <ele>2570.3</ele>
        <time>2020-08-30T13:14:05Z</time>
      </trkpt>
      <trkpt lat="4.63486" lon="-74.06841">
        <ele>2570.2</ele>
        <time>2020-08-30T13:14:06Z</time>
      </trkpt>
      <trkpt lat="4.63491" lon="-74.06839">
        <ele>2570</ele>
        <time>2020-08-30T13:14:08Z</time>
      </trkpt>
      <trkpt lat="4.63494" lon="-74.06838">
        <ele>2569.9</ele>
        <time>2020-08-30T13:14:09Z</time>
      </trkpt>
      <trkpt lat="4.63499" lon="-74.06836">
        <ele>2569.8</ele>
        <time>2020-08-30T13:14:11Z</time>
      </trkpt>
      <trkpt lat="4.63504" lon="-74.06834">
        <ele>2569.6</ele>
        <time>2020-08-30T13:14:13Z</time>
      </trkpt>
      <trkpt lat="4.63508" lon="-74.06833">
        <ele>2569.6</ele>
        <time>2020-08-30T13:14:14Z</time>
      </trkpt>
      <trkpt lat="4.63509" lon="-74.06833">
        <ele>2569.5</ele>
        <time>2020-08-30T13:14:15Z</time>
      </trkpt>
      <trkpt lat="4.63511" lon="-74.06833">
        <ele>2569.5</ele>
        <time>2020-08-30T13:14:16Z</time>
      </trkpt>
      <trkpt lat="4.63516" lon="-74.06833">
        <ele>2569.4</ele>
        <time>2020-08-30T13:14:18Z</time>
      </trkpt>
      <trkpt lat="4.63519" lon="-74.06833">
        <ele>2569.4</ele>
        <time>2020-08-30T13:14:19Z</time>
      </trkpt>
      <trkpt lat="4.63523" lon="-74.06834">
        <ele>2569.3</ele>
        <time>2020-08-30T13:14:21Z</time>
      </trkpt>
      <trkpt lat="4.63526" lon="-74.06835">
        <ele>2569.3</ele>
        <time>2020-08-30T13:14:22Z</time>
      </trkpt>
      <trkpt lat="4.63532" lon="-74.06836">
        <ele>2569.2</ele>
        <time>2020-08-30T13:14:24Z</time>
      </trkpt>
      <trkpt lat="4.63537" lon="-74.06836">
        <ele>2569.1</ele>
        <time>2020-08-30T13:14:26Z</time>
      </trkpt>
      <trkpt lat="4.6354" lon="-74.06836">
        <ele>2569</ele>
        <time>2020-08-30T13:14:27Z</time>
      </trkpt>
      <trkpt lat="4.63541" lon="-74.06836">
        <ele>2569</ele>
        <time>2020-08-30T13:14:28Z</time>
      </trkpt>
      <trkpt lat="4.63543" lon="-74.06835">
        <ele>2569</ele>
        <time>2020-08-30T13:14:29Z</time>
      </trkpt>
      <trkpt lat="4.63547" lon="-74.06832">
        <ele>2568.9</ele>
        <time>2020-08-30T13:14:31Z</time>
      </trkpt>
      <trkpt lat="4.63552" lon="-74.06829">
        <ele>2568.8</ele>
        <time>2020-08-30T13:14:33Z</time>
      </trkpt>
      <trkpt lat="4.63556" lon="-74.06826">
        <ele>2568.7</ele>
        <time>2020-08-30T13:14:35Z</time>
      </trkpt>
      <trkpt lat="4.63559" lon="-74.06824">
        <ele>2568.7</ele>
        <time>2020-08-30T13:14:36Z</time>
      </trkpt>
      <trkpt lat="4.6356" lon="-74.06823">
        <ele>2568.6</ele>
        <time>2020-08-30T13:14:37Z</time>
      </trkpt>
      <trkpt lat="4.63562" lon="-74.06822">
        <ele>2568.6</ele>
        <time>2020-08-30T13:14:38Z</time>
      </trkpt>
      <trkpt lat="4.63567" lon="-74.06821">
        <ele>2568.7</ele>
        <time>2020-08-30T13:14:40Z</time>
      </trkpt>
      <trkpt lat="4.63571" lon="-74.06821">
        <ele>2568.8</ele>
        <time>2020-08-30T13:14:42Z</time>
      </trkpt>
      <trkpt lat="4.63579" lon="-74.0682">
        <ele>2569</ele>
        <time>2020-08-30T13:14:44Z</time>
      </trkpt>
      <trkpt lat="4.63581" lon="-74.06819">
        <ele>2569</ele>
        <time>2020-08-30T13:14:45Z</time>
      </trkpt>
      <trkpt lat="4.63585" lon="-74.06818">
        <ele>2569</ele>
        <time>2020-08-30T13:14:47Z</time>
      </trkpt>
      <trkpt lat="4.63588" lon="-74.06818">
        <ele>2569</ele>
        <time>2020-08-30T13:14:48Z</time>
      </trkpt>
      <trkpt lat="4.63592" lon="-74.06818">
        <ele>2569</ele>
        <time>2020-08-30T13:14:50Z</time>
      </trkpt>
      <trkpt lat="4.63597" lon="-74.06817">
        <ele>2569</ele>
        <time>2020-08-30T13:14:52Z</time>
      </trkpt>
      <trkpt lat="4.636" lon="-74.06817">
        <ele>2569</ele>
        <time>2020-08-30T13:14:53Z</time>
      </trkpt>
      <trkpt lat="4.63608" lon="-74.06816">
        <ele>2568.9</ele>
        <time>2020-08-30T13:14:55Z</time>
      </trkpt>
      <trkpt lat="4.63611" lon="-74.06815">
        <ele>2568.9</ele>
        <time>2020-08-30T13:14:57Z</time>
      </trkpt>
      <trkpt lat="4.63614" lon="-74.06815">
        <ele>2568.8</ele>
        <time>2020-08-30T13:14:58Z</time>
      </trkpt>
      <trkpt lat="4.63616" lon="-74.06814">
        <ele>2568.8</ele>
        <time>2020-08-30T13:14:59Z</time>
      </trkpt>
      <trkpt lat="4.63621" lon="-74.06814">
        <ele>2568.7</ele>
        <time>2020-08-30T13:15:01Z</time>
      </trkpt>
      <trkpt lat="4.63624" lon="-74.06813">
        <ele>2568.6</ele>
        <time>2020-08-30T13:15:02Z</time>
      </trkpt>
      <trkpt lat="4.63625" lon="-74.06813">
        <ele>2568.6</ele>
        <time>2020-08-30T13:15:03Z</time>
      </trkpt>
      <trkpt lat="4.63629" lon="-74.0681">
        <ele>2568.6</ele>
        <time>2020-08-30T13:15:04Z</time>
      </trkpt>
      <trkpt lat="4.63633" lon="-74.06808">
        <ele>2568.5</ele>
        <time>2020-08-30T13:15:06Z</time>
      </trkpt>
      <trkpt lat="4.63636" lon="-74.06806">
        <ele>2568.5</ele>
        <time>2020-08-30T13:15:07Z</time>
      </trkpt>
      <trkpt lat="4.63638" lon="-74.06804">
        <ele>2568.5</ele>
        <time>2020-08-30T13:15:08Z</time>
      </trkpt>
      <trkpt lat="4.63642" lon="-74.06802">
        <ele>2568.4</ele>
        <time>2020-08-30T13:15:10Z</time>
      </trkpt>
      <trkpt lat="4.63648" lon="-74.06801">
        <ele>2568.4</ele>
        <time>2020-08-30T13:15:12Z</time>
      </trkpt>
      <trkpt lat="4.6365" lon="-74.06801">
        <ele>2568.5</ele>
        <time>2020-08-30T13:15:13Z</time>
      </trkpt>
      <trkpt lat="4.63657" lon="-74.06799">
        <ele>2568.5</ele>
        <time>2020-08-30T13:15:15Z</time>
      </trkpt>
      <trkpt lat="4.6366" lon="-74.06799">
        <ele>2568.6</ele>
        <time>2020-08-30T13:15:16Z</time>
      </trkpt>
      <trkpt lat="4.63661" lon="-74.06798">
        <ele>2568.6</ele>
        <time>2020-08-30T13:15:17Z</time>
      </trkpt>
      <trkpt lat="4.63664" lon="-74.06797">
        <ele>2568.6</ele>
        <time>2020-08-30T13:15:19Z</time>
      </trkpt>
      <trkpt lat="4.63665" lon="-74.06795">
        <ele>2568.6</ele>
        <time>2020-08-30T13:15:20Z</time>
      </trkpt>
      <trkpt lat="4.63667" lon="-74.06793">
        <ele>2568.8</ele>
        <time>2020-08-30T13:15:22Z</time>
      </trkpt>
      <trkpt lat="4.63667" lon="-74.06792">
        <ele>2568.8</ele>
        <time>2020-08-30T13:15:23Z</time>
      </trkpt>
      <trkpt lat="4.63668" lon="-74.06787">
        <ele>2568.9</ele>
        <time>2020-08-30T13:15:25Z</time>
      </trkpt>
      <trkpt lat="4.63668" lon="-74.06785">
        <ele>2568.9</ele>
        <time>2020-08-30T13:15:26Z</time>
      </trkpt>
      <trkpt lat="4.63667" lon="-74.06782">
        <ele>2569</ele>
        <time>2020-08-30T13:15:28Z</time>
      </trkpt>
      <trkpt lat="4.63667" lon="-74.0678">
        <ele>2569</ele>
        <time>2020-08-30T13:15:29Z</time>
      </trkpt>
      <trkpt lat="4.63666" lon="-74.06776">
        <ele>2569</ele>
        <time>2020-08-30T13:15:31Z</time>
      </trkpt>
      <trkpt lat="4.63666" lon="-74.06773">
        <ele>2569.1</ele>
        <time>2020-08-30T13:15:32Z</time>
      </trkpt>
      <trkpt lat="4.63665" lon="-74.06772">
        <ele>2569.1</ele>
        <time>2020-08-30T13:15:33Z</time>
      </trkpt>
      <trkpt lat="4.63664" lon="-74.06766">
        <ele>2569.2</ele>
        <time>2020-08-30T13:15:35Z</time>
      </trkpt>
      <trkpt lat="4.63663" lon="-74.06761">
        <ele>2569.3</ele>
        <time>2020-08-30T13:15:37Z</time>
      </trkpt>
      <trkpt lat="4.63662" lon="-74.06758">
        <ele>2569.4</ele>
        <time>2020-08-30T13:15:38Z</time>
      </trkpt>
      <trkpt lat="4.6366" lon="-74.06752">
        <ele>2569.5</ele>
        <time>2020-08-30T13:15:40Z</time>
      </trkpt>
      <trkpt lat="4.63657" lon="-74.06746">
        <ele>2569.6</ele>
        <time>2020-08-30T13:15:42Z</time>
      </trkpt>
      <trkpt lat="4.63656" lon="-74.06742">
        <ele>2569.6</ele>
        <time>2020-08-30T13:15:43Z</time>
      </trkpt>
      <trkpt lat="4.63653" lon="-74.06731">
        <ele>2569.7</ele>
        <time>2020-08-30T13:15:45Z</time>
      </trkpt>
      <trkpt lat="4.63652" lon="-74.06726">
        <ele>2569.8</ele>
        <time>2020-08-30T13:15:46Z</time>
      </trkpt>
      <trkpt lat="4.63647" lon="-74.06719">
        <ele>2569.9</ele>
        <time>2020-08-30T13:15:48Z</time>
      </trkpt>
      <trkpt lat="4.63644" lon="-74.06711">
        <ele>2570</ele>
        <time>2020-08-30T13:15:49Z</time>
      </trkpt>
      <trkpt lat="4.63642" lon="-74.06707">
        <ele>2570.1</ele>
        <time>2020-08-30T13:15:50Z</time>
      </trkpt>
      <trkpt lat="4.63641" lon="-74.06704">
        <ele>2570.2</ele>
        <time>2020-08-30T13:15:51Z</time>
      </trkpt>
      <trkpt lat="4.6364" lon="-74.06701">
        <ele>2570.4</ele>
        <time>2020-08-30T13:15:52Z</time>
      </trkpt>
      <trkpt lat="4.63638" lon="-74.06693">
        <ele>2570.9</ele>
        <time>2020-08-30T13:15:54Z</time>
      </trkpt>
      <trkpt lat="4.63638" lon="-74.0669">
        <ele>2571</ele>
        <time>2020-08-30T13:15:55Z</time>
      </trkpt>
      <trkpt lat="4.63637" lon="-74.06684">
        <ele>2571.3</ele>
        <time>2020-08-30T13:15:57Z</time>
      </trkpt>
      <trkpt lat="4.63637" lon="-74.06679">
        <ele>2571.7</ele>
        <time>2020-08-30T13:15:59Z</time>
      </trkpt>
      <trkpt lat="4.63637" lon="-74.06673">
        <ele>2572</ele>
        <time>2020-08-30T13:16:01Z</time>
      </trkpt>
      <trkpt lat="4.63637" lon="-74.06668">
        <ele>2572.4</ele>
        <time>2020-08-30T13:16:03Z</time>
      </trkpt>
      <trkpt lat="4.63637" lon="-74.06663">
        <ele>2572.7</ele>
        <time>2020-08-30T13:16:04Z</time>
      </trkpt>
      <trkpt lat="4.63637" lon="-74.06658">
        <ele>2573</ele>
        <time>2020-08-30T13:16:06Z</time>
      </trkpt>
      <trkpt lat="4.63636" lon="-74.06655">
        <ele>2573.1</ele>
        <time>2020-08-30T13:16:08Z</time>
      </trkpt>
      <trkpt lat="4.63636" lon="-74.06651">
        <ele>2573.3</ele>
        <time>2020-08-30T13:16:09Z</time>
      </trkpt>
      <trkpt lat="4.63636" lon="-74.06646">
        <ele>2573.6</ele>
        <time>2020-08-30T13:16:11Z</time>
      </trkpt>
      <trkpt lat="4.63636" lon="-74.06641">
        <ele>2573.8</ele>
        <time>2020-08-30T13:16:13Z</time>
      </trkpt>
      <trkpt lat="4.63636" lon="-74.06637">
        <ele>2574</ele>
        <time>2020-08-30T13:16:15Z</time>
      </trkpt>
      <trkpt lat="4.63636" lon="-74.06633">
        <ele>2574.2</ele>
        <time>2020-08-30T13:16:17Z</time>
      </trkpt>
      <trkpt lat="4.63636" lon="-74.06629">
        <ele>2574.4</ele>
        <time>2020-08-30T13:16:19Z</time>
      </trkpt>
      <trkpt lat="4.63636" lon="-74.06624">
        <ele>2574.7</ele>
        <time>2020-08-30T13:16:21Z</time>
      </trkpt>
      <trkpt lat="4.63636" lon="-74.06622">
        <ele>2574.8</ele>
        <time>2020-08-30T13:16:22Z</time>
      </trkpt>
      <trkpt lat="4.63636" lon="-74.06619">
        <ele>2575</ele>
        <time>2020-08-30T13:16:24Z</time>
      </trkpt>
      <trkpt lat="4.63636" lon="-74.06617">
        <ele>2575.1</ele>
        <time>2020-08-30T13:16:25Z</time>
      </trkpt>
      <trkpt lat="4.63637" lon="-74.06613">
        <ele>2575.3</ele>
        <time>2020-08-30T13:16:27Z</time>
      </trkpt>
      <trkpt lat="4.63636" lon="-74.06608">
        <ele>2575.5</ele>
        <time>2020-08-30T13:16:29Z</time>
      </trkpt>
      <trkpt lat="4.63636" lon="-74.06606">
        <ele>2575.6</ele>
        <time>2020-08-30T13:16:30Z</time>
      </trkpt>
      <trkpt lat="4.63635" lon="-74.06603">
        <ele>2575.8</ele>
        <time>2020-08-30T13:16:32Z</time>
      </trkpt>
      <trkpt lat="4.63632" lon="-74.066">
        <ele>2576</ele>
        <time>2020-08-30T13:16:34Z</time>
      </trkpt>
      <trkpt lat="4.6363" lon="-74.06596">
        <ele>2576.3</ele>
        <time>2020-08-30T13:16:36Z</time>
      </trkpt>
      <trkpt lat="4.63629" lon="-74.06594">
        <ele>2576.4</ele>
        <time>2020-08-30T13:16:37Z</time>
      </trkpt>
      <trkpt lat="4.63627" lon="-74.0659">
        <ele>2576.7</ele>
        <time>2020-08-30T13:16:39Z</time>
      </trkpt>
      <trkpt lat="4.63625" lon="-74.06585">
        <ele>2577.1</ele>
        <time>2020-08-30T13:16:40Z</time>
      </trkpt>
      <trkpt lat="4.63623" lon="-74.06582">
        <ele>2577.4</ele>
        <time>2020-08-30T13:16:42Z</time>
      </trkpt>
      <trkpt lat="4.63621" lon="-74.0658">
        <ele>2577.6</ele>
        <time>2020-08-30T13:16:44Z</time>
      </trkpt>
      <trkpt lat="4.63619" lon="-74.06578">
        <ele>2578.1</ele>
        <time>2020-08-30T13:16:46Z</time>
      </trkpt>
      <trkpt lat="4.63618" lon="-74.06578">
        <ele>2578</ele>
        <time>2020-08-30T13:16:47Z</time>
      </trkpt>
      <trkpt lat="4.63617" lon="-74.06579">
        <ele>2578</ele>
        <time>2020-08-30T13:16:49Z</time>
      </trkpt>
      <trkpt lat="4.63616" lon="-74.0658">
        <ele>2578</ele>
        <time>2020-08-30T13:16:51Z</time>
      </trkpt>
      <trkpt lat="4.63616" lon="-74.06581">
        <ele>2578</ele>
        <time>2020-08-30T13:16:52Z</time>
      </trkpt>
      <trkpt lat="4.63616" lon="-74.06581">
        <ele>2578</ele>
        <time>2020-08-30T13:16:54Z</time>
      </trkpt>
      <trkpt lat="4.63615" lon="-74.0658">
        <ele>2577.9</ele>
        <time>2020-08-30T13:16:56Z</time>
      </trkpt>
      <trkpt lat="4.63612" lon="-74.0658">
        <ele>2577.9</ele>
        <time>2020-08-30T13:16:58Z</time>
      </trkpt>
      <trkpt lat="4.6361" lon="-74.06578">
        <ele>2577.9</ele>
        <time>2020-08-30T13:16:59Z</time>
      </trkpt>
      <trkpt lat="4.63608" lon="-74.06578">
        <ele>2577.8</ele>
        <time>2020-08-30T13:17:00Z</time>
      </trkpt>
      <trkpt lat="4.63607" lon="-74.06577">
        <ele>2577.8</ele>
        <time>2020-08-30T13:17:01Z</time>
      </trkpt>
      <trkpt lat="4.63605" lon="-74.06576">
        <ele>2577.8</ele>
        <time>2020-08-30T13:17:03Z</time>
      </trkpt>
      <trkpt lat="4.63602" lon="-74.06575">
        <ele>2577.7</ele>
        <time>2020-08-30T13:17:04Z</time>
      </trkpt>
      <trkpt lat="4.63598" lon="-74.06574">
        <ele>2577.7</ele>
        <time>2020-08-30T13:17:06Z</time>
      </trkpt>
      <trkpt lat="4.63594" lon="-74.06574">
        <ele>2577.6</ele>
        <time>2020-08-30T13:17:08Z</time>
      </trkpt>
      <trkpt lat="4.63592" lon="-74.06574">
        <ele>2577.6</ele>
        <time>2020-08-30T13:17:09Z</time>
      </trkpt>
      <trkpt lat="4.63587" lon="-74.06575">
        <ele>2577.5</ele>
        <time>2020-08-30T13:17:11Z</time>
      </trkpt>
      <trkpt lat="4.63586" lon="-74.06576">
        <ele>2577.5</ele>
        <time>2020-08-30T13:17:12Z</time>
      </trkpt>
      <trkpt lat="4.63582" lon="-74.06576">
        <ele>2577.4</ele>
        <time>2020-08-30T13:17:14Z</time>
      </trkpt>
      <trkpt lat="4.63577" lon="-74.06576">
        <ele>2577.4</ele>
        <time>2020-08-30T13:17:16Z</time>
      </trkpt>
      <trkpt lat="4.63572" lon="-74.06576">
        <ele>2577.3</ele>
        <time>2020-08-30T13:17:18Z</time>
      </trkpt>
      <trkpt lat="4.6357" lon="-74.06577">
        <ele>2577.3</ele>
        <time>2020-08-30T13:17:19Z</time>
      </trkpt>
      <trkpt lat="4.63562" lon="-74.06578">
        <ele>2577.3</ele>
        <time>2020-08-30T13:17:21Z</time>
      </trkpt>
      <trkpt lat="4.63559" lon="-74.06578">
        <ele>2577.3</ele>
        <time>2020-08-30T13:17:22Z</time>
      </trkpt>
      <trkpt lat="4.63555" lon="-74.06579">
        <ele>2577.3</ele>
        <time>2020-08-30T13:17:24Z</time>
      </trkpt>
      <trkpt lat="4.6355" lon="-74.0658">
        <ele>2577.3</ele>
        <time>2020-08-30T13:17:25Z</time>
      </trkpt>
      <trkpt lat="4.63546" lon="-74.0658">
        <ele>2577.3</ele>
        <time>2020-08-30T13:17:26Z</time>
      </trkpt>
      <trkpt lat="4.6354" lon="-74.06581">
        <ele>2577.3</ele>
        <time>2020-08-30T13:17:28Z</time>
      </trkpt>
      <trkpt lat="4.63537" lon="-74.06582">
        <ele>2577.3</ele>
        <time>2020-08-30T13:17:29Z</time>
      </trkpt>
      <trkpt lat="4.63529" lon="-74.06583">
        <ele>2577.3</ele>
        <time>2020-08-30T13:17:31Z</time>
      </trkpt>
      <trkpt lat="4.63527" lon="-74.06583">
        <ele>2577.3</ele>
        <time>2020-08-30T13:17:32Z</time>
      </trkpt>
      <trkpt lat="4.63523" lon="-74.06584">
        <ele>2577.4</ele>
        <time>2020-08-30T13:17:34Z</time>
      </trkpt>
      <trkpt lat="4.63519" lon="-74.06585">
        <ele>2577.4</ele>
        <time>2020-08-30T13:17:35Z</time>
      </trkpt>
      <trkpt lat="4.63513" lon="-74.06585">
        <ele>2577.5</ele>
        <time>2020-08-30T13:17:37Z</time>
      </trkpt>
      <trkpt lat="4.63511" lon="-74.06585">
        <ele>2577.5</ele>
        <time>2020-08-30T13:17:38Z</time>
      </trkpt>
      <trkpt lat="4.63504" lon="-74.06586">
        <ele>2577.6</ele>
        <time>2020-08-30T13:17:40Z</time>
      </trkpt>
      <trkpt lat="4.63502" lon="-74.06586">
        <ele>2577.7</ele>
        <time>2020-08-30T13:17:41Z</time>
      </trkpt>
      <trkpt lat="4.63498" lon="-74.06588">
        <ele>2577.7</ele>
        <time>2020-08-30T13:17:43Z</time>
      </trkpt>
      <trkpt lat="4.63493" lon="-74.0659">
        <ele>2577.8</ele>
        <time>2020-08-30T13:17:45Z</time>
      </trkpt>
      <trkpt lat="4.63492" lon="-74.06591">
        <ele>2577.8</ele>
        <time>2020-08-30T13:17:46Z</time>
      </trkpt>
      <trkpt lat="4.63491" lon="-74.06591">
        <ele>2577.9</ele>
        <time>2020-08-30T13:17:47Z</time>
      </trkpt>
      <trkpt lat="4.63487" lon="-74.06593">
        <ele>2577.9</ele>
        <time>2020-08-30T13:17:49Z</time>
      </trkpt>
      <trkpt lat="4.63481" lon="-74.06593">
        <ele>2578.1</ele>
        <time>2020-08-30T13:17:51Z</time>
      </trkpt>
      <trkpt lat="4.63479" lon="-74.06593">
        <ele>2578.1</ele>
        <time>2020-08-30T13:17:52Z</time>
      </trkpt>
      <trkpt lat="4.63475" lon="-74.06593">
        <ele>2578.2</ele>
        <time>2020-08-30T13:17:54Z</time>
      </trkpt>
      <trkpt lat="4.63471" lon="-74.06593">
        <ele>2578.4</ele>
        <time>2020-08-30T13:17:55Z</time>
      </trkpt>
      <trkpt lat="4.63468" lon="-74.06594">
        <ele>2578.4</ele>
        <time>2020-08-30T13:17:56Z</time>
      </trkpt>
      <trkpt lat="4.63463" lon="-74.06595">
        <ele>2578.6</ele>
        <time>2020-08-30T13:17:58Z</time>
      </trkpt>
      <trkpt lat="4.63456" lon="-74.06595">
        <ele>2578.8</ele>
        <time>2020-08-30T13:18:00Z</time>
      </trkpt>
      <trkpt lat="4.63453" lon="-74.06595">
        <ele>2578.9</ele>
        <time>2020-08-30T13:18:01Z</time>
      </trkpt>
      <trkpt lat="4.63446" lon="-74.06595">
        <ele>2579.1</ele>
        <time>2020-08-30T13:18:03Z</time>
      </trkpt>
      <trkpt lat="4.63443" lon="-74.06595">
        <ele>2579.2</ele>
        <time>2020-08-30T13:18:04Z</time>
      </trkpt>
      <trkpt lat="4.6344" lon="-74.06595">
        <ele>2579.3</ele>
        <time>2020-08-30T13:18:05Z</time>
      </trkpt>
      <trkpt lat="4.63437" lon="-74.06596">
        <ele>2579.4</ele>
        <time>2020-08-30T13:18:06Z</time>
      </trkpt>
      <trkpt lat="4.63431" lon="-74.06598">
        <ele>2579.6</ele>
        <time>2020-08-30T13:18:08Z</time>
      </trkpt>
      <trkpt lat="4.63429" lon="-74.06599">
        <ele>2579.7</ele>
        <time>2020-08-30T13:18:09Z</time>
      </trkpt>
      <trkpt lat="4.63426" lon="-74.066">
        <ele>2579.8</ele>
        <time>2020-08-30T13:18:10Z</time>
      </trkpt>
      <trkpt lat="4.63421" lon="-74.06601">
        <ele>2579.9</ele>
        <time>2020-08-30T13:18:12Z</time>
      </trkpt>
      <trkpt lat="4.63418" lon="-74.06602">
        <ele>2580</ele>
        <time>2020-08-30T13:18:13Z</time>
      </trkpt>
      <trkpt lat="4.63413" lon="-74.06603">
        <ele>2580</ele>
        <time>2020-08-30T13:18:15Z</time>
      </trkpt>
      <trkpt lat="4.63408" lon="-74.06606">
        <ele>2580.1</ele>
        <time>2020-08-30T13:18:17Z</time>
      </trkpt>
      <trkpt lat="4.63405" lon="-74.06609">
        <ele>2580.2</ele>
        <time>2020-08-30T13:18:19Z</time>
      </trkpt>
      <trkpt lat="4.63401" lon="-74.06612">
        <ele>2580.2</ele>
        <time>2020-08-30T13:18:21Z</time>
      </trkpt>
      <trkpt lat="4.63399" lon="-74.06614">
        <ele>2580.2</ele>
        <time>2020-08-30T13:18:23Z</time>
      </trkpt>
      <trkpt lat="4.63397" lon="-74.06616">
        <ele>2580.3</ele>
        <time>2020-08-30T13:18:24Z</time>
      </trkpt>
      <trkpt lat="4.63394" lon="-74.06617">
        <ele>2580.3</ele>
        <time>2020-08-30T13:18:25Z</time>
      </trkpt>
      <trkpt lat="4.63393" lon="-74.06617">
        <ele>2580.3</ele>
        <time>2020-08-30T13:18:26Z</time>
      </trkpt>
      <trkpt lat="4.63389" lon="-74.06618">
        <ele>2580.3</ele>
        <time>2020-08-30T13:18:28Z</time>
      </trkpt>
      <trkpt lat="4.63386" lon="-74.06618">
        <ele>2580.3</ele>
        <time>2020-08-30T13:18:29Z</time>
      </trkpt>
      <trkpt lat="4.63382" lon="-74.06618">
        <ele>2580.4</ele>
        <time>2020-08-30T13:18:31Z</time>
      </trkpt>
      <trkpt lat="4.63379" lon="-74.06618">
        <ele>2580.4</ele>
        <time>2020-08-30T13:18:33Z</time>
      </trkpt>
      <trkpt lat="4.63376" lon="-74.06618">
        <ele>2580.5</ele>
        <time>2020-08-30T13:18:34Z</time>
      </trkpt>
      <trkpt lat="4.63374" lon="-74.06618">
        <ele>2580.5</ele>
        <time>2020-08-30T13:18:35Z</time>
      </trkpt>
      <trkpt lat="4.63368" lon="-74.06618">
        <ele>2580.6</ele>
        <time>2020-08-30T13:18:37Z</time>
      </trkpt>
      <trkpt lat="4.63361" lon="-74.06618">
        <ele>2580.7</ele>
        <time>2020-08-30T13:18:39Z</time>
      </trkpt>
      <trkpt lat="4.63358" lon="-74.06618">
        <ele>2580.7</ele>
        <time>2020-08-30T13:18:40Z</time>
      </trkpt>
      <trkpt lat="4.63351" lon="-74.06617">
        <ele>2580.8</ele>
        <time>2020-08-30T13:18:42Z</time>
      </trkpt>
      <trkpt lat="4.63346" lon="-74.06617">
        <ele>2580.9</ele>
        <time>2020-08-30T13:18:44Z</time>
      </trkpt>
      <trkpt lat="4.6334" lon="-74.06618">
        <ele>2581</ele>
        <time>2020-08-30T13:18:46Z</time>
      </trkpt>
      <trkpt lat="4.63338" lon="-74.06618">
        <ele>2581.1</ele>
        <time>2020-08-30T13:18:47Z</time>
      </trkpt>
      <trkpt lat="4.63334" lon="-74.06619">
        <ele>2581.1</ele>
        <time>2020-08-30T13:18:49Z</time>
      </trkpt>
      <trkpt lat="4.6333" lon="-74.06619">
        <ele>2581.2</ele>
        <time>2020-08-30T13:18:50Z</time>
      </trkpt>
      <trkpt lat="4.63329" lon="-74.06619">
        <ele>2581.2</ele>
        <time>2020-08-30T13:18:51Z</time>
      </trkpt>
      <trkpt lat="4.63324" lon="-74.06619">
        <ele>2581.2</ele>
        <time>2020-08-30T13:18:53Z</time>
      </trkpt>
      <trkpt lat="4.63322" lon="-74.0662">
        <ele>2581.2</ele>
        <time>2020-08-30T13:18:54Z</time>
      </trkpt>
      <trkpt lat="4.63318" lon="-74.0662">
        <ele>2581.2</ele>
        <time>2020-08-30T13:18:56Z</time>
      </trkpt>
      <trkpt lat="4.63315" lon="-74.06621">
        <ele>2581.2</ele>
        <time>2020-08-30T13:18:57Z</time>
      </trkpt>
      <trkpt lat="4.63312" lon="-74.06623">
        <ele>2581.2</ele>
        <time>2020-08-30T13:18:59Z</time>
      </trkpt>
      <trkpt lat="4.63309" lon="-74.06626">
        <ele>2581.2</ele>
        <time>2020-08-30T13:19:01Z</time>
      </trkpt>
      <trkpt lat="4.63305" lon="-74.06629">
        <ele>2581.3</ele>
        <time>2020-08-30T13:19:03Z</time>
      </trkpt>
      <trkpt lat="4.63304" lon="-74.06632">
        <ele>2581.3</ele>
        <time>2020-08-30T13:19:04Z</time>
      </trkpt>
      <trkpt lat="4.63302" lon="-74.06638">
        <ele>2581.4</ele>
        <time>2020-08-30T13:19:06Z</time>
      </trkpt>
      <trkpt lat="4.63301" lon="-74.06641">
        <ele>2581.4</ele>
        <time>2020-08-30T13:19:07Z</time>
      </trkpt>
      <trkpt lat="4.633" lon="-74.06646">
        <ele>2581.5</ele>
        <time>2020-08-30T13:19:09Z</time>
      </trkpt>
      <trkpt lat="4.63299" lon="-74.06651">
        <ele>2581.6</ele>
        <time>2020-08-30T13:19:11Z</time>
      </trkpt>
      <trkpt lat="4.63299" lon="-74.06654">
        <ele>2581.6</ele>
        <time>2020-08-30T13:19:12Z</time>
      </trkpt>
      <trkpt lat="4.63294" lon="-74.06652">
        <ele>2581.7</ele>
        <time>2020-08-30T13:19:14Z</time>
      </trkpt>
      <trkpt lat="4.63289" lon="-74.06651">
        <ele>2581.8</ele>
        <time>2020-08-30T13:19:16Z</time>
      </trkpt>
      <trkpt lat="4.63287" lon="-74.06651">
        <ele>2581.8</ele>
        <time>2020-08-30T13:19:17Z</time>
      </trkpt>
      <trkpt lat="4.63282" lon="-74.06652">
        <ele>2581.9</ele>
        <time>2020-08-30T13:19:19Z</time>
      </trkpt>
      <trkpt lat="4.6328" lon="-74.06652">
        <ele>2581.9</ele>
        <time>2020-08-30T13:19:20Z</time>
      </trkpt>
      <trkpt lat="4.63279" lon="-74.06652">
        <ele>2581.9</ele>
        <time>2020-08-30T13:19:21Z</time>
      </trkpt>
      <trkpt lat="4.63275" lon="-74.06653">
        <ele>2582</ele>
        <time>2020-08-30T13:19:23Z</time>
      </trkpt>
      <trkpt lat="4.63272" lon="-74.06653">
        <ele>2582</ele>
        <time>2020-08-30T13:19:24Z</time>
      </trkpt>
      <trkpt lat="4.63265" lon="-74.06652">
        <ele>2582.1</ele>
        <time>2020-08-30T13:19:26Z</time>
      </trkpt>
      <trkpt lat="4.63256" lon="-74.0665">
        <ele>2582.1</ele>
        <time>2020-08-30T13:19:28Z</time>
      </trkpt>
      <trkpt lat="4.63252" lon="-74.0665">
        <ele>2582.1</ele>
        <time>2020-08-30T13:19:29Z</time>
      </trkpt>
      <trkpt lat="4.63243" lon="-74.06647">
        <ele>2582</ele>
        <time>2020-08-30T13:19:31Z</time>
      </trkpt>
      <trkpt lat="4.63239" lon="-74.06646">
        <ele>2582</ele>
        <time>2020-08-30T13:19:32Z</time>
      </trkpt>
      <trkpt lat="4.63233" lon="-74.06643">
        <ele>2582</ele>
        <time>2020-08-30T13:19:34Z</time>
      </trkpt>
      <trkpt lat="4.6323" lon="-74.06642">
        <ele>2581.9</ele>
        <time>2020-08-30T13:19:35Z</time>
      </trkpt>
      <trkpt lat="4.63227" lon="-74.06642">
        <ele>2581.9</ele>
        <time>2020-08-30T13:19:36Z</time>
      </trkpt>
      <trkpt lat="4.63221" lon="-74.06641">
        <ele>2581.9</ele>
        <time>2020-08-30T13:19:38Z</time>
      </trkpt>
      <trkpt lat="4.63219" lon="-74.06641">
        <ele>2581.9</ele>
        <time>2020-08-30T13:19:39Z</time>
      </trkpt>
      <trkpt lat="4.63218" lon="-74.0664">
        <ele>2581.9</ele>
        <time>2020-08-30T13:19:41Z</time>
      </trkpt>
      <trkpt lat="4.63216" lon="-74.06638">
        <ele>2582</ele>
        <time>2020-08-30T13:19:43Z</time>
      </trkpt>
      <trkpt lat="4.63215" lon="-74.06638">
        <ele>2582</ele>
        <time>2020-08-30T13:19:44Z</time>
      </trkpt>
      <trkpt lat="4.63209" lon="-74.06638">
        <ele>2582</ele>
        <time>2020-08-30T13:19:46Z</time>
      </trkpt>
      <trkpt lat="4.63206" lon="-74.06638">
        <ele>2582</ele>
        <time>2020-08-30T13:19:47Z</time>
      </trkpt>
      <trkpt lat="4.63204" lon="-74.06639">
        <ele>2582</ele>
        <time>2020-08-30T13:19:48Z</time>
      </trkpt>
      <trkpt lat="4.63198" lon="-74.06639">
        <ele>2581.9</ele>
        <time>2020-08-30T13:19:50Z</time>
      </trkpt>
      <trkpt lat="4.63195" lon="-74.06639">
        <ele>2581.9</ele>
        <time>2020-08-30T13:19:51Z</time>
      </trkpt>
      <trkpt lat="4.63192" lon="-74.06639">
        <ele>2581.9</ele>
        <time>2020-08-30T13:19:52Z</time>
      </trkpt>
      <trkpt lat="4.63185" lon="-74.06641">
        <ele>2581.8</ele>
        <time>2020-08-30T13:19:54Z</time>
      </trkpt>
      <trkpt lat="4.63183" lon="-74.06642">
        <ele>2581.8</ele>
        <time>2020-08-30T13:19:55Z</time>
      </trkpt>
      <trkpt lat="4.63177" lon="-74.06644">
        <ele>2581.7</ele>
        <time>2020-08-30T13:19:57Z</time>
      </trkpt>
      <trkpt lat="4.63171" lon="-74.06646">
        <ele>2581.7</ele>
        <time>2020-08-30T13:19:59Z</time>
      </trkpt>
      <trkpt lat="4.63166" lon="-74.06646">
        <ele>2581.7</ele>
        <time>2020-08-30T13:20:01Z</time>
      </trkpt>
      <trkpt lat="4.63163" lon="-74.06646">
        <ele>2581.7</ele>
        <time>2020-08-30T13:20:02Z</time>
      </trkpt>
      <trkpt lat="4.63159" lon="-74.06646">
        <ele>2581.7</ele>
        <time>2020-08-30T13:20:03Z</time>
      </trkpt>
      <trkpt lat="4.63153" lon="-74.06646">
        <ele>2581.8</ele>
        <time>2020-08-30T13:20:05Z</time>
      </trkpt>
      <trkpt lat="4.6315" lon="-74.06646">
        <ele>2581.8</ele>
        <time>2020-08-30T13:20:06Z</time>
      </trkpt>
      <trkpt lat="4.63144" lon="-74.06645">
        <ele>2581.9</ele>
        <time>2020-08-30T13:20:08Z</time>
      </trkpt>
      <trkpt lat="4.63137" lon="-74.06644">
        <ele>2581.9</ele>
        <time>2020-08-30T13:20:10Z</time>
      </trkpt>
      <trkpt lat="4.63132" lon="-74.06645">
        <ele>2582</ele>
        <time>2020-08-30T13:20:12Z</time>
      </trkpt>
      <trkpt lat="4.63129" lon="-74.06645">
        <ele>2582</ele>
        <time>2020-08-30T13:20:13Z</time>
      </trkpt>
      <trkpt lat="4.63127" lon="-74.06646">
        <ele>2582</ele>
        <time>2020-08-30T13:20:14Z</time>
      </trkpt>
      <trkpt lat="4.63122" lon="-74.06648">
        <ele>2582</ele>
        <time>2020-08-30T13:20:16Z</time>
      </trkpt>
      <trkpt lat="4.63117" lon="-74.06649">
        <ele>2582.1</ele>
        <time>2020-08-30T13:20:18Z</time>
      </trkpt>
      <trkpt lat="4.63112" lon="-74.06651">
        <ele>2582.1</ele>
        <time>2020-08-30T13:20:20Z</time>
      </trkpt>
      <trkpt lat="4.63109" lon="-74.06651">
        <ele>2582.1</ele>
        <time>2020-08-30T13:20:21Z</time>
      </trkpt>
      <trkpt lat="4.63104" lon="-74.06653">
        <ele>2582.2</ele>
        <time>2020-08-30T13:20:23Z</time>
      </trkpt>
      <trkpt lat="4.63098" lon="-74.06654">
        <ele>2582.2</ele>
        <time>2020-08-30T13:20:25Z</time>
      </trkpt>
      <trkpt lat="4.63095" lon="-74.06655">
        <ele>2582.3</ele>
        <time>2020-08-30T13:20:26Z</time>
      </trkpt>
      <trkpt lat="4.63088" lon="-74.06656">
        <ele>2582.3</ele>
        <time>2020-08-30T13:20:28Z</time>
      </trkpt>
      <trkpt lat="4.63085" lon="-74.06657">
        <ele>2582.4</ele>
        <time>2020-08-30T13:20:29Z</time>
      </trkpt>
      <trkpt lat="4.63081" lon="-74.06657">
        <ele>2582.4</ele>
        <time>2020-08-30T13:20:30Z</time>
      </trkpt>
      <trkpt lat="4.63078" lon="-74.06658">
        <ele>2582.4</ele>
        <time>2020-08-30T13:20:31Z</time>
      </trkpt>
      <trkpt lat="4.63072" lon="-74.0666">
        <ele>2582.4</ele>
        <time>2020-08-30T13:20:33Z</time>
      </trkpt>
      <trkpt lat="4.63066" lon="-74.06662">
        <ele>2582.4</ele>
        <time>2020-08-30T13:20:35Z</time>
      </trkpt>
      <trkpt lat="4.6306" lon="-74.06665">
        <ele>2582.4</ele>
        <time>2020-08-30T13:20:37Z</time>
      </trkpt>
      <trkpt lat="4.63057" lon="-74.06666">
        <ele>2582.4</ele>
        <time>2020-08-30T13:20:38Z</time>
      </trkpt>
      <trkpt lat="4.63054" lon="-74.06667">
        <ele>2582.4</ele>
        <time>2020-08-30T13:20:39Z</time>
      </trkpt>
      <trkpt lat="4.63048" lon="-74.06668">
        <ele>2582.4</ele>
        <time>2020-08-30T13:20:41Z</time>
      </trkpt>
      <trkpt lat="4.63045" lon="-74.06668">
        <ele>2582.4</ele>
        <time>2020-08-30T13:20:42Z</time>
      </trkpt>
      <trkpt lat="4.6304" lon="-74.06669">
        <ele>2582.4</ele>
        <time>2020-08-30T13:20:44Z</time>
      </trkpt>
      <trkpt lat="4.63037" lon="-74.06669">
        <ele>2582.4</ele>
        <time>2020-08-30T13:20:45Z</time>
      </trkpt>
      <trkpt lat="4.63031" lon="-74.0667">
        <ele>2582.4</ele>
        <time>2020-08-30T13:20:47Z</time>
      </trkpt>
      <trkpt lat="4.63026" lon="-74.06671">
        <ele>2582.4</ele>
        <time>2020-08-30T13:20:49Z</time>
      </trkpt>
      <trkpt lat="4.63023" lon="-74.06672">
        <ele>2582.4</ele>
        <time>2020-08-30T13:20:50Z</time>
      </trkpt>
      <trkpt lat="4.63018" lon="-74.06672">
        <ele>2582.5</ele>
        <time>2020-08-30T13:20:52Z</time>
      </trkpt>
      <trkpt lat="4.63015" lon="-74.06673">
        <ele>2582.5</ele>
        <time>2020-08-30T13:20:53Z</time>
      </trkpt>
      <trkpt lat="4.6301" lon="-74.06674">
        <ele>2582.5</ele>
        <time>2020-08-30T13:20:55Z</time>
      </trkpt>
      <trkpt lat="4.63005" lon="-74.06674">
        <ele>2582.5</ele>
        <time>2020-08-30T13:20:57Z</time>
      </trkpt>
      <trkpt lat="4.62999" lon="-74.06675">
        <ele>2582.6</ele>
        <time>2020-08-30T13:20:59Z</time>
      </trkpt>
      <trkpt lat="4.62994" lon="-74.06676">
        <ele>2582.6</ele>
        <time>2020-08-30T13:21:01Z</time>
      </trkpt>
      <trkpt lat="4.62991" lon="-74.06676">
        <ele>2582.6</ele>
        <time>2020-08-30T13:21:02Z</time>
      </trkpt>
      <trkpt lat="4.62986" lon="-74.06676">
        <ele>2582.6</ele>
        <time>2020-08-30T13:21:04Z</time>
      </trkpt>
      <trkpt lat="4.62984" lon="-74.06676">
        <ele>2582.6</ele>
        <time>2020-08-30T13:21:05Z</time>
      </trkpt>
      <trkpt lat="4.6298" lon="-74.06672">
        <ele>2582.7</ele>
        <time>2020-08-30T13:21:07Z</time>
      </trkpt>
      <trkpt lat="4.62977" lon="-74.06668">
        <ele>2582.6</ele>
        <time>2020-08-30T13:21:09Z</time>
      </trkpt>
      <trkpt lat="4.62976" lon="-74.06665">
        <ele>2582.6</ele>
        <time>2020-08-30T13:21:10Z</time>
      </trkpt>
      <trkpt lat="4.62975" lon="-74.06662">
        <ele>2582.6</ele>
        <time>2020-08-30T13:21:11Z</time>
      </trkpt>
      <trkpt lat="4.62972" lon="-74.06658">
        <ele>2582.5</ele>
        <time>2020-08-30T13:21:13Z</time>
      </trkpt>
      <trkpt lat="4.62969" lon="-74.06655">
        <ele>2582.5</ele>
        <time>2020-08-30T13:21:15Z</time>
      </trkpt>
      <trkpt lat="4.62968" lon="-74.06653">
        <ele>2582.5</ele>
        <time>2020-08-30T13:21:16Z</time>
      </trkpt>
      <trkpt lat="4.62967" lon="-74.06649">
        <ele>2582.5</ele>
        <time>2020-08-30T13:21:18Z</time>
      </trkpt>
      <trkpt lat="4.62968" lon="-74.06642">
        <ele>2582.6</ele>
        <time>2020-08-30T13:21:19Z</time>
      </trkpt>
      <trkpt lat="4.62969" lon="-74.06637">
        <ele>2582.6</ele>
        <time>2020-08-30T13:21:20Z</time>
      </trkpt>
      <trkpt lat="4.62968" lon="-74.06632">
        <ele>2582.7</ele>
        <time>2020-08-30T13:21:22Z</time>
      </trkpt>
      <trkpt lat="4.62967" lon="-74.06629">
        <ele>2582.7</ele>
        <time>2020-08-30T13:21:24Z</time>
      </trkpt>
      <trkpt lat="4.62967" lon="-74.06627">
        <ele>2582.8</ele>
        <time>2020-08-30T13:21:26Z</time>
      </trkpt>
      <trkpt lat="4.62967" lon="-74.06626">
        <ele>2582.8</ele>
        <time>2020-08-30T13:21:27Z</time>
      </trkpt>
      <trkpt lat="4.62967" lon="-74.06625">
        <ele>2582.8</ele>
        <time>2020-08-30T13:21:29Z</time>
      </trkpt>
      <trkpt lat="4.62963" lon="-74.06615">
        <ele>2583.1</ele>
        <time>2020-08-30T13:21:31Z</time>
      </trkpt>
      <trkpt lat="4.62961" lon="-74.0661">
        <ele>2583.4</ele>
        <time>2020-08-30T13:21:33Z</time>
      </trkpt>
      <trkpt lat="4.6296" lon="-74.06607">
        <ele>2583.6</ele>
        <time>2020-08-30T13:21:34Z</time>
      </trkpt>
      <trkpt lat="4.6296" lon="-74.06606">
        <ele>2583.6</ele>
        <time>2020-08-30T13:21:35Z</time>
      </trkpt>
      <trkpt lat="4.62959" lon="-74.06603">
        <ele>2583.8</ele>
        <time>2020-08-30T13:21:37Z</time>
      </trkpt>
      <trkpt lat="4.62958" lon="-74.06601">
        <ele>2583.9</ele>
        <time>2020-08-30T13:21:39Z</time>
      </trkpt>
      <trkpt lat="4.62953" lon="-74.06593">
        <ele>2585.1</ele>
        <time>2020-08-30T13:21:41Z</time>
      </trkpt>
      <trkpt lat="4.62951" lon="-74.0659">
        <ele>2585.6</ele>
        <time>2020-08-30T13:21:42Z</time>
      </trkpt>
      <trkpt lat="4.62947" lon="-74.06584">
        <ele>2586.5</ele>
        <time>2020-08-30T13:21:44Z</time>
      </trkpt>
      <trkpt lat="4.62944" lon="-74.06579">
        <ele>2587.2</ele>
        <time>2020-08-30T13:21:46Z</time>
      </trkpt>
      <trkpt lat="4.62943" lon="-74.06576">
        <ele>2587.6</ele>
        <time>2020-08-30T13:21:47Z</time>
      </trkpt>
      <trkpt lat="4.62942" lon="-74.06572">
        <ele>2588.2</ele>
        <time>2020-08-30T13:21:49Z</time>
      </trkpt>
      <trkpt lat="4.62943" lon="-74.06569">
        <ele>2588.6</ele>
        <time>2020-08-30T13:21:50Z</time>
      </trkpt>
      <trkpt lat="4.62943" lon="-74.06565">
        <ele>2589.2</ele>
        <time>2020-08-30T13:21:52Z</time>
      </trkpt>
      <trkpt lat="4.62944" lon="-74.06562">
        <ele>2589.4</ele>
        <time>2020-08-30T13:21:54Z</time>
      </trkpt>
      <trkpt lat="4.62944" lon="-74.06561">
        <ele>2589.6</ele>
        <time>2020-08-30T13:21:55Z</time>
      </trkpt>
      <trkpt lat="4.62946" lon="-74.0656">
        <ele>2589.8</ele>
        <time>2020-08-30T13:21:57Z</time>
      </trkpt>
      <trkpt lat="4.62947" lon="-74.0656">
        <ele>2589.9</ele>
        <time>2020-08-30T13:21:58Z</time>
      </trkpt>
      <trkpt lat="4.62954" lon="-74.06555">
        <ele>2591.5</ele>
        <time>2020-08-30T13:21:59Z</time>
      </trkpt>
      <trkpt lat="4.62956" lon="-74.06553">
        <ele>2591.4</ele>
        <time>2020-08-30T13:22:00Z</time>
      </trkpt>
      <trkpt lat="4.6296" lon="-74.06551">
        <ele>2591.3</ele>
        <time>2020-08-30T13:22:02Z</time>
      </trkpt>
      <trkpt lat="4.62963" lon="-74.06549">
        <ele>2591.3</ele>
        <time>2020-08-30T13:22:04Z</time>
      </trkpt>
      <trkpt lat="4.62965" lon="-74.06549">
        <ele>2591.2</ele>
        <time>2020-08-30T13:22:06Z</time>
      </trkpt>
      <trkpt lat="4.62966" lon="-74.06549">
        <ele>2591.2</ele>
        <time>2020-08-30T13:22:07Z</time>
      </trkpt>
      <trkpt lat="4.62967" lon="-74.06548">
        <ele>2591.2</ele>
        <time>2020-08-30T13:22:09Z</time>
      </trkpt>
      <trkpt lat="4.62975" lon="-74.06551">
        <ele>2591.1</ele>
        <time>2020-08-30T13:22:11Z</time>
      </trkpt>
    </trkseg>
  </trk>
</gpx>